[[{"header":{"parameterUnit":"m.s-1","parameterCategory":1,"la1":30.6,"la2":28.766,"lo1":-90.7593,"lo2":-88.6598,"dy":0.0162,"dx":0.0183,"nx":116,"ny":114,"refTime":"2023-10-21T06:00:00:Z","depth":0,"parameterNumber":2,"parameterNumberName":"U-component_of_WINDS"},"data":[0.0,0.0,0.0,0.0,0.0,0.0,0.0,0.0,0.0,0.0,0.0,0.0,0.0,0.0,0.0,0.0,0.0,0.0,0.0,0.0,0.0,0.0,0.0,0.0,0.0,0.0,0.0,0.0,0.0,0.0,0.0,0.0,0.0,0.0,0.0,0.0,0.0,0.0,0.0,0.0,0.0,0.0,0.0,0.0,0.0,0.0,0.0,0.0,0.0,0.0,0.0,0.0,0.0,0.0,0.0,0.0,0.0,0.0,0.0,0.0,0.0,0.0,0.0,0.0,0.0,0.0,0.0,0.0,0.0,0.0,0.0,0.0,0.0,0.0,0.0,0.0,0.0,0.0,0.0,0.0,0.0,0.0,0.0,0.0,0.0,0.0,0.0,0.0,0.0,0.0,0.0,0.0,0.0,0.0,0.0,0.0,0.0,0.0,0.0,0.0,0.0,0.0,0.0,0.0,0.0,0.0,0.0,0.0,0.0,0.0,0.0,0.0,0.0,0.0,0.0,0.0,0.0,0.0,0.0,0.0,0.0,0.0,0.0,0.0,0.0,0.0,0.0,0.0,0.0,0.0,0.0,0.0,0.0,0.0,0.0,0.0,0.0,0.0,0.0,0.0,0.0,0.0,0.0,0.0,0.0,0.0,0.0,0.0,0.0,0.0,0.0,0.0,0.0,0.0,0.0,0.0,0.0,0.0,0.0,0.0,0.0,0.0,0.0,0.0,0.0,0.0,0.0,0.0,0.0,0.0,0.0,0.0,0.0,0.0,0.0,0.0,0.0,0.0,0.0,0.0,0.0,0.0,0.0,0.0,0.0,0.0,0.0,0.0,0.0,0.0,0.0,0.0,0.0,0.0,0.0,0.0,0.0,0.0,0.0,0.0,0.0,0.0,0.0,0.0,0.0,0.0,0.0,0.0,0.0,0.0,0.0,0.0,0.0,0.0,0.0,0.0,0.0,0.0,0.0,0.0,0.0,0.0,0.0,0.0,0.0,0.0,0.0,0.0,0.0,0.0,0.0,0.0,0.0,0.0,0.0,0.0,0.0,0.0,0.0,0.0,0.0,0.0,0.0,0.0,0.0,0.0,0.0,0.0,0.0,0.0,0.0,0.0,0.0,0.0,0.0,0.0,0.0,0.0,0.0,0.0,0.0,0.0,0.0,0.0,0.0,0.0,0.0,0.0,0.0,0.0,0.0,0.0,0.0,0.0,0.0,0.0,0.0,0.0,0.0,0.0,0.0,0.0,0.0,0.0,0.0,0.0,0.0,0.0,0.0,0.0,0.0,0.0,0.0,0.0,0.0,0.0,0.0,0.0,0.0,0.0,0.0,0.0,0.0,0.0,0.0,0.0,0.0,0.0,0.0,0.0,0.0,0.0,0.0,0.0,0.0,0.0,0.0,0.0,0.0,0.0,0.0,0.0,0.0,0.0,0.0,0.0,0.0,0.0,0.0,0.0,0.0,0.0,0.0,0.0,0.0,0.0,0.0,0.0,0.0,0.0,0.0,0.0,0.0,0.0,0.0,0.0,0.0,0.0,0.0,0.0,0.0,0.0,0.0,0.0,0.0,0.0,0.0,0.0,0.0,0.0,0.0,0.0,0.0,0.0,0.0,0.0,0.0,0.0,0.0,0.0,0.0,0.0,0.0,0.0,0.0,0.0,0.0,0.0,0.0,0.0,0.0,0.0,0.0,0.0,0.0,0.0,0.0,0.0,0.0,0.0,0.0,0.0,0.0,0.0,0.0,0.0,0.0,0.0,0.0,0.0,0.0,0.0,0.0,0.0,0.0,0.0,0.0,0.0,0.0,0.0,0.0,0.0,0.0,0.0,0.0,0.0,0.0,0.0,0.0,0.0,0.0,0.0,0.0,0.0,0.0,0.0,0.0,0.0,0.0,0.0,0.0,0.0,0.0,0.0,0.0,0.0,0.0,0.0,0.0,0.0,0.0,0.0,0.0,0.0,0.0,0.0,0.0,0.0,0.0,0.0,0.0,0.0,0.0,0.0,0.0,0.0,0.0,0.0,0.0,0.0,0.0,0.0,0.0,0.0,0.0,0.0,0.0,0.0,0.0,0.0,0.0,0.0,0.0,0.0,0.0,0.0,0.0,0.0,0.0,0.0,0.0,0.0,0.0,0.0,0.0,0.0,0.0,0.0,0.0,0.0,0.0,0.0,0.0,0.0,0.0,0.0,0.0,0.0,0.0,0.0,0.0,0.0,0.0,0.0,0.0,0.0,0.0,0.0,0.0,0.0,0.0,0.0,0.0,0.0,0.0,0.0,0.0,0.0,0.0,0.0,0.0,0.0,0.0,0.0,0.0,0.0,0.0,0.0,0.0,0.0,0.0,0.0,0.0,0.0,0.0,0.0,0.0,0.0,0.0,0.0,0.0,0.0,0.0,0.0,0.0,0.0,0.0,0.0,0.0,0.0,0.0,0.0,0.0,0.0,0.0,0.0,0.0,0.0,0.0,0.0,0.0,0.0,0.0,0.0,0.0,0.0,0.0,0.0,0.0,0.0,0.0,0.0,0.0,0.0,0.0,0.0,0.0,0.0,0.0,0.0,0.0,0.0,0.0,0.0,0.0,0.0,0.0,0.0,0.0,0.0,0.0,0.0,0.0,0.0,0.0,0.0,0.0,0.0,0.0,0.0,0.0,0.0,0.0,0.0,0.0,0.0,0.0,0.0,0.0,0.0,0.0,0.0,0.0,0.0,0.0,0.0,0.0,0.0,0.0,0.0,0.0,0.0,0.0,0.0,0.0,0.0,0.0,0.0,0.0,0.0,0.0,0.0,0.0,0.0,0.0,0.0,0.0,0.0,0.0,0.0,0.0,0.0,0.0,0.0,0.0,0.0,0.0,0.0,0.0,0.0,0.0,0.0,0.0,0.0,0.0,0.0,0.0,0.0,0.0,0.0,0.0,0.0,0.0,0.0,0.0,0.0,0.0,0.0,0.0,0.0,0.0,0.0,0.0,0.0,0.0,0.0,0.0,0.0,0.0,0.0,0.0,0.0,0.0,0.0,0.0,0.0,0.0,0.0,0.0,0.0,0.0,0.0,0.0,0.0,0.0,0.0,0.0,0.0,0.0,0.0,0.0,0.0,0.0,0.0,0.0,0.0,0.0,0.0,0.0,0.0,0.0,0.0,0.0,0.0,0.0,0.0,0.0,0.0,0.0,0.0,0.0,0.0,0.0,0.0,0.0,0.0,0.0,0.0,0.0,0.0,0.0,0.0,0.0,0.0,0.0,0.0,0.0,0.0,0.0,0.0,0.0,0.0,0.0,0.0,0.0,0.0,0.0,0.0,0.0,0.0,0.0,0.0,0.0,0.0,0.0,0.0,0.0,0.0,0.0,0.0,0.0,0.0,0.0,0.0,0.0,0.0,0.0,0.0,0.0,0.0,0.0,0.0,0.0,0.0,0.0,0.0,0.0,0.0,0.0,0.0,0.0,0.0,0.0,0.0,0.0,0.0,0.0,0.0,0.0,0.0,0.0,0.0,0.0,0.0,0.0,0.0,0.0,0.0,0.0,0.0,0.0,0.0,0.0,0.0,0.0,0.0,0.0,0.0,0.0,0.0,0.0,0.0,0.0,0.0,0.0,0.0,0.0,0.0,0.0,0.0,0.0,0.0,0.0,0.0,0.0,0.0,0.0,0.0,0.0,0.0,0.0,0.0,0.0,0.0,0.0,0.0,0.0,0.0,0.0,0.0,0.0,0.0,0.0,0.0,0.0,0.0,0.0,0.0,0.0,0.0,0.0,0.0,0.0,0.0,0.0,0.0,0.0,0.0,0.0,0.0,0.0,0.0,0.0,0.0,0.0,0.0,0.0,0.0,0.0,0.0,0.0,0.0,0.0,0.0,0.0,0.0,0.0,0.0,0.0,0.0,0.0,0.0,0.0,0.0,0.0,0.0,0.0,0.0,0.0,0.0,0.0,0.0,0.0,0.0,0.0,0.0,0.0,0.0,0.0,0.0,0.0,0.0,0.0,0.0,0.0,0.0,0.0,0.0,0.0,0.0,0.0,0.0,0.0,0.0,0.0,0.0,0.0,0.0,0.0,0.0,0.0,0.0,0.0,0.0,0.0,0.0,0.0,0.0,0.0,0.0,0.0,0.0,0.0,0.0,0.0,0.0,0.0,0.0,0.0,0.0,0.0,0.0,0.0,0.0,0.0,0.0,0.0,0.0,0.0,0.0,0.0,0.0,0.0,0.0,0.0,0.0,0.0,0.0,0.0,0.0,0.0,0.0,0.0,0.0,0.0,0.0,0.0,0.0,0.0,0.0,0.0,0.0,0.0,0.0,0.0,0.0,0.0,0.0,0.0,0.0,0.0,0.0,0.0,0.0,0.0,0.0,0.0,0.0,0.0,0.0,0.0,0.0,0.0,0.0,0.0,0.0,0.0,0.0,0.0,0.0,0.0,0.0,0.0,0.0,0.0,0.0,0.0,0.0,0.0,0.0,0.0,0.0,0.0,0.0,0.0,0.0,0.0,0.0,0.0,0.0,0.0,0.0,0.0,0.0,0.0,0.0,0.0,0.0,0.0,0.0,0.0,0.0,0.0,0.0,0.0,0.0,0.0,0.0,0.0,0.0,0.0,0.0,0.0,0.0,0.0,0.0,0.0,0.0,0.0,0.0,0.0,0.0,0.0,0.0,0.0,0.0,0.0,0.0,0.0,0.0,0.0,0.0,0.0,0.0,0.0,0.0,0.0,0.0,0.0,0.0,0.0,0.0,0.0,0.0,0.0,0.0,0.0,0.0,0.0,0.0,0.0,0.0,0.0,0.0,0.0,0.0,0.0,0.0,0.0,0.0,0.0,0.0,0.0,0.0,0.0,0.0,0.0,0.0,0.0,0.0,0.0,0.0,0.0,0.0,0.0,0.0,0.0,0.0,0.0,0.0,0.0,0.0,0.0,0.0,0.0,0.0,0.0,0.0,0.0,0.0,0.0,0.0,0.0,0.0,0.0,0.0,0.0,0.0,0.0,0.0,0.0,0.0,0.0,0.0,0.0,0.0,0.0,0.0,0.0,0.0,0.0,0.0,0.0,0.0,0.0,0.0,0.0,0.0,0.0,0.0,0.0,0.0,0.0,0.0,0.0,0.0,0.0,0.0,0.0,0.0,0.0,0.0,0.0,0.0,0.0,0.0,0.0,0.0,0.0,0.0,0.0,0.0,0.0,0.0,0.0,0.0,0.0,0.0,0.0,0.0,0.0,0.0,0.0,0.0,0.0,0.0,0.0,0.0,0.0,0.0,0.0,0.0,0.0,0.0,0.0,0.0,0.0,0.0,0.0,0.0,0.0,0.0,0.0,0.0,0.0,0.0,0.0,0.0,0.0,0.0,0.0,0.0,0.0,0.0,0.0,0.0,0.0,0.0,0.0,0.0,0.0,0.0,0.0,0.0,0.0,0.0,0.0,0.0,0.0,0.0,0.0,0.0,0.0,0.0,0.0,0.0,0.0,0.0,0.0,0.0,0.0,0.0,0.0,0.0,0.0,0.0,0.0,0.0,0.0,0.0,0.0,0.0,0.0,0.0,0.0,0.0,0.0,0.0,0.0,0.0,0.0,0.0,0.0,0.0,0.0,0.0,0.0,0.0,0.0,0.0,0.0,0.0,0.0,0.0,0.0,0.0,0.0,0.0,0.0,0.0,0.0,0.0,0.0,0.0,0.0,0.0,0.0,0.0,0.0,0.0,0.0,0.0,0.0,0.0,0.0,0.0,0.0,0.0,0.0,0.0,0.0,0.0,0.0,0.0,0.0,0.0,0.0,0.0,0.0,0.0,0.0,0.0,0.0,0.0,0.0,0.0,0.0,0.0,0.0,0.0,0.0,0.0,0.0,0.0,0.0,0.0,0.0,0.0,0.0,0.0,0.0,0.0,0.0,0.0,0.0,0.0,0.0,0.0,0.0,0.0,0.0,0.0,0.0,0.0,0.0,0.0,0.0,0.0,0.0,0.0,0.0,0.0,0.0,0.0,0.0,0.0,0.0,0.0,0.0,0.0,0.0,0.0,0.0,0.0,0.0,0.0,0.0,0.0,0.0,0.0,0.0,0.0,0.0,0.0,0.0,0.0,0.0,0.0,0.0,0.0,0.2317,0.2385,0.0,0.0,0.0,0.0,0.0,0.0,0.0,0.0,0.0,0.0,0.0,0.0,0.0,0.0,0.0,0.0,0.0,0.0,0.0,0.0,0.0,0.0,0.0,0.0,0.0,0.0,0.0,0.0,0.0,0.0,0.0,0.0,0.0,0.0,0.0,0.0,0.0,0.0,0.0,0.0,0.0,0.0,0.0,0.0,0.0,0.0,0.0,0.0,0.0,0.0,0.0,0.0,0.0,0.0,0.0,0.0,0.0,0.0,0.0,0.0,0.0,0.0,0.0,0.0,0.0,0.0,0.0,0.0,0.0,0.0,0.0,0.0,0.0,0.0,0.0,0.0,0.0,0.0,0.0,0.0,0.0,0.0,0.0,0.0,0.0,0.0,0.0,0.0,0.0,0.0,0.0,0.0,0.0,0.0,0.0,0.0,0.0,0.0,0.0,0.0,0.0,0.0,0.0,0.0,0.0,0.0,0.0,0.0,0.0,0.0,0.0,0.0,0.0,0.0,0.1503,0.2149,0.0,0.0,0.0,0.0,0.0,0.0,0.0,0.0,0.0,0.0,0.0,0.0,0.0,0.0,0.0,0.0,0.0,0.0,0.0,0.0,0.0,0.0,0.0,0.0,0.0,0.0,0.0,0.0,0.0,0.0,0.0,0.0,0.0,0.0,0.0,0.0,0.0,0.0,0.0,0.0,0.0,0.0,0.0,0.0,0.0,0.0,0.0,0.0,0.0,0.0,0.0,0.0,0.0,0.0,0.0,0.0,0.0,0.0,0.0,0.0,0.0,0.0,0.0,0.0,0.0,0.0,0.0,0.0,0.0,0.0,0.0,0.0,0.0,0.0,0.0,0.0,0.0,0.0,0.0,0.0,0.0,0.0,0.0,0.0,0.0,0.0,0.0,0.0,0.0,0.0,0.0,0.0,0.0,0.0,0.0,0.0,0.0,0.0,0.0,0.0,0.0,0.0,0.0,0.0,0.0,0.0,0.0,0.0,0.2088,0.1713,0.1201,0.0562,0.0176,0.0035,0.0449,0.1515,0.2862,0.163,0.0,0.0,0.0,0.0,0.0,0.0,0.0,0.0,0.0,0.0,0.0,0.0,0.0,0.0,0.0,0.0,0.0,0.0,0.0,0.0,0.0,0.0,0.0,0.0,0.0,0.0,0.0,0.0,0.0,0.0,0.0,0.0,0.0,0.0,0.0,0.0,0.0,0.0,-0.2662,-0.3084,-0.3292,-0.3279,0.0,0.0,0.0,0.0,0.0,0.0,0.0,0.0,0.0,0.0,0.0,0.0,0.0,0.0,0.0,0.0,0.0,0.0,0.0,0.0,0.0,0.0,0.0,0.0,0.0,0.0,0.0,0.0,0.0,0.0,0.0,0.0,0.0,0.0,0.0,0.0,0.0,0.0,0.0,0.0,0.0,0.0,0.0,0.0,0.0313,-0.0058,0.0,0.0,0.0,0.0,0.0,0.0,0.0,0.0,0.0,0.0,0.0,0.0,0.0,0.0272,0.0149,0.0539,0.0591,0.0362,-0.0161,-0.0411,-0.0343,-0.1116,-0.1497,-0.1543,-0.2144,0.0,-0.1063,-0.0352,0.0,0.0,0.0,0.0,0.0,0.0,0.0,0.0,0.0,0.0,0.0,0.0,0.0,0.0,0.0,0.0,0.0,0.0,0.0,0.0,0.0,0.0,0.0,0.0,0.0,0.0,0.0,0.0,0.0,0.0,0.0,0.0,0.0,0.0,0.0,0.0,-0.2616,-0.274,-0.2871,-0.3121,-0.3317,-0.3478,-0.3671,-0.3492,-0.3073,-0.319,0.0,0.0,0.0,0.0,0.0,0.0,0.0,0.0,0.0,0.0,0.0,0.0,0.0,0.0,0.0,0.0,0.0,0.0,0.0,0.0,0.0,0.0,0.0,0.0,0.0,0.0,0.0,0.0,0.0,0.0,0.0,0.0,0.0,0.0,0.0,0.0,0.0,0.0,0.0,0.0376,-0.047,-0.1479,-0.1089,-0.0674,0.0,0.0,0.0,0.0,0.0,0.0,0.0,0.0,0.0,-0.0337,-0.1389,-0.1639,-0.1012,-0.0879,-0.09,-0.1043,-0.2103,-0.3111,-0.3971,-0.4333,-0.4423,-0.4271,-0.4644,-0.4734,-0.4514,-0.2498,-0.1906,-0.2338,0.0,0.0,0.0,0.0,-0.1546,-0.0957,0.0,0.0,0.0,0.0,0.0,0.0,0.0,0.0,0.0,0.0,0.0,0.0,0.0,0.0,0.0,-0.366,0.0,0.0,0.0,0.0,0.0,0.0,0.0,0.0,0.0,0.0,0.0,0.0,-0.2848,-0.3033,-0.3293,-0.3331,-0.3493,-0.3748,-0.3905,-0.3685,-0.3216,-0.3313,-0.3232,0.0,0.0,0.0,0.0,0.0,0.0,0.0,0.0,0.0,0.0,0.0,0.0,0.0,0.0,0.0,0.0,0.0,0.0,0.0,0.0,0.0,0.0,0.0,0.0,0.0,0.0,0.0,0.0,0.0,0.0,0.0,0.0,0.0,0.0,0.0,0.0,0.0,0.0,-0.007,-0.1131,-0.245,-0.1749,-0.1183,0.0,0.0,0.0,0.0,0.0,0.0,-0.0453,-0.0682,-0.1193,-0.192,-0.3093,-0.3289,-0.2391,-0.2749,-0.2896,-0.2767,-0.4191,-0.5452,-0.6555,-0.6536,-0.6436,-0.6235,-0.6227,-0.6347,-0.6476,-0.4615,-0.3531,-0.314,-0.3338,-0.3175,-0.291,-0.3139,-0.2933,-0.2531,0.0,0.0,0.0,0.0,0.0,0.0,0.0,0.0,0.0,0.0,0.0,0.0,0.0,0.0,-0.3797,-0.3692,-0.3446,-0.3638,0.0,0.0,0.0,0.0,0.0,0.0,0.0,0.0,0.0,-0.3245,-0.3281,-0.3459,-0.3761,-0.3907,-0.4009,-0.4157,-0.4177,-0.4233,-0.4328,-0.4265,-0.345,-0.2321,0.0,0.0,0.0,0.0,0.0,0.0,0.0,0.0,0.0,0.0,0.0,0.0,0.0,0.0,0.0,0.0,0.0,0.0,0.0,0.0,0.0,0.0,0.0,0.0,0.0,0.0,0.0,0.0,0.0,0.0,0.0,0.0,0.0,0.0,0.0,0.0,0.0,0.0,0.0,-0.2259,-0.2689,0.0,0.0,0.0,0.0,-0.2011,-0.1565,-0.1396,-0.15,-0.1895,-0.2025,-0.1809,-0.3212,-0.3934,-0.3889,-0.5263,-0.5805,-0.5438,-0.6627,-0.6939,-0.6432,-0.6391,-0.6396,-0.6381,-0.6258,-0.6202,-0.6245,-0.6701,-0.6287,-0.536,-0.5476,-0.5508,-0.5497,-0.533,-0.5441,-0.5679,0.0,0.0,0.0,0.0,0.0,0.0,0.0,0.0,0.0,0.0,0.0,0.0,0.0,-0.4991,-0.451,-0.4482,-0.396,-0.361,-0.3585,0.0,0.0,0.0,0.0,0.0,0.0,0.0,-0.3133,-0.3177,-0.3402,-0.3649,-0.3941,-0.4043,-0.4246,-0.4385,-0.4388,-0.4433,-0.4364,-0.3209,-0.2933,-0.3417,-0.4499,-0.4986,0.0,0.0,0.0,0.0,0.0,0.0,0.0,0.0,0.0,0.0,0.0,0.0,0.0,0.0,0.0,0.0,0.0,0.0,0.0,0.0,0.0,0.0,0.0,0.0,0.0,0.0,0.0,0.0,0.0,0.0,0.0,0.0,0.0,0.0,0.0,0.0,0.0,-0.2802,-0.3021,0.0,-0.3011,-0.3102,-0.2995,-0.2658,-0.2849,-0.3017,-0.315,-0.4323,-0.4517,-0.3384,-0.5061,-0.5594,-0.4723,-0.5717,-0.6152,-0.599,-0.6526,-0.6894,-0.7132,-0.7188,-0.7477,-0.7949,-0.7902,-0.7858,-0.7916,-0.8095,-0.7261,-0.5855,-0.5954,-0.5968,-0.5895,-0.5914,-0.5989,-0.611,0.0,0.0,0.0,0.0,0.0,0.0,0.0,0.0,0.0,0.0,0.0,-0.5579,-0.5794,-0.5154,-0.4741,-0.4741,-0.4202,-0.3906,-0.4004,0.0,0.0,0.0,0.0,0.0,0.0,-0.3294,-0.3227,-0.3276,-0.3632,-0.3931,-0.4172,-0.4273,-0.4372,-0.4519,-0.4519,-0.4522,-0.4417,-0.3142,-0.3112,-0.3922,-0.4643,-0.4958,-0.5112,0.0,0.0,0.0,0.0,0.0,0.0,0.0,0.0,0.0,0.0,0.0,0.0,0.0,0.0,0.0,0.0,0.0,0.0,0.0,0.0,0.0,0.0,0.0,0.0,0.0,0.0,0.0,0.0,0.0,0.0,0.0,0.0,0.0,0.0,-0.2273,-0.278,-0.3262,-0.338,-0.3433,-0.353,-0.3536,-0.3447,-0.3265,-0.368,-0.4098,-0.4408,-0.5529,-0.5765,-0.496,-0.6253,-0.6494,-0.5535,-0.6307,-0.6701,-0.6701,-0.707,-0.7465,-0.7941,-0.8022,-0.8468,-0.9113,-0.891,-0.9061,-0.9465,-0.9211,-0.8531,-0.7605,-0.7358,-0.7379,-0.7476,-0.7608,-0.7541,-0.7381,0.0,0.0,0.0,0.0,0.0,0.0,0.0,0.0,0.0,0.0,-0.5297,-0.487,-0.4765,-0.4563,-0.4428,-0.4468,-0.4187,-0.4567,-0.5907,-0.5065,0.0,0.0,0.0,0.0,-0.2862,-0.3348,-0.36,-0.3588,-0.3979,-0.4321,-0.4512,-0.4515,-0.4519,-0.4519,-0.4519,-0.4519,-0.4508,-0.4314,-0.3989,-0.3664,-0.4303,-0.4851,-0.529,0.0,0.0,0.0,0.0,0.0,0.0,0.0,0.0,0.0,0.0,0.0,0.0,0.0,0.0,0.0,0.0,0.0,0.0,0.0,0.0,0.0,0.0,0.0,0.0,0.0,0.0,0.0,0.0,0.0,0.0,0.0,0.0,0.0,-0.2779,-0.3266,-0.3592,-0.3551,-0.3853,-0.4033,-0.4082,-0.4082,-0.4082,-0.4082,-0.4082,-0.4448,-0.5276,-0.534,-0.5699,-0.6365,-0.6579,-0.6589,-0.6422,-0.7278,-0.7723,-0.7723,-0.848,-0.8804,-0.8857,-0.8857,-0.9218,-0.9829,-0.9173,-0.9636,-1.0804,-1.0146,-1.0249,-1.0762,-0.9818,-0.9825,-1.0398,-1.0398,-1.0129,-0.9718,0.0,0.0,0.0,0.0,0.0,0.0,0.0,0.0,0.0,0.0,-0.5778,-0.5608,-0.6099,-0.5653,-0.5443,-0.5687,-0.4846,-0.4663,-0.5515,0.0,0.0,0.0,0.0,0.0,-0.3765,-0.3949,-0.3941,-0.3734,-0.403,-0.4214,-0.4307,-0.4412,-0.4519,-0.4519,-0.4519,-0.4519,-0.4515,-0.4419,-0.4244,-0.4053,-0.4084,-0.4427,-0.4956,0.0,0.0,0.0,0.0,0.0,0.0,0.0,0.0,0.0,0.0,0.0,0.0,0.0,0.0,0.0,0.0,0.0,0.0,0.0,0.0,0.0,0.0,0.0,0.0,0.0,0.0,0.0,0.0,0.0,0.0,0.0,-0.3147,-0.3419,-0.343,-0.3585,-0.395,-0.4721,-0.4996,-0.5288,-0.5827,-0.588,-0.588,-0.588,-0.588,-0.6009,-0.6226,-0.6764,-0.6871,-0.6551,-0.7629,-0.7906,-0.7348,-0.8119,-0.848,-0.848,-0.8699,-0.9061,-0.951,-0.951,-1.0098,-1.1007,-1.0849,-1.1108,-1.1731,-1.1513,-1.1839,-1.2307,-1.0971,-1.0523,-1.0673,-1.0673,-1.0335,-0.9718,0.0,0.0,0.0,0.0,0.0,0.0,0.0,0.0,0.0,0.0,-0.5984,-0.6004,-0.6327,-0.6027,-0.5858,-0.604,-0.5432,-0.5282,-0.5827,0.0,0.0,0.0,0.0,-0.4303,-0.4139,-0.4128,-0.4068,-0.3982,-0.4222,-0.4495,-0.4759,-0.4852,-0.4893,-0.4893,-0.4893,-0.4787,-0.4519,-0.4519,-0.4412,-0.4324,-0.4203,-0.4423,-0.4829,-0.4898,-0.5114,-0.5311,-0.5101,-0.5098,-0.5156,-0.4659,0.0,0.0,0.0,0.0,0.0,0.0,0.0,0.0,0.0,0.0,0.0,0.0,0.0,0.0,0.0,0.0,0.0,0.0,0.0,0.0,0.0,0.0,0.0,0.0,-0.38,-0.4521,-0.4708,-0.4707,-0.4825,-0.532,-0.5878,-0.6298,-0.6598,-0.6588,-0.6588,-0.6588,-0.6588,-0.675,-0.702,-0.745,-0.7771,-0.7913,-0.8778,-0.8995,-0.856,-0.8995,-0.9061,-0.8811,-0.9291,-0.9595,-0.9821,-1.0469,-1.1219,-1.1912,-1.18,-1.2212,-1.2922,-1.2648,-1.2922,-1.3411,0.0,0.0,0.0,0.0,-1.0965,-1.0517,0.0,0.0,0.0,0.0,0.0,0.0,0.0,0.0,0.0,0.0,0.0,-0.6129,-0.588,-0.5833,-0.5846,-0.5891,-0.5904,-0.6088,0.0,0.0,0.0,-0.5167,-0.5114,-0.4894,-0.4389,-0.4385,-0.4372,-0.4323,-0.4508,-0.4893,-0.5487,-0.5487,-0.555,-0.5681,-0.566,-0.5352,-0.4842,-0.4827,-0.4827,-0.4842,-0.4842,-0.4876,-0.4928,-0.4732,-0.5079,-0.5673,-0.5301,-0.5148,-0.5133,-0.4975,0.0,0.0,0.0,0.0,0.0,0.0,0.0,0.0,0.0,0.0,0.0,0.0,0.0,0.0,0.0,0.0,0.0,0.0,0.0,0.0,0.0,0.0,0.0,0.0,-0.4607,-0.5667,-0.6248,-0.6339,-0.6226,-0.5903,-0.6636,-0.7125,-0.6916,-0.6874,-0.6858,-0.6858,-0.6907,-0.723,-0.7877,-0.8031,0.0,0.0,0.0,-0.9814,-0.9814,-0.9814,-0.9562,-0.9061,-1.0097,-1.0394,-1.0087,-1.1494,-1.2295,-1.2577,-1.2427,-1.3004,-1.4155,-1.3588,-1.3697,-1.4053,-1.2995,-1.2983,-1.3345,-1.2227,-1.1765,-1.1516,0.0,0.0,0.0,0.0,0.0,0.0,0.0,0.0,0.0,-0.5968,-0.5807,-0.5708,-0.5677,-0.5475,-0.544,-0.5722,-0.5881,-0.6191,0.0,0.0,-0.5807,-0.5714,-0.5874,-0.5791,-0.541,-0.6239,-0.6194,-0.5221,-0.5307,-0.5378,-0.5487,-0.5487,-0.5954,-0.6788,-0.6499,-0.6612,-0.6925,-0.6696,-0.6726,-0.6939,-0.6939,-0.644,-0.5666,-0.4658,-0.4899,-0.5627,-0.4634,-0.4319,-0.439,-0.4378,-0.4418,-0.4562,-0.4796,0.0,0.0,0.0,0.0,0.0,0.0,0.0,0.0,0.0,0.0,0.0,0.0,0.0,0.0,0.0,0.0,0.0,0.0,0.0,0.0,-0.4815,-0.6072,-0.7107,-0.722,-0.7898,-0.8329,-0.8015,-0.7972,-0.8199,-0.865,-0.8502,-0.8374,-0.8374,-0.8876,-0.9235,-0.9399,-0.9894,-1.0108,-0.9814,-0.9814,-0.9814,-0.9814,-0.9814,-1.002,-1.0415,-1.1035,0.0,-1.1434,-1.213,-1.2736,-1.332,-1.3575,-1.4055,-1.4687,-1.4849,-1.4848,-1.458,-1.3642,-1.3404,-1.3345,-1.2227,-1.1466,-1.0965,0.0,0.0,0.0,0.0,0.0,0.0,0.0,0.0,0.0,0.0,-0.6371,-0.6392,-0.6522,-0.6102,-0.5951,-0.6379,-0.6065,0.0,0.0,-0.616,-0.5948,-0.6245,-0.6291,-0.6363,-0.6497,-0.6821,-0.6632,-0.6036,-0.6036,-0.6253,-0.6573,-0.6573,-0.6973,-0.765,-0.7472,-0.7451,-0.7472,-0.7359,-0.7379,-0.7483,-0.7483,-0.7478,-0.7372,-0.6251,-0.6086,-0.6392,-0.5752,-0.5461,-0.5285,-0.5291,-0.5282,-0.5344,-0.5535,-0.5253,-0.4848,0.0,0.0,0.0,0.0,0.0,0.0,0.0,0.0,0.0,0.0,0.0,0.0,0.0,0.0,-0.3155,-0.3202,0.0,-0.5365,-0.547,-0.7069,-0.8298,-0.8365,-0.924,-0.9488,-0.8717,-0.8792,-0.9003,-0.9196,-0.8978,-0.8962,-0.9256,-0.9614,-0.9969,-1.0261,-1.0618,-1.0813,-1.0813,-1.0813,-1.0904,-1.1162,-1.1162,-1.1253,-1.1481,-1.204,-1.2255,-1.2199,-1.3196,-1.3704,-1.3857,-1.4492,-1.4893,-1.5117,-1.5322,-1.542,-1.5332,-1.4482,-1.4014,-1.3717,-1.2906,-1.2573,-1.2391,0.0,0.0,0.0,0.0,0.0,0.0,0.0,0.0,0.0,0.0,-0.6912,-0.7055,-0.7302,-0.6758,-0.661,0.0,0.0,0.0,0.0,-0.6364,-0.6278,-0.6673,-0.6755,-0.6996,-0.7488,-0.7167,-0.6966,-0.6804,-0.6804,-0.7155,-0.78,-0.78,-0.8074,-0.8543,-0.8494,-0.8357,-0.8094,-0.8045,-0.8056,-0.8094,-0.8094,-0.8581,-0.9229,-0.8357,-0.7757,-0.7374,-0.7162,-0.6815,-0.6436,-0.6386,-0.6347,-0.6283,-0.6251,-0.5996,-0.5676,-0.5497,-0.5324,0.0,0.0,0.0,0.0,0.0,0.0,0.0,0.0,-0.4768,-0.4504,-0.391,-0.3983,-0.413,-0.4051,-0.5208,-0.6234,-0.6416,-0.8032,-0.9339,-0.9564,-1.0174,-1.0168,-0.9045,-0.9356,-0.9593,-0.9352,-0.9113,-0.9211,-0.9762,-1.0064,-1.0446,-1.1073,-1.1167,-1.141,-1.1941,-1.1859,-1.1977,-1.238,-1.2461,-1.2449,-1.237,-1.3077,-1.3212,-1.2853,-1.4205,-1.4551,-1.4116,-1.4951,-1.5342,-1.541,-1.541,-1.5615,-1.5869,-1.5176,-1.4697,-1.4262,-1.3818,-1.3733,-1.3806,0.0,0.0,0.0,0.0,0.0,0.0,0.0,0.0,0.0,0.0,0.0,0.0,0.0,0.0,0.0,0.0,0.0,0.0,-0.713,-0.6299,-0.6125,-0.6934,-0.7762,-0.8204,-0.827,-0.8443,-0.8209,-0.7557,-0.7557,-0.7786,-0.8126,-0.8126,-0.8788,-0.9887,-0.9629,-0.9821,-1.0246,-0.9929,-0.9969,-1.0266,-1.0266,-1.0349,-1.0412,-0.9991,-0.9219,-0.83,-0.7448,-0.6903,-0.6611,-0.6314,-0.642,-0.6594,-0.6412,-0.6278,-0.6103,-0.6034,-0.5731,-0.5342,-0.491,-0.472,-0.4695,-0.4897,-0.5161,-0.5547,0.0,-0.6611,-0.6595,-0.6006,-0.6728,-0.7161,-0.6119,-0.7413,-0.8644,-0.8618,-0.9643,-1.0458,-1.0428,-1.0561,-1.0441,-0.9979,-0.9781,-0.9666,-0.9633,-0.9656,-0.971,-0.9814,-1.0914,-1.1775,-1.2261,-1.252,-1.2582,-1.2425,-1.2013,-1.1832,-1.1886,-1.2317,-1.2794,-1.3368,-1.4183,-1.4373,-1.3912,-1.4505,-1.4551,-1.4107,-1.4648,-1.5068,-1.541,-1.541,-1.5439,-1.5478,-1.5381,-1.5312,-1.5176,-1.4301,-1.3654,-1.3304,0.0,0.0,0.0,0.0,0.0,0.0,0.0,0.0,0.0,0.0,0.0,0.0,0.0,0.0,0.0,0.0,0.0,0.0,-0.7053,-0.6385,-0.6402,-0.7495,-0.8083,-0.8457,-0.8624,-0.8744,-0.8646,-0.8321,-0.8321,-0.8514,-0.8788,-0.8788,-0.9259,-1.0114,-0.9987,-1.0167,-1.0618,-1.0428,-1.0448,-1.0624,-1.0624,-1.0454,-1.0267,-0.998,-0.9459,-0.8818,-0.8554,-0.826,0.0,0.0,-0.7769,-0.7766,-0.7559,-0.7321,-0.706,-0.6807,-0.6608,-0.6378,-0.6097,-0.5999,-0.6091,-0.6789,-0.6989,-0.7217,-0.7859,-0.8146,-0.8108,-0.7701,-0.7845,-0.7958,-0.7545,-0.8424,-0.922,-0.9367,-1.0072,-1.0805,-1.1468,-1.1183,-1.1027,-1.1376,-1.0944,-1.0461,-1.0079,-1.0161,-1.0522,-1.1308,-1.2131,-1.281,-1.3374,-1.3546,-1.342,-1.3086,-1.2897,-1.2802,-1.2802,-1.3228,-1.3729,-1.4258,-1.4619,-1.4687,-1.4521,-1.4697,-1.4824,-1.4893,-1.5068,-1.5391,-1.5771,-1.5518,-1.5557,-1.5762,-1.5508,-1.541,-1.5342,-1.4736,-1.4492,-1.444,0.0,0.0,0.0,0.0,0.0,0.0,0.0,0.0,0.0,0.0,0.0,0.0,0.0,0.0,0.0,0.0,0.0,0.0,0.0,-0.6638,-0.6907,-0.7706,-0.8311,-0.8656,-0.8798,-0.8804,-0.8804,-0.8804,-0.8804,-0.8998,-0.9359,-0.9359,-0.9673,-1.0241,-1.0241,-1.0401,-1.0739,-1.0658,-1.0624,-1.0618,-1.0474,-1.0214,-0.9833,-0.9572,-0.9327,-0.9123,-0.9341,-0.9219,0.0,0.0,-0.8716,-0.8543,-0.8158,-0.7908,-0.7672,-0.707,-0.6815,-0.6755,-0.6859,-0.6943,-0.7251,-0.8343,-0.8612,-0.8788,-0.9419,-0.9586,-0.9554,-0.9063,-0.9059,-0.9008,-0.8655,-0.919,-0.9695,-0.9817,-1.0437,-1.1157,-1.184,-1.1639,-1.1631,-1.202,-1.1642,-1.1166,-1.0751,-1.0945,-1.1436,-1.2455,-1.303,-1.3631,-1.4253,-1.4145,-1.4053,-1.3867,-1.374,-1.3682,-1.3682,-1.4102,-1.4473,-1.4785,-1.4902,-1.4961,-1.4961,-1.4961,-1.5117,-1.541,-1.541,-1.5664,-1.6096,-1.5723,-1.585,-1.6221,-1.5898,-1.5703,-1.5557,-1.5254,-1.5254,-1.5371,0.0,0.0,0.0,0.0,0.0,0.0,0.0,0.0,0.0,0.0,0.0,0.0,0.0,0.0,0.0,0.0,0.0,0.0,0.0,-0.7214,-0.7505,-0.7412,-0.8533,-0.9048,-0.8804,-0.8804,-0.8804,-0.8804,-0.8804,-0.9105,-0.9666,-0.9666,-0.9987,-1.0611,-1.0611,-1.0708,-1.0962,-1.0681,-1.0624,-1.0598,-1.0247,-0.9786,-0.9205,-0.908,-0.9167,-0.9348,-0.9243,0.0,0.0,0.0,-0.878,-0.8467,-0.761,-0.7509,0.0,-0.6458,-0.5951,-0.5877,-0.6518,-0.6943,-0.7477,-0.8791,-0.9369,-0.9873,-1.0762,-1.1115,-1.1041,-1.0071,-1.0629,-1.0812,-0.9285,-0.9843,-1.0468,-1.0126,-1.1027,-1.1598,-1.1174,-1.1835,-1.2094,-1.1428,-1.1321,-1.1427,-1.1719,-1.216,-1.2455,-1.2507,-1.3465,-1.4262,-1.4746,-1.4365,-1.4326,-1.4736,-1.4336,-1.4058,-1.4058,-1.4551,-1.4775,-1.4785,-1.5195,-1.5391,-1.5391,-1.5391,-1.54,-1.541,-1.541,-1.5664,-1.6125,-1.6105,-1.6309,-1.6709,-1.6699,-1.6426,-1.6105,-1.6086,-1.5762,-1.541,0.0,0.0,0.0,0.0,0.0,0.0,0.0,0.0,0.0,0.0,0.0,0.0,0.0,0.0,0.0,0.0,0.0,0.0,0.0,-0.7228,-0.7309,-0.713,-0.8357,-0.8959,-0.8889,-0.9414,-0.9647,-0.9465,-0.9465,-0.9421,-0.9385,-0.9385,-0.9599,-0.9987,-1.018,-1.0321,-1.0408,-1.0307,-1.0267,-1.0207,-0.9797,-0.9652,-0.9627,-0.9306,-0.9426,-0.9669,0.0,0.0,0.0,0.0,-0.8366,-0.7815,-0.753,-0.7454,-0.7446,-0.7239,-0.683,-0.668,-0.753,-0.8119,-0.8711,-0.9542,-1.0187,-1.0681,-1.1169,-1.1356,-1.1226,-1.0766,-1.0661,-1.0437,-0.9661,-0.9508,-0.9656,-1.0163,-1.0307,-1.0894,-1.2382,-1.2478,-1.2577,-1.3103,-1.3155,-1.3094,-1.2947,-1.2683,-1.2825,-1.3527,-1.4154,-1.4746,-1.5176,-1.5059,-1.4922,-1.4785,-1.4648,-1.4424,-1.4077,-1.457,-1.4785,-1.4785,-1.5215,-1.541,-1.541,-1.541,-1.541,-1.543,-1.5723,-1.5928,-1.6145,-1.6387,-1.6602,-1.6665,-1.6665,-1.6641,-1.6475,-1.6172,-1.6027,-1.5801,0.0,0.0,0.0,0.0,0.0,0.0,0.0,0.0,0.0,0.0,0.0,0.0,0.0,0.0,0.0,0.0,0.0,0.0,0.0,0.0,-0.7507,-0.7214,-0.8255,-0.8911,-0.9136,-0.941,-0.9558,-0.9636,-0.9227,-0.9009,-0.8962,-0.884,-0.9134,-0.9755,-0.9897,-1.0165,-1.0356,-1.0073,-0.9967,-0.9893,-0.956,-0.9468,-0.9485,-0.9263,-0.9553,0.0,0.0,0.0,0.0,0.0,-0.8257,-0.7748,-0.7495,-0.721,-0.6971,-0.7103,-0.704,-0.7133,-0.7943,-0.8791,-0.9606,-1.0514,-1.0949,-1.1223,-1.1516,-1.1423,-1.1129,-1.0812,-1.0391,-0.993,-0.9475,-0.913,-0.9197,-1.0013,-1.0302,-1.1052,-1.2973,-1.3089,-1.3318,-1.4212,-1.4365,-1.4316,-1.4199,-1.367,-1.3635,-1.4291,-1.4912,-1.5361,-1.5635,-1.5644,-1.5518,-1.5254,-1.5088,-1.4951,-1.4824,-1.5098,-1.5322,-1.5488,-1.5752,-1.5879,-1.5879,-1.5879,-1.5879,-1.5898,-1.6182,-1.6387,-1.6553,-1.6846,-1.7051,-1.7187,-1.7187,-1.71,-1.6914,-1.6465,-1.6299,-1.6221,0.0,0.0,0.0,0.0,0.0,0.0,0.0,0.0,0.0,0.0,0.0,0.0,0.0,0.0,0.0,0.0,0.0,0.0,0.0,0.0,0.0,-0.7589,-0.828,-0.8942,-0.9555,-0.8776,-0.8698,-0.9307,-0.8236,-0.8016,-0.8598,-0.8318,-0.8755,-0.9779,-0.9867,-1.0242,-1.0878,-1.0162,-0.9792,-0.962,-0.9529,-0.9224,-0.8818,-0.8865,0.0,0.0,0.0,0.0,0.0,0.0,-0.8435,-0.817,-0.7455,-0.6712,-0.6147,-0.6194,-0.6605,-0.7194,-0.7885,-0.8976,-1.0228,-1.1565,-1.165,-1.151,-1.175,-1.1417,-1.0796,-1.0298,-0.9875,-0.9363,-0.8669,-0.8774,-0.9167,-0.9803,-1.0927,-1.2037,-1.2842,-1.365,-1.4321,-1.4775,-1.4863,-1.5029,-1.541,-1.5107,-1.4883,-1.4883,-1.5596,-1.6105,-1.6154,-1.6154,-1.6145,-1.6125,-1.5684,-1.5664,-1.6115,-1.6145,-1.6309,-1.6665,-1.6665,-1.6665,-1.6665,-1.6665,-1.6719,-1.6699,-1.6748,-1.6982,-1.7353,-1.7402,-1.7656,-1.8008,-1.8008,-1.7764,-1.7363,-1.6924,-1.6768,-1.6641,0.0,0.0,0.0,0.0,0.0,0.0,0.0,0.0,0.0,0.0,0.0,0.0,0.0,0.0,0.0,0.0,0.0,0.0,0.0,0.0,0.0,0.0,0.0,0.0,0.0,0.0,0.0,0.0,0.0,-0.8905,-0.8621,-0.9026,-0.9402,-0.9753,-1.0576,-1.0998,-1.112,-1.0906,-1.0474,-0.9856,0.0,-0.9167,-0.9026,0.0,0.0,0.0,0.0,0.0,0.0,-0.92,-0.8796,-0.8065,-0.6682,-0.6349,-0.6488,-0.6502,-0.708,-0.7917,-0.8735,-1.0174,-1.1411,-1.1503,-1.165,-1.1603,-1.1095,-1.0802,-1.0321,-0.9379,-0.9113,-0.8904,-0.8274,-0.8194,-0.8585,-0.9675,-1.0331,-1.1385,-1.3153,-1.4163,-1.4821,-1.5216,-1.583,-1.6143,-1.5918,-1.6103,-1.624,-1.624,-1.583,-1.5859,-1.6523,-1.6562,-1.6406,-1.6135,-1.6279,-1.6289,-1.6125,-1.6396,-1.6621,-1.6665,-1.6665,-1.6665,-1.6665,-1.6665,-1.6553,-1.6269,-1.6934,-1.709,-1.6953,-1.7588,-1.791,-1.8008,-1.8008,-1.7949,-1.7803,-1.7373,-1.7217,-1.7139,0.0,0.0,0.0,0.0,0.0,0.0,0.0,0.0,0.0,0.0,0.0,0.0,0.0,0.0,0.0,0.0,0.0,0.0,0.0,0.0,0.0,0.0,0.0,0.0,0.0,0.0,0.0,0.0,0.0,0.0,0.0,-0.8497,-0.8976,-0.9636,-1.0325,-1.0887,-1.1297,0.0,0.0,0.0,0.0,0.0,0.0,0.0,0.0,0.0,0.0,0.0,0.0,0.0,-0.852,-0.7636,-0.7033,-0.7102,-0.7399,-0.7454,-0.8197,-0.9073,-0.9643,-1.0835,-1.183,-1.1663,-1.1557,-1.1317,-1.0671,-1.0172,-0.9629,-0.8815,-0.8543,-0.838,-0.8142,-0.8145,-0.8638,-1.0004,-1.0481,-1.1394,-1.3533,-1.4428,-1.5141,-1.5887,-1.6602,-1.7061,-1.7178,-1.709,-1.7168,-1.7539,-1.6768,-1.6494,-1.6992,-1.7021,-1.6904,-1.665,-1.6699,-1.6699,-1.6641,-1.708,-1.7295,-1.7295,-1.7295,-1.7295,-1.7295,-1.7295,-1.7158,-1.6943,-1.7441,-1.7519,-1.7334,-1.7812,-1.8008,-1.8008,-1.8008,-1.8008,-1.7959,-1.7539,-1.75,-1.7598,0.0,0.0,0.0,0.0,0.0,0.0,0.0,0.0,0.0,0.0,0.0,0.0,0.0,0.0,0.0,0.0,0.0,0.0,0.0,0.0,0.0,0.0,0.0,0.0,0.0,0.0,0.0,0.0,0.0,0.0,0.0,0.0,0.0,0.0,0.0,0.0,0.0,0.0,0.0,0.0,0.0,0.0,0.0,0.0,0.0,0.0,0.0,0.0,0.0,0.0,-0.8121,-0.7357,-0.7824,-0.8196,-0.8443,-0.8534,-0.9335,-1.0208,-1.0362,-1.1173,-1.185,-1.177,-1.1343,-1.0803,-1.0322,-0.9561,-0.8881,-0.8523,-0.8184,-0.802,-0.8265,-0.8374,-0.898,-1.0661,-1.0981,-1.1762,-1.3795,-1.4609,-1.54,-1.6592,-1.7168,-1.7773,-1.8564,-1.793,-1.7793,-1.8504,-1.791,-1.7471,-1.7471,-1.7471,-1.7471,-1.7471,-1.71,-1.7109,-1.7539,-1.7969,-1.8144,-1.8096,-1.8096,-1.8057,-1.8008,-1.8008,-1.7978,-1.793,-1.7988,-1.7978,-1.793,-1.7988,-1.8008,-1.8008,-1.8008,-1.8008,-1.7969,-1.7598,-1.7695,-1.7959,0.0,0.0,0.0,0.0,0.0,0.0,0.0,0.0,0.0,0.0,0.0,0.0,0.0,0.0,0.0,0.0,0.0,0.0,0.0,0.0,0.0,0.0,0.0,0.0,0.0,0.0,0.0,0.0,0.0,0.0,0.0,0.0,0.0,0.0,0.0,0.0,0.0,0.0,0.0,0.0,0.0,0.0,0.0,0.0,0.0,0.0,0.0,0.0,0.0,0.0,-0.8826,-0.8573,-0.7711,-0.7935,-0.8507,-0.8313,-0.9069,-1.0042,-1.0472,-1.1255,-1.175,-1.1269,-1.0889,-1.0452,-0.9604,-0.9101,-0.8723,-0.8331,-0.82,-0.8308,-0.8859,-0.8723,-0.9209,-1.1224,-1.1426,-1.1987,-1.382,-1.5117,-1.6064,-1.666,-1.7422,-1.8096,-1.8523,-1.8193,-1.8105,-1.8523,-1.8184,-1.79,-1.79,-1.79,-1.79,-1.79,-1.7832,-1.7988,-1.8418,-1.8848,-1.8887,-1.8525,-1.8525,-1.835,-1.8008,-1.8008,-1.7822,-1.751,-1.7861,-1.7812,-1.7519,-1.7871,-1.8008,-1.8008,-1.8008,-1.8008,-1.7998,-1.793,-1.7949,-1.7998,0.0,0.0,0.0,0.0,0.0,0.0,0.0,0.0,0.0,0.0,0.0,0.0,0.0,0.0,0.0,0.0,0.0,0.0,0.0,0.0,0.0,0.0,0.0,0.0,0.0,-0.846,-0.8447,-0.8343,0.0,-0.8247,-0.8013,-0.8434,-0.9173,-1.0146,-1.0348,0.0,0.0,0.0,0.0,0.0,0.0,0.0,0.0,0.0,0.0,0.0,0.0,0.0,0.0,0.0,-0.9545,-0.9286,-0.8541,-0.8551,-0.8921,-0.8983,-0.9649,-1.036,-1.0823,-1.1372,-1.1764,-1.1323,-1.0768,-1.0171,-0.9433,-0.8725,-0.8251,-0.815,-0.8179,-0.8354,-0.8887,-0.8945,-0.9335,-1.0702,-1.0763,-1.1257,-1.2959,-1.4106,-1.5146,-1.625,-1.7158,-1.8027,-1.8896,-1.8389,-1.8281,-1.8926,-1.8379,-1.8008,-1.8008,-1.8008,-1.8008,-1.8008,-1.8223,-1.8428,-1.8562,-1.9072,-1.918,-1.8975,-1.874,-1.8525,-1.833,-1.8115,-1.79,-1.7715,-1.793,-1.79,-1.7725,-1.793,-1.8008,-1.8008,-1.8008,-1.8008,-1.8008,-1.8008,-1.8008,-1.8008,0.0,0.0,0.0,0.0,0.0,0.0,0.0,0.0,0.0,0.0,0.0,0.0,0.0,0.0,0.0,0.0,0.0,0.0,0.0,0.0,0.0,0.0,0.0,0.0,0.0,0.0,0.0,-0.8287,-0.833,0.0,0.0,0.0,0.0,0.0,-0.9709,-1.023,-1.1033,0.0,0.0,0.0,0.0,-0.8513,0.0,0.0,0.0,0.0,0.0,0.0,0.0,0.0,-1.0029,-0.9527,-0.9317,-0.9344,-0.9447,-0.9814,-1.0226,-1.067,-1.1107,-1.1512,-1.169,-1.1329,-1.0628,-0.9843,-0.929,-0.8468,-0.789,-0.8169,-0.8226,-0.8411,-0.8984,-0.9084,-0.936,-1.0235,-1.0242,-1.0705,-1.2233,-1.3254,-1.44,-1.5939,-1.6924,-1.7988,-1.917,-1.8516,-1.8359,-1.9219,-1.8496,-1.8008,-1.8008,-1.8096,-1.8144,-1.8144,-1.8643,-1.8906,-1.8906,-1.9346,-1.9463,-1.9287,-1.8936,-1.8682,-1.8486,-1.8154,-1.8008,-1.8008,-1.8008,-1.8008,-1.8008,-1.8008,-1.8008,-1.8008,-1.8008,-1.8008,-1.8008,-1.8008,-1.8008,-1.8008,0.0,0.0,0.0,0.0,0.0,0.0,0.0,0.0,0.0,0.0,0.0,0.0,0.0,0.0,0.0,0.0,0.0,0.0,0.0,0.0,0.0,0.0,0.0,0.0,0.0,0.0,0.0,-0.8287,-0.8178,0.0,0.0,0.0,0.0,0.0,0.0,-0.888,-0.997,-0.8925,0.0,0.0,0.0,0.0,0.0,0.0,0.0,0.0,0.0,-1.1036,-1.0296,0.0,-1.001,-0.9116,-0.9444,-0.9726,-0.9935,-1.0128,-1.0304,-1.0628,-1.1247,-1.1403,-1.1329,-1.0775,-1.018,-0.9535,-0.8818,-0.827,-0.8019,-0.8465,-0.8404,-0.8592,-0.9542,-0.9182,-0.9223,-1.0704,-1.0761,-1.1105,-1.2477,-1.4033,-1.5339,-1.6007,-1.7178,-1.8301,-1.9199,-1.8516,-1.8359,-1.9219,-1.8496,-1.8008,-1.8008,-1.8379,-1.8504,-1.8504,-1.9365,-1.9795,-1.9795,-2.0234,-2.0059,-1.9287,-1.9248,-1.8818,-1.8066,-1.8027,-1.8008,-1.8008,-1.8008,-1.8008,-1.8008,-1.8008,-1.8008,-1.8008,-1.8008,-1.8008,-1.8008,-1.8008,-1.8008,-1.8008,0.0,0.0,0.0,0.0,0.0,0.0,0.0,0.0,0.0,0.0,0.0,0.0,0.0,0.0,0.0,0.0,0.0,0.0,0.0,0.0,0.0,0.0,0.0,0.0,0.0,0.0,-0.8387,-0.83,-0.8077,0.0,0.0,0.0,0.0,0.0,0.0,-0.8528,-0.9087,-0.8757,0.0,0.0,0.0,0.0,0.0,0.0,0.0,0.0,0.0,0.0,-0.9883,-1.0198,-0.9892,-0.9388,-0.9608,-0.9713,0.0,-0.9394,-0.9716,-1.0154,-1.036,-1.0766,-1.1069,-1.0661,-0.9987,-0.9308,-0.8884,-0.8267,-0.7844,-0.8077,-0.8339,-0.8611,-0.8794,-0.8784,-0.9057,-0.9911,-0.9631,-0.9915,-1.1636,-1.2389,-1.3511,-1.5478,-1.6357,-1.7383,-1.876,-1.8584,-1.8633,-1.9238,-1.873,-1.8506,-1.8769,-1.8691,-1.876,-1.9023,-1.96,-1.9795,-1.9541,-1.9961,-1.9873,-1.9287,-1.9023,-1.8721,-1.8379,-1.8125,-1.8008,-1.8008,-1.8008,-1.8008,-1.8008,-1.8008,-1.8008,-1.8008,-1.8008,-1.8008,-1.8008,-1.8008,-1.8008,-1.8008,0.0,0.0,0.0,0.0,0.0,0.0,0.0,0.0,0.0,0.0,0.0,0.0,0.0,0.0,0.0,0.0,0.0,0.0,0.0,0.0,0.0,0.0,0.0,0.0,0.0,0.0,-0.8147,-0.8055,-0.7796,-0.7516,0.0,0.0,-0.7307,-0.7782,0.0,0.0,0.0,0.0,0.0,0.0,0.0,0.0,0.0,0.0,0.0,0.0,0.0,0.0,0.0,0.0,0.0,0.0,0.0,0.0,0.0,0.0,-0.9257,-0.9771,-0.9807,-1.0268,-1.0684,-1.0389,-0.9799,-0.9137,-0.8897,-0.8362,-0.7927,-0.7893,-0.837,-0.8666,-0.8291,-0.8608,-0.8965,0.0,0.0,-0.9398,-1.0788,-1.1491,-1.2624,-1.4712,-1.5519,-1.6604,-1.8349,-1.8782,-1.9033,-1.9092,-1.8936,-1.8965,-1.9268,-1.9111,-1.916,-1.9463,-1.9756,-1.9775,-1.9473,-1.9766,-1.9639,-1.9092,-1.8916,-1.8701,-1.8437,-1.8144,-1.8008,-1.8008,-1.8008,-1.8008,-1.8008,-1.8008,-1.8008,-1.8008,-1.8008,-1.8008,-1.8008,-1.8008,-1.8008,-1.8008,0.0,0.0,0.0,0.0,0.0,0.0,0.0,0.0,0.0,0.0,0.0,0.0,0.0,0.0,0.0,0.0,0.0,0.0,0.0,0.0,0.0,0.0,0.0,0.0,0.0,0.0,-0.7768,-0.7499,-0.7235,-0.6963,-0.6718,-0.6718,-0.6642,-0.6525,0.0,0.0,0.0,0.0,0.0,0.0,0.0,0.0,0.0,0.0,0.0,0.0,0.0,0.0,0.0,0.0,0.0,0.0,0.0,-1.011,-0.979,0.0,-0.9254,-0.9494,-0.9825,-1.0045,-1.013,-0.9785,-0.9489,-0.9162,-0.8706,-0.8532,-0.842,-0.8156,-0.8578,-0.8851,-0.8392,-0.8725,-0.9015,-0.8855,-0.9573,-1.0203,-1.0206,-1.204,-1.3509,-1.3871,-1.4784,-1.6202,-1.8238,-1.9303,-1.9551,-1.863,-1.9043,-1.9277,-1.9287,-1.9678,-1.9902,-1.9902,-1.9912,-1.9912,-1.9902,-1.9912,-1.9482,-1.8582,-1.9072,-1.8838,-1.8018,-1.8008,-1.8008,-1.8008,-1.8008,-1.8008,-1.8008,-1.8008,-1.8008,-1.8008,-1.8008,-1.8008,-1.8008,-1.8008,-1.8008,-1.8008,0.0,0.0,0.0,0.0,0.0,0.0,0.0,0.0,0.0,0.0,0.0,0.0,0.0,0.0,0.0,0.0,0.0,0.0,0.0,0.0,0.0,0.0,0.0,0.0,0.0,0.0,0.0,-0.7636,-0.7178,-0.6878,-0.6693,-0.6613,-0.6493,-0.6378,-0.6689,-0.6858,0.0,0.0,0.0,0.0,0.0,0.0,-0.8017,0.0,0.0,0.0,0.0,0.0,0.0,0.0,0.0,0.0,0.0,0.0,0.0,-0.9402,-0.951,-0.9714,-0.9609,-0.9692,-0.9811,-0.9684,-0.9111,-0.8585,-0.854,-0.8397,-0.8099,-0.7407,-0.8201,-0.8722,-0.7849,-0.8345,-0.8992,-0.9301,-0.9596,-1.0084,-1.0908,-1.1433,-1.2292,-1.3649,-1.5463,-1.7244,-1.8854,-1.957,-1.9932,-1.9951,-1.9805,-1.9844,-2.0146,-2.001,-2.0049,-2.0352,-2.0068,-1.9775,-1.9482,-1.9189,-1.876,-1.8213,-1.835,-1.8271,-1.8008,-1.8008,-1.8008,-1.8008,-1.8008,-1.8008,-1.8008,-1.8008,-1.8008,-1.8008,-1.8008,-1.8008,-1.8008,-1.8008,-1.8008,-1.8008,0.0,0.0,0.0,0.0,0.0,0.0,0.0,0.0,0.0,0.0,0.0,0.0,0.0,0.0,0.0,0.0,0.0,0.0,0.0,0.0,0.0,0.0,0.0,0.0,0.0,0.0,0.0,0.0,0.0,-0.6505,-0.6331,-0.6313,-0.6236,-0.6093,-0.6378,-0.6586,0.0,0.0,0.0,0.0,0.0,0.0,-0.7605,0.0,0.0,0.0,0.0,0.0,0.0,0.0,0.0,0.0,0.0,0.0,0.0,0.0,-0.9471,-0.9756,-0.9417,-0.9355,-0.9345,-0.9231,-0.8721,-0.8282,-0.8369,-0.8293,-0.8008,-0.7306,-0.8045,-0.8577,-0.7784,-0.8367,-0.9046,-0.922,-0.9653,-1.0214,-1.0908,-1.1254,-1.2091,-1.376,-1.5782,-1.7445,-1.8439,-1.9507,-2.0137,-2.0088,-2.0127,-2.0137,-2.0088,-1.998,-1.9961,-2.0078,-1.9814,-1.9473,-1.9043,-1.8769,-1.8428,-1.8008,-1.8164,-1.8164,-1.8008,-1.8008,-1.8008,-1.8008,-1.8008,-1.8008,0.0,-1.8008,-1.8008,-1.8008,-1.8008,-1.8008,-1.8008,-1.8008,-1.8008,-1.8008,0.0,0.0,0.0,0.0,0.0,0.0,0.0,0.0,0.0,0.0,0.0,0.0,0.0,0.0,0.0,0.0,0.0,0.0,0.0,0.0,0.0,0.0,0.0,0.0,0.0,0.0,0.0,-0.6401,-0.6201,-0.5988,-0.5778,0.0,-0.593,-0.5827,-0.6073,-0.6313,0.0,0.0,0.0,0.0,0.0,0.0,0.0,0.0,0.0,0.0,0.0,0.0,0.0,0.0,0.0,0.0,0.0,0.0,0.0,0.0,0.0,0.0,0.0,-0.9008,-0.8774,-0.8673,-0.841,-0.818,-0.8171,0.0,0.0,-0.7603,-0.8053,-0.8426,-0.8057,-0.8699,-0.9166,-0.88,-0.9817,-1.0587,-1.0403,-1.143,-1.2704,-1.4,-1.5742,-1.6983,-1.7342,-1.9239,-2.0166,-1.9434,-2.0088,-2.0166,-1.9375,-1.9707,-1.9707,-1.9258,-1.9238,-1.9043,-1.8572,-1.8533,-1.8398,-1.8018,-1.8408,-1.8389,-1.8008,-1.8008,-1.8008,-1.8008,-1.8008,-1.8008,-1.8008,-1.8008,-1.8008,-1.8008,-1.8008,-1.8008,-1.8008,-1.8008,-1.8008,-1.8008,0.0,0.0,0.0,0.0,0.0,0.0,0.0,0.0,0.0,0.0,0.0,0.0,0.0,0.0,0.0,0.0,0.0,0.0,0.0,0.0,0.0,0.0,0.0,0.0,0.0,0.0,0.0,-0.6401,-0.6201,-0.6189,-0.6381,-0.6117,0.0,0.0,-0.6402,0.0,0.0,0.0,0.0,0.0,0.0,0.0,0.0,0.0,0.0,0.0,-0.7715,-0.8024,0.0,0.0,0.0,0.0,0.0,0.0,0.0,0.0,-0.8729,-0.8853,-0.9119,0.0,-0.8725,-0.8987,-0.84,-0.7806,0.0,0.0,0.0,0.0,0.0,0.0,0.0,-0.8612,-0.9301,-0.9316,-1.0298,-1.1046,-1.0985,-1.1861,-1.2862,-1.3785,-1.5205,-1.6562,-1.7734,-1.8919,-1.9775,-2.0225,-2.0137,-1.998,-1.9775,-1.9863,-1.957,-1.8818,-1.8789,-1.874,-1.8562,-1.832,-1.8105,-1.8008,-1.8115,-1.8105,-1.8008,-1.8008,-1.8008,-1.8008,-1.8008,-1.8008,-1.8008,-1.8008,-1.8008,-1.8008,-1.8008,-1.8008,-1.8008,-1.8008,-1.8008,-1.7969,0.0,0.0,0.0,0.0,0.0,0.0,0.0,0.0,0.0,0.0,0.0,0.0,0.0,0.0,0.0,0.0,0.0,0.0,0.0,0.0,0.0,0.0,0.0,0.0,0.0,0.0,0.0,0.0,0.0,-0.6093,0.0,0.0,0.0,0.0,0.0,0.0,0.0,0.0,0.0,0.0,-0.7118,0.0,0.0,0.0,0.0,0.0,-0.7532,-0.7645,0.0,-0.7436,-0.7467,-0.765,0.0,0.0,0.0,0.0,-0.8406,-0.8641,-0.905,-0.8949,-0.8773,-0.8921,-0.8439,-0.7966,-0.8099,0.0,0.0,0.0,0.0,0.0,0.0,-0.8798,-0.9369,-0.9289,-1.0117,-1.0844,-1.0955,-1.1482,-1.2403,-1.3952,-1.4903,-1.6114,-1.7794,-1.8779,-1.9394,-1.9658,-1.9648,-1.9541,-1.9336,-1.9326,-1.9023,-1.8369,-1.835,-1.835,-1.835,-1.8125,-1.8008,-1.8008,-1.8008,-1.8008,-1.8008,-1.7812,-1.7725,-1.7725,-1.7725,-1.7725,-1.7734,-1.793,-1.79,-1.7725,-1.7725,-1.7598,-1.7422,-1.7422,-1.7422,-1.7393,0.0,0.0,0.0,0.0,0.0,0.0,0.0,0.0,0.0,0.0,0.0,0.0,0.0,0.0,0.0,0.0,0.0,0.0,0.0,0.0,0.0,0.0,0.0,0.0,0.0,0.0,0.0,0.0,0.0,0.0,0.0,0.0,-0.5735,0.0,0.0,0.0,0.0,0.0,0.0,-0.7026,-0.6924,0.0,0.0,0.0,0.0,0.0,0.0,0.0,0.0,-0.6833,-0.674,-0.6672,-0.647,0.0,0.0,0.0,0.0,0.0,-0.897,-0.8976,-0.886,-0.8745,-0.8449,-0.8205,-0.8195,0.0,0.0,0.0,0.0,0.0,0.0,-0.8956,-0.9278,-0.9005,-0.9731,-1.0466,-1.0918,-1.1191,-1.2138,-1.4221,-1.4845,-1.5898,-1.7746,-1.8623,-1.8994,-1.876,-1.9014,-1.9023,-1.8652,-1.8562,-1.8418,-1.793,-1.791,-1.7881,-1.7812,-1.7949,-1.8008,-1.8008,-1.8008,-1.8008,-1.7998,-1.7578,-1.7383,-1.7383,-1.7314,-1.7285,-1.7314,-1.7666,-1.7607,-1.7285,-1.7285,-1.7061,-1.6665,-1.6665,-1.6665,-1.6719,0.0,0.0,0.0,0.0,0.0,0.0,0.0,0.0,0.0,0.0,0.0,0.0,0.0,0.0,0.0,0.0,0.0,0.0,0.0,0.0,0.0,0.0,0.0,0.0,0.0,0.0,0.0,0.0,0.0,0.0,-0.6849,-0.5827,-0.5459,-0.5673,0.0,-0.6349,-0.6034,-0.6318,-0.6557,-0.6757,-0.674,0.0,0.0,0.0,0.0,0.0,0.0,0.0,0.0,-0.6872,-0.6689,-0.674,-0.6488,0.0,0.0,0.0,0.0,0.0,-0.8797,-0.8883,-0.8789,-0.8717,-0.8251,-0.7802,-0.7782,0.0,0.0,0.0,0.0,0.0,0.0,-0.846,-0.8765,-0.8809,-0.9774,-1.0883,-1.2058,-1.2848,-1.3522,-1.4176,-1.546,-1.6652,-1.7434,-1.792,-1.8477,-1.9141,-1.8906,-1.8711,-1.8572,-1.8562,-1.8281,-1.75,-1.748,-1.7305,-1.6934,-1.7646,-1.8008,-1.8008,-1.8008,-1.8008,-1.7998,-1.7578,-1.7383,-1.7363,-1.6992,-1.6836,-1.6836,-1.6904,-1.6885,-1.6836,-1.6836,-1.6787,-1.6665,-1.6665,-1.6665,-1.668,0.0,0.0,0.0,0.0,0.0,0.0,0.0,0.0,0.0,0.0,0.0,0.0,0.0,0.0,0.0,0.0,0.0,0.0,0.0,0.0,0.0,0.0,0.0,0.0,0.0,0.0,0.0,0.0,0.0,-0.6272,-0.7212,-0.6748,-0.6072,-0.5283,0.0,-0.6182,-0.5911,-0.6063,-0.626,-0.6483,0.0,0.0,0.0,0.0,0.0,0.0,0.0,0.0,0.0,0.0,-0.674,-0.6794,-0.6527,0.0,0.0,0.0,0.0,0.0,-0.839,-0.8545,-0.8512,-0.8231,-0.8127,-0.8109,0.0,0.0,0.0,0.0,0.0,0.0,-0.8048,-0.8371,-0.8885,-0.9364,-1.0,-1.0869,-1.2083,-1.2562,-1.3155,-1.4127,-1.4897,-1.5757,-1.684,-1.7104,-1.7593,-1.8494,-1.8418,-1.8301,-1.8301,-1.8086,-1.7783,-1.7393,-1.7148,-1.6934,-1.6665,-1.7119,-1.7324,-1.7324,-1.7324,-1.7324,-1.7305,-1.6865,-1.667,-1.666,-1.6455,-1.6367,-1.6387,-1.6631,-1.6592,-1.6367,-1.6367,-1.623,-1.6016,-1.6016,-1.6016,-1.5986,0.0,0.0,0.0,0.0,0.0,0.0,0.0,0.0,0.0,0.0,0.0,0.0,0.0,0.0,0.0,0.0,0.0,0.0,0.0,0.0,0.0,0.0,0.0,0.0,0.0,0.0,-0.6006,-0.618,-0.6078,-0.6388,-0.7027,-0.7235,-0.6538,0.0,0.0,-0.5875,-0.5708,-0.5782,-0.5948,-0.6165,0.0,0.0,0.0,0.0,0.0,0.0,0.0,0.0,0.0,0.0,0.0,0.0,0.0,0.0,0.0,-0.7025,-0.729,-0.7611,-0.7952,-0.8134,-0.8112,-0.7738,-0.7945,0.0,0.0,0.0,0.0,0.0,0.0,-0.8432,-0.7993,-0.8325,-0.8992,-0.9797,-1.0128,-1.0652,-1.1633,-1.1947,-1.2703,-1.4189,-1.4527,-1.5172,-1.678,-1.684,-1.7076,-1.7794,-1.7861,-1.7822,-1.7715,-1.7402,-1.7187,-1.708,-1.6748,-1.6533,-1.6426,-1.6426,-1.6523,-1.6665,-1.6665,-1.6665,-1.6719,-1.6269,-1.6125,-1.6115,-1.5957,-1.5908,-1.5937,-1.6279,-1.6221,-1.5908,-1.5908,-1.5703,-1.541,-1.541,-1.541,-1.541,0.0,0.0,0.0,0.0,0.0,0.0,0.0,0.0,0.0,0.0,0.0,0.0,0.0,0.0,0.0,0.0,0.0,0.0,0.0,0.0,0.0,0.0,0.0,0.0,0.0,-0.6211,-0.6223,-0.6095,-0.6344,-0.6281,-0.5923,-0.6562,-0.6221,-0.5108,0.0,-0.5388,-0.5434,-0.5501,-0.5606,-0.5748,-0.5734,0.0,0.0,0.0,0.0,0.0,0.0,0.0,0.0,0.0,0.0,0.0,0.0,0.0,-0.722,-0.7047,-0.7292,-0.76,-0.7634,-0.764,-0.764,-0.7545,-0.7666,0.0,-0.7542,-0.7706,0.0,-0.8349,0.0,-0.8374,-0.7964,-0.8206,-0.8714,-0.9601,-0.9943,-1.0322,-1.0999,-1.1797,-1.2941,-1.4494,-1.5143,-1.6038,-1.7707,-1.758,-1.7356,-1.7432,-1.7432,-1.7246,-1.6846,-1.6797,-1.6592,-1.6233,-1.6184,-1.5918,-1.5508,-1.5508,-1.5918,-1.6665,-1.6665,-1.6665,-1.6719,-1.6269,-1.6125,-1.6105,-1.5635,-1.5459,-1.5459,-1.5488,-1.5488,-1.5459,-1.5459,-1.5439,-1.541,-1.541,-1.541,-1.541,0.0,0.0,0.0,0.0,0.0,0.0,0.0,0.0,0.0,0.0,0.0,0.0,0.0,0.0,0.0,0.0,0.0,0.0,0.0,0.0,0.0,0.0,0.0,-0.673,-0.6183,-0.6292,-0.649,-0.678,-0.7246,-0.7082,-0.6298,-0.6443,0.0,0.0,0.0,-0.4922,-0.4913,-0.4981,-0.503,-0.5108,-0.5356,-0.5664,0.0,0.0,0.0,0.0,0.0,0.0,0.0,0.0,-0.6689,-0.674,-0.6744,-0.6829,-0.6912,-0.6827,-0.6991,-0.7158,-0.7156,-0.7332,-0.7355,-0.6874,-0.7109,0.0,0.0,-0.7901,-0.7923,-0.8183,-0.8429,-0.8552,-0.8239,-0.8449,-0.8917,-0.9827,-1.0198,-1.0848,-1.2042,-1.2461,-1.2951,-1.3533,-1.4173,-1.4849,-1.5486,-1.5917,-1.6364,-1.6908,-1.6982,-1.6904,-1.6738,-1.6465,-1.624,-1.6125,-1.5801,-1.5576,-1.541,-1.541,-1.5576,-1.5908,-1.5908,-1.5908,-1.5908,-1.5732,-1.5654,-1.5644,-1.5488,-1.541,-1.541,-1.541,-1.541,-1.541,-1.541,-1.541,-1.541,-1.541,-1.541,-1.541,0.0,0.0,0.0,0.0,0.0,0.0,0.0,0.0,0.0,0.0,0.0,0.0,0.0,0.0,0.0,0.0,0.0,0.0,0.0,0.0,0.0,0.0,0.0,-0.6929,-0.6463,-0.6501,-0.676,-0.7234,-0.7719,-0.7497,-0.6609,0.0,0.0,0.0,0.0,-0.4604,-0.4558,-0.4498,-0.4587,-0.4756,-0.5011,-0.5384,0.0,0.0,0.0,0.0,0.0,0.0,0.0,0.0,-0.6753,-0.6803,0.0,-0.6837,-0.6689,-0.6685,-0.6632,-0.6583,-0.661,-0.6824,-0.6931,-0.6465,0.0,0.0,-0.8069,-0.8002,-0.787,-0.8214,-0.843,-0.8606,-0.8691,-0.8734,-0.9072,-0.9841,-1.0267,-1.0807,-1.1862,-1.208,-1.2314,-1.2675,-1.3363,-1.3963,-1.4516,-1.514,-1.5794,-1.6451,-1.6523,-1.6465,-1.6328,-1.5898,-1.5782,-1.585,-1.5439,-1.5215,-1.5215,-1.5342,-1.5273,-1.501,-1.5146,-1.5283,-1.541,-1.541,-1.541,-1.541,-1.541,-1.541,-1.541,-1.541,-1.541,-1.54,-1.5264,-1.5215,-1.5234,-1.5361,-1.5322,-1.5234,0.0,0.0,0.0,0.0,0.0,0.0,0.0,0.0,0.0,0.0,0.0,0.0,0.0,0.0,0.0,0.0,0.0,0.0,0.0,0.0,0.0,0.0,0.0,-0.7134,-0.6993,-0.6861,-0.6964,-0.7292,-0.7496,-0.727,-0.6691,-0.6211,0.0,0.0,0.0,-0.4486,-0.4466,-0.4134,-0.4309,-0.4786,-0.4738,-0.5212,-0.5998,0.0,0.0,0.0,0.0,0.0,0.0,0.0,-0.6833,-0.6997,0.0,0.0,-0.6672,-0.6616,-0.6266,-0.5902,-0.5979,-0.6136,-0.632,-0.6384,0.0,0.0,-0.7845,-0.7905,-0.7949,-0.8491,-0.8484,-0.8609,-0.9198,-0.9012,-0.8996,-0.9606,-0.9909,-1.0107,-1.0114,-1.0367,-1.1037,-1.2235,-1.2726,-1.3644,-1.5295,-1.5847,-1.6105,-1.6105,-1.6105,-1.5859,-1.542,-1.501,-1.4971,-1.5391,-1.5,-1.4775,-1.4775,-1.5186,-1.4971,-1.4087,-1.457,-1.5,-1.54,-1.54,-1.541,-1.541,-1.541,-1.541,-1.541,-1.541,-1.541,-1.5371,-1.4951,-1.4795,-1.4844,-1.5254,-1.5146,-1.4844,0.0,0.0,0.0,0.0,0.0,0.0,0.0,0.0,0.0,0.0,0.0,0.0,0.0,0.0,0.0,0.0,0.0,0.0,0.0,0.0,0.0,0.0,0.0,0.0,0.0,0.0,-0.6993,-0.7383,-0.7196,-0.6803,0.0,0.0,0.0,-0.4653,0.0,0.0,-0.3999,-0.3965,-0.3965,-0.4081,-0.4668,-0.5088,-0.544,0.0,0.0,0.0,0.0,0.0,0.0,0.0,0.0,0.0,-0.6621,0.0,-0.61,-0.5891,-0.5736,-0.5621,-0.5704,-0.5862,-0.6033,-0.6107,0.0,0.0,0.0,-0.7786,0.0,0.0,-0.8678,-0.867,-0.8736,-0.8908,-0.9133,-0.934,-0.9425,-0.9573,-0.9786,-0.9886,-1.0174,-1.0705,-1.1634,-1.253,-1.3262,-1.4144,-1.4707,-1.4707,-1.4707,-1.4648,-1.4521,-1.4394,-1.4385,-1.4457,-1.4394,-1.4326,-1.4326,-1.4453,-1.4385,-1.4077,-1.4268,-1.4551,-1.4971,-1.4971,-1.5127,-1.5391,-1.5098,-1.5137,-1.541,-1.541,-1.541,-1.54,-1.5273,-1.5225,-1.5244,-1.5371,-1.5332,-1.5244,0.0,0.0,0.0,0.0,0.0,0.0,0.0,0.0,0.0,0.0,0.0,0.0,0.0,0.0,0.0,0.0,0.0,0.0,0.0,0.0,0.0,0.0,0.0,0.0,0.0,-0.6404,-0.6593,0.0,0.0,0.0,0.0,0.0,0.0,-0.4552,0.0,-0.425,-0.3917,-0.382,-0.3903,-0.413,-0.4609,-0.4962,-0.5242,0.0,0.0,0.0,0.0,0.0,0.0,0.0,0.0,0.0,-0.6218,0.0,-0.569,-0.5476,-0.5371,-0.532,-0.5382,-0.5502,-0.5614,-0.5731,-0.6199,-0.6765,-0.7412,-0.7731,-0.7903,-0.7874,-0.8145,-0.8319,-0.8217,-0.8645,-0.9065,-0.9065,-0.911,-0.925,-0.9486,-0.9613,-0.9746,-0.9927,-1.1077,-1.1985,-1.2167,-1.3332,-1.4077,-1.4077,-1.4077,-1.4077,-1.4077,-1.3975,-1.3912,-1.4077,-1.3922,-1.3887,-1.3887,-1.4,-1.3912,-1.3643,-1.3809,-1.4023,-1.4287,-1.4453,-1.4766,-1.5146,-1.4893,-1.4932,-1.5156,-1.5156,-1.5156,-1.5146,-1.4971,-1.4805,-1.4697,-1.5039,-1.5049,-1.4951,0.0,0.0,0.0,0.0,0.0,0.0,0.0,0.0,0.0,0.0,0.0,0.0,0.0,0.0,0.0,0.0,0.0,0.0,0.0,0.0,0.0,0.0,0.0,0.0,0.0,0.0,0.0,0.0,0.0,0.0,0.0,0.0,-0.5315,-0.4492,0.0,-0.449,-0.4089,-0.3779,-0.404,-0.4646,-0.458,-0.4845,-0.5291,-0.5432,0.0,0.0,0.0,0.0,0.0,0.0,0.0,0.0,-0.5807,-0.5624,-0.5413,-0.527,-0.5103,-0.4958,-0.5054,-0.5061,-0.5132,-0.5321,-0.5744,-0.6412,-0.7631,-0.7745,-0.7433,-0.6925,-0.7312,-0.7735,-0.777,-0.8355,-0.8838,-0.8811,-0.9025,-0.9143,-0.9143,-0.9432,-0.9613,-0.9639,-1.0936,-1.1804,-1.1837,-1.3149,-1.397,-1.397,-1.397,-1.397,-1.397,-1.3652,-1.3623,-1.3951,-1.3652,-1.3447,-1.3447,-1.3828,-1.3633,-1.2881,-1.3271,-1.3467,-1.3516,-1.3896,-1.4297,-1.4678,-1.4756,-1.4766,-1.4727,-1.4766,-1.4785,-1.4746,-1.4307,-1.3896,-1.3662,-1.4443,-1.4473,-1.4194,0.0,0.0,0.0,0.0,0.0,0.0,0.0,0.0,0.0,0.0,0.0,0.0,0.0,0.0,0.0,0.0,0.0,0.0,0.0,0.0,0.0,0.0,0.0,0.0,0.0,0.0,0.0,0.0,0.0,0.0,0.0,0.0,0.0,-0.444,0.0,-0.4548,-0.4166,-0.4048,-0.415,-0.4406,-0.4747,-0.4962,-0.5078,-0.528,-0.5327,0.0,0.0,0.0,0.0,0.0,0.0,0.0,-0.5609,-0.5318,-0.4962,-0.4675,-0.4603,-0.4642,-0.4823,-0.4825,-0.4877,-0.5213,-0.6099,-0.7005,-0.7608,-0.7703,-0.781,-0.8178,-0.8147,-0.8165,-0.8315,-0.8775,-0.9017,-0.8844,-0.8858,-0.8898,-0.8898,-0.8958,-0.9078,-0.9305,-1.0333,-1.116,-1.1395,-1.2498,-1.3154,-1.3154,-1.3154,-1.3154,-1.3154,-1.3066,-1.3057,-1.3154,-1.3066,-1.3018,-1.3018,-1.3105,-1.3057,-1.2881,-1.2969,-1.3184,-1.3516,-1.3603,-1.3691,-1.3818,-1.4492,-1.459,-1.4297,-1.4648,-1.4785,-1.4746,-1.4307,-1.4029,-1.397,-1.4209,-1.4165,-1.4107,0.0,0.0,0.0,0.0,0.0,0.0,0.0,0.0,0.0,0.0,0.0,0.0,0.0,0.0,0.0,0.0,0.0,0.0,0.0,0.0,0.0,0.0,0.0,0.0,0.0,0.0,0.0,0.0,0.0,0.0,0.0,0.0,0.0,-0.4416,0.0,-0.4823,-0.4289,-0.426,-0.4362,-0.4555,-0.4844,-0.4932,-0.4911,-0.503,-0.4991,-0.4933,-0.5,0.0,0.0,0.0,0.0,0.0,0.0,0.0,-0.4715,-0.4504,-0.4525,-0.4618,-0.4763,-0.4601,-0.446,-0.4797,-0.5476,-0.6315,-0.7264,-0.7274,-0.7406,-0.8511,-0.8311,-0.8015,-0.8107,-0.8606,-0.8985,-0.8831,-0.8804,-0.8804,-0.8804,-0.8804,-0.8964,-0.9428,-1.0275,-1.0989,-1.149,-1.2376,-1.2881,-1.2881,-1.2881,-1.2881,-1.2881,-1.2881,-1.2881,-1.2881,-1.2881,-1.2881,-1.2881,-1.2881,-1.2881,-1.2881,-1.2881,-1.2998,-1.3213,-1.3418,-1.3398,-1.3242,-1.3896,-1.4043,-1.3867,-1.4297,-1.4355,-1.415,-1.3926,-1.3711,-1.3555,-1.376,-1.3828,-1.3857,0.0,0.0,0.0,0.0,0.0,0.0,0.0,0.0,0.0,0.0,0.0,0.0,0.0,0.0,0.0,0.0,0.0,0.0,0.0,0.0,0.0,0.0,0.0,0.0,0.0,0.0,0.0,0.0,0.0,0.0,0.0,0.0,0.0,-0.4416,0.0,-0.5039,-0.4431,-0.4613,-0.4823,-0.5054,-0.5272,-0.5242,-0.5065,-0.5025,-0.4838,-0.4575,-0.4682,-0.4682,-0.4673,-0.4852,0.0,0.0,0.0,0.0,-0.4613,-0.4555,-0.4645,-0.4805,-0.4889,-0.4575,-0.4255,-0.4459,-0.4746,-0.5357,-0.675,-0.6784,-0.6928,-0.8293,-0.8125,-0.7723,-0.7883,-0.8374,-0.8804,-0.8804,-0.8804,-0.8804,-0.8804,-0.8804,-0.9061,-0.971,-1.0415,-1.1065,-1.1715,-1.2452,-1.2881,-1.2881,-1.2881,-1.2881,-1.2881,-1.2881,-1.2881,-1.2881,-1.2881,-1.2881,-1.2881,-1.2881,-1.2881,-1.2881,-1.2881,-1.2881,-1.2891,-1.3242,-1.3213,-1.29,-1.333,-1.3506,-1.3535,-1.3887,-1.3818,-1.3496,-1.3428,-1.3184,-1.292,-1.3271,-1.3398,-1.3447,0.0,0.0,0.0,0.0,0.0,0.0,0.0,0.0,0.0,0.0,-0.9843,0.0,0.0,0.0,0.0,0.0,0.0,0.0,0.0,0.0,0.0,0.0,0.0,0.0,0.0,0.0,0.0,0.0,0.0,0.0,0.0,0.0,0.0,-0.433,0.0,0.0,-0.4552,-0.5424,-0.5877,-0.6087,-0.6903,-0.6792,-0.6076,-0.5972,-0.5471,-0.4834,-0.4803,-0.4773,-0.4832,-0.5195,-0.5117,0.0,0.0,0.0,-0.4682,-0.4675,-0.4888,-0.516,-0.5283,0.0,-0.5016,-0.5002,-0.5139,-0.5419,-0.6051,-0.6605,-0.7126,-0.7589,-0.7669,-0.7883,-0.8533,-0.8752,-0.8804,-0.8804,-0.8804,-0.8804,-0.8804,-0.8804,-0.9061,-0.971,-1.0415,-1.1065,-1.1715,-1.2452,-1.2881,-1.2881,-1.2881,-1.2881,-1.2881,-1.2881,-1.2881,-1.2881,-1.2881,-1.2881,-1.2881,-1.2881,-1.2881,-1.2881,-1.2881,-1.2881,-1.2881,-1.2939,-1.293,-1.29,-1.333,-1.3506,-1.3516,-1.3574,-1.3555,-1.3477,-1.3105,-1.293,-1.2891,-1.2939,-1.2969,-1.2969,0.0,0.0,0.0,0.0,0.0,0.0,0.0,0.0,0.0,0.0,0.0,0.0,0.0,0.0,0.0,0.0,0.0,0.0,0.0,0.0,0.0,0.0,0.0,0.0,0.0,0.0,0.0,0.0,0.0,0.0,0.0,-0.4717,-0.452,0.0,0.0,0.0,0.0,-0.6039,-0.6592,-0.6969,-0.7405,-0.7293,-0.6815,-0.634,-0.5867,-0.5437,-0.5342,-0.5057,-0.4838,-0.5378,-0.522,-0.4805,-0.4952,0.0,0.0,0.0,-0.5065,-0.5488,-0.5547,-0.5339,-0.5144,-0.5323,-0.4861,-0.4639,-0.5831,-0.6158,-0.639,-0.7133,-0.7561,-0.7955,-0.8479,-0.8564,-0.8564,-0.8564,-0.8704,-0.8804,-0.8804,-0.8804,-0.9061,-0.971,-1.0415,-1.1065,-1.1715,-1.2452,-1.2881,-1.2881,-1.2881,-1.2881,-1.2881,-1.2881,-1.2881,-1.2881,-1.2881,-1.2881,-1.2881,-1.2881,-1.2881,-1.2881,-1.2881,-1.2881,-1.2881,-1.2881,-1.2881,-1.2891,-1.3076,-1.3154,-1.3154,-1.3154,-1.3154,-1.3135,-1.2959,-1.2881,-1.2881,-1.2881,-1.2881,-1.2881,0.0,0.0,0.0,0.0,0.0,0.0,0.0,0.0,0.0,0.0,0.0,0.0,0.0,0.0,0.0,0.0,0.0,0.0,0.0,0.0,0.0,0.0,0.0,0.0,0.0,0.0,0.0,0.0,0.0,0.0,-0.4764,-0.4504,-0.426,0.0,-0.4963,-0.5545,0.0,0.0,-0.7352,-0.7796,-0.7967,-0.7794,-0.7384,-0.675,-0.6286,-0.5967,-0.5889,-0.5568,-0.5211,-0.5739,-0.5558,-0.5098,-0.5088,-0.5105,0.0,0.0,0.0,-0.572,-0.585,-0.5651,-0.5399,-0.5425,-0.4745,-0.4371,-0.5431,-0.555,-0.5732,-0.6694,-0.7268,-0.7702,-0.8076,-0.821,-0.8263,-0.8263,-0.8444,-0.8611,-0.8691,-0.8697,-0.8978,-0.9703,-1.0415,-1.1065,-1.1715,-1.2452,-1.2881,-1.2881,-1.2881,-1.2881,-1.2881,-1.2881,-1.2881,-1.2881,-1.2881,-1.2881,-1.2881,-1.2881,-1.2881,-1.2881,-1.2881,-1.2881,-1.2881,-1.2881,-1.2881,-1.2881,-1.2881,-1.2881,-1.2881,-1.2881,-1.2881,-1.2881,-1.2881,-1.2881,-1.2881,-1.2881,-1.2881,-1.2881,0.0,0.0,0.0,0.0,0.0,0.0,0.0,0.0,0.0,0.0,0.0,0.0,0.0,0.0,-0.7835,-0.75,-0.7458,-0.7445,-0.7417,-0.7019,-0.6753,-0.6717,-0.6277,0.0,-0.6018,-0.5885,0.0,0.0,0.0,0.0,-0.4695,-0.4435,-0.4199,-0.4045,-0.4848,-0.5648,-0.6445,0.0,0.0,-0.8573,-0.9014,-0.8678,-0.7822,-0.7485,-0.687,-0.6201,-0.6321,-0.6338,-0.6324,-0.6435,-0.6353,-0.6146,-0.5706,-0.5699,-0.5694,0.0,0.0,0.0,-0.6223,-0.6405,-0.6206,-0.5264,-0.5214,-0.5217,-0.4453,-0.4824,-0.5481,-0.6114,-0.6483,-0.6834,-0.7453,-0.7756,-0.7908,-0.7908,-0.7922,-0.8076,-0.8357,-0.8397,-0.8744,-0.9681,-1.0415,-1.1065,-1.1715,-1.2452,-1.2881,-1.2881,-1.2881,-1.2881,-1.2881,-1.2881,-1.2881,-1.2881,-1.2881,-1.2881,-1.2881,-1.2881,-1.2881,-1.2881,-1.2881,-1.2881,-1.2881,-1.2881,-1.2881,-1.2881,-1.2881,-1.2881,-1.2881,-1.2881,-1.2881,-1.2881,-1.2881,-1.2881,-1.2881,-1.2881,-1.2881,-1.2881,0.0,0.0,0.0,0.0,0.0,0.0,0.0,0.0,0.0,0.0,0.0,0.0,0.0,-0.8331,-0.7902,-0.7733,-0.7607,-0.7201,-0.6415,-0.6737,-0.6759,-0.6336,-0.6153,-0.6104,-0.6182,-0.5933,0.0,0.0,0.0,-0.5098,-0.4693,-0.4515,-0.4499,-0.4653,-0.5081,-0.5608,-0.6266,-0.7256,0.0,-0.8292,-0.846,-0.8479,-0.8298,-0.7366,-0.7346,-0.7692,-0.6831,-0.6314,-0.6055,-0.6304,-0.5976,-0.5374,-0.4868,-0.51,-0.5541,-0.538,-0.5404,-0.5683,-0.6588,-0.6487,-0.6128,-0.6196,-0.6043,-0.582,-0.5598,-0.5607,-0.5825,-0.6349,-0.652,-0.6707,-0.7108,-0.7428,-0.7635,-0.7635,-0.7802,-0.8036,-0.8337,-0.8427,-0.8579,-0.9072,-0.9762,-1.0415,-1.1116,-1.1774,-1.2403,-1.2871,-1.2881,-1.2881,-1.2881,-1.2881,-1.2881,-1.2881,-1.2881,-1.2881,-1.2881,-1.2881,-1.2881,-1.2881,-1.2881,-1.2881,-1.2881,-1.2881,-1.2881,-1.2881,-1.2881,-1.2881,-1.2881,-1.2881,-1.2881,-1.2881,-1.2881,-1.2881,-1.2881,-1.2881,-1.2881,-1.2881,0.0,0.0,0.0,0.0,0.0,0.0,0.0,0.0,0.0,0.0,0.0,0.0,0.0,0.0,-0.762,-0.7284,-0.714,-0.6776,-0.6082,-0.6438,-0.657,-0.629,-0.6068,-0.6025,-0.617,-0.5885,-0.5652,0.0,0.0,0.0,0.0,-0.4624,-0.4644,-0.4776,-0.5211,-0.5738,0.0,0.0,-0.7554,-0.79,-0.7806,-0.7852,-0.7853,-0.6859,-0.6944,-0.7463,-0.6647,-0.6036,-0.5599,-0.5723,-0.5725,-0.5538,-0.4848,-0.4962,-0.5425,-0.5839,-0.5712,-0.5645,-0.6622,-0.6538,-0.6228,-0.6635,-0.6465,-0.6231,-0.6403,-0.6084,-0.5908,-0.6521,-0.6453,-0.6413,-0.6807,-0.7034,-0.7244,-0.7301,-0.7488,-0.7729,-0.8029,-0.8118,-0.8216,-0.8617,-0.9256,-0.9941,-1.0704,-1.1416,-1.2024,-1.2618,-1.2666,-1.2598,-1.2488,-1.2578,-1.2725,-1.2881,-1.2881,-1.2881,-1.2881,-1.2881,-1.2881,-1.2881,-1.2881,-1.2881,-1.2881,-1.2881,-1.2881,-1.2881,-1.2881,-1.2881,-1.2881,-1.2881,-1.2881,-1.2881,-1.2881,-1.2881,-1.2881,-1.2881,-1.2881,-1.2881,0.0,0.0,0.0,0.0,0.0,0.0,0.0,0.0,0.0,0.0,0.0,0.0,0.0,0.0,0.0,-0.6099,-0.6055,-0.617,-0.6458,-0.6135,-0.6106,-0.6549,-0.602,-0.5774,-0.5881,-0.5697,-0.5558,0.0,0.0,0.0,0.0,0.0,-0.4547,-0.4345,-0.5203,-0.6043,-0.6795,-0.7073,-0.7281,-0.7429,-0.7158,-0.6825,-0.6466,-0.6026,-0.5621,-0.5338,-0.5708,-0.5545,-0.5131,-0.4773,-0.5662,-0.6775,-0.5831,-0.539,-0.5368,-0.6218,-0.6014,-0.5651,0.0,0.0,0.0,-0.6427,-0.6389,-0.6472,-0.6657,-0.6045,-0.5678,-0.6512,-0.6159,-0.5885,-0.648,-0.6587,-0.668,-0.6974,-0.6979,-0.7128,-0.7473,-0.7513,-0.7735,-0.8353,-0.8997,-0.9753,-1.0679,-1.1366,-1.1865,-1.2163,-1.218,-1.1986,-1.1626,-1.1973,-1.2412,-1.2842,-1.2861,-1.2871,-1.2881,-1.2881,-1.2881,-1.2881,-1.2881,-1.2881,-1.2881,-1.2881,-1.2881,-1.2881,-1.2881,-1.2881,-1.2881,-1.2881,-1.2881,-1.2881,-1.2881,-1.2881,-1.2881,-1.2881,-1.2881,-1.2881,0.0,0.0,0.0,0.0,0.0,0.0,0.0,0.0,0.0,0.0,0.0,0.0,0.0,0.0,-0.761,-0.6936,-0.7131,-0.6914,-0.5973,-0.6278,-0.6301,-0.5891,-0.5991,-0.59,-0.5542,-0.5528,-0.5492,-0.5427,0.0,0.0,0.0,0.0,0.0,0.0,-0.5155,-0.5734,-0.6315,-0.6576,-0.6554,-0.6303,-0.595,-0.6151,-0.6522,-0.5337,-0.4995,-0.5087,-0.4617,-0.4621,-0.4702,-0.377,-0.4458,-0.574,-0.5926,-0.5744,-0.5418,-0.5465,-0.5428,-0.5479,-0.6044,0.0,0.0,0.0,0.0,0.0,-0.6593,-0.626,-0.6036,-0.6538,-0.6181,-0.5927,-0.6517,-0.6587,-0.668,-0.6974,-0.6979,-0.7128,-0.7473,-0.7513,-0.7735,-0.8353,-0.8997,-0.9554,-1.0033,-1.0661,-1.121,-1.1471,-1.1481,-1.149,-1.1582,-1.1724,-1.1953,-1.2393,-1.2412,-1.2559,-1.2881,-1.2881,-1.2881,-1.2881,-1.2881,-1.2881,-1.2881,-1.2881,-1.2881,-1.2881,-1.2881,-1.2881,-1.2881,-1.2881,-1.2881,-1.2881,-1.2881,-1.2881,-1.2881,-1.2881,-1.2881,-1.2881,0.0,0.0,0.0,0.0,0.0,0.0,0.0,0.0,0.0,0.0,0.0,0.0,0.0,0.0,0.0,-0.8075,-0.8011,-0.7637,-0.6833,-0.6614,-0.6334,-0.5993,-0.5741,-0.5555,-0.5403,-0.5358,-0.531,-0.5282,0.0,0.0,0.0,0.0,0.0,0.0,0.0,0.0,0.0,-0.642,-0.6199,-0.5695,-0.5657,-0.573,-0.5773,-0.4903,-0.4598,-0.4521,-0.3695,-0.3596,-0.3774,-0.3183,-0.3717,-0.4861,-0.6265,-0.6087,-0.5361,-0.5576,-0.5591,-0.5598,0.0,0.0,-0.5697,-0.6048,0.0,0.0,-0.6642,-0.6313,-0.6029,-0.6509,-0.6419,-0.6344,-0.6629,-0.7015,-0.727,-0.7303,-0.7342,-0.7334,-0.7278,-0.7281,-0.7462,-0.7983,-0.8554,-0.9147,-0.9709,-1.0319,-1.0836,-1.1047,-1.1064,-1.1139,-1.1299,-1.1498,-1.1768,-1.2171,-1.2412,-1.2627,-1.2881,-1.2881,-1.2881,-1.2881,-1.2881,-1.2881,-1.2881,-1.2881,-1.2881,-1.2881,-1.2881,-1.2881,-1.2881,-1.2881,-1.2881,-1.2881,-1.2881,-1.2881,-1.2881,-1.2881,-1.2881,-1.2881,0.0,0.0,0.0,0.0,0.0,0.0,0.0,0.0,0.0,0.0,0.0,0.0,0.0,0.0,0.0,0.0,-0.8665,-0.8234,-0.8128,-0.6996,-0.6369,-0.6468,-0.5562,-0.5176,-0.5419,-0.5293,-0.5156,-0.5049,0.0,0.0,0.0,0.0,0.0,0.0,0.0,0.0,0.0,-0.6518,-0.62,-0.5609,-0.588,-0.5507,-0.4796,-0.4739,-0.4398,-0.39,-0.3075,-0.2779,-0.2807,-0.3128,-0.3504,-0.4217,-0.6492,-0.6244,-0.5297,-0.6014,-0.6083,0.0,0.0,0.0,0.0,-0.5634,-0.5455,0.0,-0.6517,-0.6165,-0.5773,-0.6305,-0.6674,-0.6859,-0.6778,-0.748,-0.8001,-0.778,-0.7859,-0.771,-0.7099,-0.6979,-0.7134,-0.7473,-0.8003,-0.8654,-0.9525,-1.0157,-1.0576,-1.0772,-1.0828,-1.084,-1.084,-1.1253,-1.1621,-1.2025,-1.251,-1.2764,-1.2812,-1.2852,-1.2881,-1.2881,-1.2881,-1.2881,-1.2881,-1.2881,-1.2881,-1.2881,-1.2881,-1.2881,-1.2881,-1.2881,-1.2881,-1.2881,-1.2881,-1.2881,-1.2881,-1.2881,-1.2881,-1.2881,-0.9819,0.0,0.0,0.0,0.0,0.0,0.0,0.0,0.0,0.0,0.0,0.0,0.0,0.0,0.0,0.0,-0.8835,-0.8208,-0.7073,-0.7056,-0.6835,-0.6277,-0.6502,-0.6311,-0.5573,-0.5835,-0.5592,-0.4765,0.0,0.0,0.0,0.0,0.0,0.0,0.0,0.0,0.0,-0.6904,-0.6873,-0.6736,-0.5598,-0.5295,-0.5429,-0.4914,-0.4408,-0.3928,-0.3379,-0.3196,-0.3331,-0.4366,-0.4371,-0.4205,-0.5577,-0.5752,-0.5391,-0.5317,-0.5658,-0.6091,-0.6166,-0.6083,-0.5913,-0.5659,-0.5399,0.0,-0.5225,-0.5506,-0.5702,-0.5446,-0.6127,-0.6712,-0.6595,-0.6986,-0.7456,-0.7939,-0.8038,-0.7804,-0.7099,-0.6979,-0.7134,-0.7473,-0.8084,-0.8565,-0.8851,-0.9466,-0.9949,-1.0083,-1.0305,-1.04,-1.04,-1.0488,-1.0723,-1.1152,-1.1592,-1.1992,-1.2353,-1.2705,-1.2881,-1.2881,-1.2881,-1.2881,-1.2881,-1.2881,-1.2881,-1.2881,-1.2881,-1.2881,-1.2881,-1.2881,-1.2881,-1.2881,-1.2881,-1.2881,-1.2881,-1.2881,-1.2881,-1.2881,-0.9813,0.0,0.0,0.0,0.0,0.0,0.0,0.0,0.0,0.0,0.0,0.0,0.0,0.0,0.0,0.0,0.0,0.0,0.0,-0.8348,-0.7848,-0.6799,-0.7043,-0.6967,-0.6517,-0.6493,-0.6233,-0.5653,0.0,0.0,0.0,0.0,0.0,0.0,0.0,0.0,0.0,-0.6898,-0.6702,-0.6563,-0.6098,-0.6006,-0.6001,-0.4658,-0.4455,-0.482,-0.4103,-0.3746,-0.3784,-0.4682,-0.4637,-0.4317,-0.4934,-0.5305,-0.5497,-0.5425,-0.5665,-0.5976,-0.6152,-0.6032,-0.5796,-0.5527,-0.5354,0.0,0.0,-0.5552,-0.5844,-0.5481,-0.6379,-0.7097,-0.6627,-0.7308,-0.794,-0.7954,-0.8361,-0.8482,-0.7848,-0.7576,-0.763,-0.8037,-0.84,-0.8725,-0.9066,-0.9632,-1.0016,-1.0071,-1.0233,-1.0283,-1.0283,-1.0478,-1.0693,-1.0898,-1.1543,-1.2002,-1.218,-1.2666,-1.2881,-1.2881,-1.2881,-1.2881,-1.2881,-1.2881,-1.2881,-1.2881,-1.2881,-1.2881,-1.2881,-1.2881,-1.2881,-1.2881,-1.2881,-1.2881,-1.2881,-1.2881,-1.2881,-1.2881,-0.9786,0.0,0.0,0.0,0.0,0.0,0.0,0.0,0.0,0.0,0.0,0.0,0.0,0.0,0.0,0.0,0.0,0.0,-0.9983,-0.9546,-0.8772,-0.7509,-0.7657,-0.7713,-0.7597,-0.7336,-0.7018,-0.6671,0.0,0.0,0.0,0.0,0.0,0.0,0.0,0.0,0.0,-0.6869,-0.658,-0.647,-0.6703,-0.6545,-0.5948,-0.4482,-0.4829,-0.5975,-0.4935,-0.4366,-0.4156,-0.4719,-0.4695,-0.4475,-0.4777,-0.5216,-0.5658,-0.5842,-0.5952,-0.6075,-0.6265,-0.6125,-0.5882,-0.5625,-0.5473,-0.5393,0.0,0.0,0.0,-0.5622,-0.6704,-0.745,-0.6652,-0.7739,-0.8569,-0.7906,-0.8624,-0.9147,-0.8834,-0.8414,-0.8306,-0.8764,-0.8893,-0.9113,-0.952,-0.9945,-1.0195,-1.0273,-1.0205,-1.0195,-1.0312,-1.0605,-1.0791,-1.0791,-1.1641,-1.21,-1.21,-1.2617,-1.2881,-1.2881,-1.2881,-1.2881,-1.2881,-1.2881,-1.2881,-1.2881,-1.2881,-1.2881,-1.2881,-1.2881,-1.2881,-1.2881,-1.2881,-1.2881,-1.2881,-1.2881,-1.2881,-1.2881,-0.9643,-0.9557,0.0,0.0,0.0,0.0,0.0,0.0,0.0,0.0,0.0,0.0,-1.2734,-1.196,-1.1739,-1.2367,-1.077,-0.9475,-0.8911,-0.9203,-0.8972,-0.8055,-0.8927,-0.9057,-0.8305,-0.8477,-0.8027,-0.6866,0.0,0.0,0.0,0.0,0.0,0.0,-0.7545,0.0,0.0,-0.7312,-0.7572,-0.7953,-0.6945,-0.5679,-0.4431,-0.4933,-0.5992,-0.7034,-0.5689,-0.482,-0.4437,-0.4831,-0.481,-0.475,-0.5659,-0.6012,-0.6138,-0.6141,-0.6518,-0.6964,-0.7043,-0.6969,-0.6794,-0.6584,-0.6107,-0.5626,-0.552,0.0,-0.5554,-0.5157,0.0,-0.7112,-0.6309,0.0,0.0,-0.7982,-0.8523,-0.9228,-0.9745,-0.9396,-0.9088,-0.9233,-0.9606,-0.9864,-0.9843,-0.9767,-0.9863,-1.0254,-0.9922,-0.9873,-1.0264,-1.0332,-1.0352,-1.0352,-1.1224,-1.1685,-1.1685,-1.2471,-1.2881,-1.2881,-1.2881,-1.2881,-1.2881,-1.2881,-1.2881,-1.2881,-1.2881,-1.2881,-1.2881,-1.2881,-1.2881,-1.2881,-1.2881,-1.2881,-1.2881,-1.2881,-1.2881,-1.2881,-0.9647,-0.9537,0.0,0.0,0.0,0.0,0.0,0.0,0.0,0.0,0.0,0.0,-1.2406,-1.2225,-1.2271,-1.2567,-1.1925,-1.0989,-0.9827,-1.0097,0.0,-0.8609,-0.9632,-0.998,-0.9454,-0.9354,-0.9032,0.0,-0.824,0.0,0.0,0.0,0.0,0.0,-0.7971,-0.7838,-0.7693,-0.7496,-0.7703,-0.8071,-0.6779,-0.6311,-0.6467,-0.7381,-0.5813,-0.3023,-0.2441,-0.2711,-0.3597,-0.5167,-0.5702,-0.5748,-0.5904,-0.6417,-0.6875,-0.6537,-0.6831,-0.7261,-0.7181,-0.7068,-0.6928,-0.6601,-0.6455,-0.6331,-0.6126,-0.6115,-0.5989,-0.5509,0.0,0.0,0.0,0.0,0.0,0.0,-0.8481,-0.9438,-0.9715,-1.0279,-1.0571,-1.0363,-1.0279,-1.0293,-1.0532,-1.0798,-1.0872,-1.0715,-1.063,-1.0697,-1.099,-1.0545,-1.04,-1.0635,-1.1283,-1.1724,-1.1943,-1.2568,-1.2881,-1.2881,-1.2881,-1.2881,-1.2881,-1.2881,-1.2881,-1.2881,-1.2881,-1.2881,-1.2881,-1.2881,-1.2881,-1.2881,-1.2881,-1.2881,-1.2881,-1.2881,-1.2881,-1.2881,-0.9625,0.0,0.0,0.0,0.0,0.0,0.0,0.0,-1.1671,-1.1791,-1.2894,-1.3345,-1.2501,-1.2455,-1.2523,-1.2561,-1.2311,-1.1662,-1.0496,-1.0517,-1.012,-0.912,-1.0121,-1.0546,-1.0186,-0.9976,-0.9756,0.0,0.0,0.0,0.0,0.0,0.0,0.0,0.0,-0.7828,-0.7775,-0.7339,-0.7411,-0.7727,-0.6752,-0.6427,-0.6726,-0.8751,-0.554,0.0,0.0,-0.0817,-0.2251,-0.4664,-0.592,-0.6461,-0.6296,-0.6772,-0.7312,-0.6922,-0.7081,-0.7309,-0.7097,-0.7007,-0.6876,-0.6516,-0.6648,-0.683,-0.655,-0.6553,-0.6417,-0.579,-0.6192,0.0,0.0,0.0,-0.7314,-0.6951,0.0,-0.9167,-0.9294,-1.0384,-1.1107,-1.099,-1.0719,-1.0759,-1.1323,-1.1551,-1.1536,-1.1228,-1.1222,-1.1259,-1.1371,-1.0818,-1.0584,-1.0889,-1.1381,-1.1856,-1.2437,-1.2752,-1.2968,-1.3152,-1.2968,-1.2881,-1.2881,-1.2881,-1.2881,-1.2881,-1.2881,-1.2881,-1.2881,-1.2881,-1.2881,-1.2881,-1.2881,-1.2881,-1.2881,-1.2881,-1.2881,-1.2881,-0.9508,-0.9401,0.0,0.0,-0.9061,0.0,-0.9506,-1.0355,-1.1143,-1.1729,-1.2849,-1.3481,-1.3193,-1.2428,-1.1945,-1.2032,-1.0774,-1.0065,-1.019,-0.9801,-0.9526,-0.947,-1.0452,-1.0704,-1.0122,-1.0225,-1.0122,-0.9776,0.0,0.0,0.0,0.0,0.0,0.0,-0.7125,-0.703,-0.729,-0.6746,-0.6739,-0.7022,-0.6981,-0.5289,-0.3265,-0.7791,-0.554,0.0,0.0,-0.0033,-0.0445,-0.2795,-0.4876,-0.6582,-0.7022,-0.7153,-0.7165,-0.7339,-0.7356,-0.7244,-0.6966,-0.6917,-0.6844,-0.6562,-0.6688,-0.6835,-0.6566,-0.6664,-0.6565,-0.5771,-0.6077,-0.6288,-0.5542,-0.6552,-0.7296,-0.671,-0.7379,0.0,0.0,-0.9253,-1.0004,-1.0637,-1.0813,-1.1272,-1.2247,-1.1554,-1.1203,-1.1631,-1.1268,-1.1048,-1.111,-1.0979,-1.088,-1.092,-1.1381,-1.2057,-1.3065,-1.2969,-1.319,-1.3779,-1.32,-1.2881,-1.2881,-1.2881,-1.2881,-1.2881,-1.2881,-1.2881,-1.2881,-1.2881,-1.2881,-1.2881,-1.2881,-1.2881,-1.2881,-1.2881,-1.2881,-1.2881,0.0,0.0,0.0,-0.9084,-0.9005,-0.9111,-0.9653,-1.0922,-1.1669,-1.1264,-1.1738,-1.1977,-1.1585,-1.0921,-1.0559,-1.0656,-1.0272,-0.9889,-0.955,-0.9894,-0.9872,-0.9383,-1.0259,-1.0588,-1.0232,-1.024,-1.0174,-1.0072,-0.971,0.0,0.0,0.0,0.0,0.0,0.0,-0.7297,-0.6815,-0.7181,-0.6324,-0.4912,-0.74,-0.7091,-0.5022,-0.3715,-0.1871,0.0,0.0,0.0,-0.012,-0.0916,-0.4206,-0.7839,-0.7263,-0.7527,-0.7937,-0.7523,-0.7605,-0.7704,-0.7134,-0.7098,-0.7162,-0.6823,-0.7099,-0.7471,-0.7649,-0.7544,-0.7314,-0.6999,-0.6783,-0.6488,-0.6024,-0.6498,-0.6901,-0.6694,-0.7468,-0.8162,0.0,-0.9248,-1.0191,-1.0994,-1.1224,-1.1655,-1.258,-1.1855,-1.1838,-1.3048,-1.2229,-1.1713,-1.1882,-1.1347,-1.1144,-1.1341,-1.1528,-1.2252,-1.3527,-1.3517,-1.36,-1.3815,-1.36,-1.3286,-1.2881,-1.2881,-1.2881,-1.2881,-1.2881,-1.2881,-1.2881,-1.2881,-1.2881,-1.2881,-1.2881,-1.2881,-1.2881,-1.2881,-1.2881,-1.2881,-0.9191,-0.9191,-0.9136,-0.905,-0.8966,-0.9178,-0.9999,-1.0822,-1.145,-1.1614,-1.1574,-1.15,-1.1339,-1.0715,-1.0259,-1.0259,-1.0121,-0.9966,-0.9852,-1.0156,-1.0149,-0.9604,-1.0193,-1.0413,-1.0165,-1.0131,-1.0053,-0.9982,-0.9696,-0.9267,0.0,0.0,0.0,0.0,0.0,-0.7291,-0.6677,-0.6169,-0.5385,-0.4709,-0.7117,-0.7452,-0.6186,-0.3329,-0.1309,0.0,0.0,0.0,0.0,0.0,-0.3311,-0.7475,-0.77,-0.8014,-0.8195,-0.7724,-0.7633,-0.7573,-0.7026,-0.7,-0.7081,-0.6738,-0.717,-0.7679,-0.7743,-0.7706,-0.7566,-0.7329,-0.6925,-0.6568,-0.6461,-0.6489,-0.661,-0.6901,-0.7358,-0.783,0.0,-0.9043,-0.9864,-1.0733,-1.1246,-1.1779,-1.2427,-1.2233,-1.2425,-1.3264,-1.2774,-1.2354,-1.2172,-1.1636,-1.1489,-1.1926,-1.19,-1.2624,-1.4097,-1.3909,-1.3815,-1.3815,-1.36,-1.3286,-1.2881,-1.2881,-1.2881,-1.2881,-1.2881,-1.2881,-1.2881,-1.2881,-1.2881,-1.2881,-1.2881,-1.2881,-1.2881,-1.2881,-1.2881,-1.2881,-0.9168,-0.9123,-0.9119,-0.9237,-0.8977,-0.9155,-1.044,-1.0117,-1.0489,-1.2632,-1.2183,-1.1879,-1.2365,-1.157,-1.0893,-1.0676,-1.0207,-1.0207,-1.0935,-1.0584,-1.0269,-1.0153,-1.0313,-1.0298,-1.0006,-0.9939,-0.9799,-0.9595,-0.9526,0.0,0.0,0.0,0.0,0.0,-0.7176,-0.6986,-0.6871,-0.3982,-0.4015,-0.6019,-0.6227,-0.6368,-0.646,-0.6345,-0.3816,-0.0287,-0.0072,0.0,0.0,0.0,-0.216,-0.5352,-0.8344,-0.8667,-0.7953,-0.7878,-0.7447,-0.6961,-0.6687,-0.6725,-0.6735,-0.6341,-0.692,-0.7455,-0.6949,-0.7202,-0.7377,-0.6875,-0.6573,-0.6538,-0.6863,-0.6515,-0.6445,-0.7237,-0.6997,-0.7103,-0.8197,-0.8564,-0.903,-0.9894,-1.0943,-1.1655,-1.1827,-1.2521,-1.2774,-1.2324,-1.2823,-1.2808,-1.198,-1.1798,-1.2001,-1.254,-1.2552,-1.3238,-1.4732,-1.419,-1.3862,-1.3826,-1.3238,-1.2978,-1.2881,-1.2881,-1.2881,-1.2881,-1.2881,-1.2881,-1.2881,-1.2881,-1.2881,-1.2881,-1.2881,-1.2881,-1.2881,-1.2881,-1.2881,-1.2881,-0.906,-0.8953,-0.8857,-0.8801,-0.9029,-0.934,-0.9694,-1.0002,-1.0563,-1.1472,-1.0659,-1.0331,-1.1144,-1.0271,-0.9745,-1.0082,-0.9981,-1.0157,-1.0731,-1.0697,-1.0701,-1.0772,-1.0833,-1.0978,-1.1305,-1.0394,-0.9784,-0.9516,-0.9408,-0.8886,-0.8028,0.0,0.0,0.0,0.0,-0.729,-0.6508,-0.5439,-0.3676,-0.1892,-0.5045,-0.6315,-0.6345,-0.6315,-0.5636,-0.4279,-0.1126,0.0,0.0,0.0,-0.0582,-0.2327,-0.8188,-0.9469,-0.8659,-0.7565,-0.7105,-0.7001,-0.6934,-0.6907,-0.6935,-0.682,-0.7126,-0.747,-0.7575,-0.7704,-0.7783,-0.768,-0.7222,-0.6918,-0.7088,-0.6503,-0.6196,-0.6915,-0.7009,-0.7177,-0.7661,-0.8302,-0.9047,-0.9966,-1.0854,-1.1254,-1.0962,-1.0901,-1.1197,-1.2022,-1.2455,-1.2604,-1.2414,-1.2385,-1.2594,-1.3148,-1.3082,-1.3786,-1.5353,-1.5231,-1.4915,-1.4468,-1.4294,-1.3752,-1.2881,-1.2881,-1.2881,-1.2881,-1.2881,-1.2881,-1.2881,-1.2881,-1.2881,-1.2881,-1.2881,-1.2881,-1.2881,-1.2881,-1.2881,-1.2881,-0.9007,-0.8903,-0.8764,-0.866,-0.8841,-0.9145,-0.953,-0.9874,-1.0484,-1.1612,-1.0706,-1.0299,-1.1178,-1.0187,-0.9566,-0.988,-0.9905,-1.0244,-1.1048,-1.0665,-1.0758,-1.1588,-1.1519,-1.1341,-1.1063,-1.0633,-1.0057,-0.9328,-0.9259,-0.8771,-0.7946,0.0,0.0,0.0,0.0,-0.7463,-0.6626,-0.5588,-0.4142,-0.2596,-0.3272,-0.4662,0.0,-0.6315,-0.6315,-0.5756,-0.1517,0.0,0.0,0.0,0.0,-0.0674,-0.4561,-0.6684,-0.7667,-0.7536,-0.7266,-0.6979,-0.6979,-0.6979,-0.6979,-0.6979,-0.71,-0.7284,-0.7469,-0.7402,-0.7391,-0.7531,-0.7224,-0.7009,-0.7349,-0.6705,-0.6217,-0.6581,-0.6827,-0.7072,-0.7371,-0.7828,-0.847,-0.9387,-1.0019,-1.0283,-1.0064,-1.0634,-1.121,-1.166,-1.2224,-1.2556,-1.263,-1.2634,-1.3025,-1.3839,-1.3508,-1.4134,-1.5944,-1.5223,-1.4771,-1.4504,-1.4106,-1.3573,-1.2881,-1.2881,-1.2881,-1.2881,-1.2881,-1.2881,-1.2881,-1.2881,-1.2881,-1.2881,-1.2881,-1.2881,-1.2881,-1.2881,-1.2881,-1.2881,-0.8981,-0.8852,-0.8786,-0.8907,-0.8677,-0.8813,-0.9851,-0.9787,-1.0264,-1.206,-1.1282,-1.086,-1.1672,-1.0726,-1.0006,-1.0006,-1.0006,-1.0458,-1.1525,-1.0596,-1.0721,-1.2341,-1.2132,-1.1528,-1.054,-1.037,-0.9725,-0.8484,-0.8886,-0.8794,0.0,0.0,0.0,0.0,0.0,-0.7412,-0.688,-0.5154,-0.4835,-0.523,-0.1501,-0.2203,-0.5548,-0.6099,-0.5971,-0.5005,-0.1317,0.0,0.0,0.0,-0.0407,-0.0922,-0.0922,-0.3239,-0.6213,-0.7548,-0.7509,-0.6979,-0.6979,-0.6979,-0.6979,-0.6979,-0.6979,-0.6979,-0.6979,-0.6827,-0.672,-0.6974,-0.6929,-0.6981,-0.7547,-0.7063,-0.6572,-0.6501,-0.6757,-0.7103,-0.7543,-0.7469,-0.7776,-0.8847,-0.9157,0.0,-0.9515,-1.1049,-1.1761,-1.1151,-1.2029,-1.2607,-1.2673,-1.2788,-1.3376,-1.4618,-1.3888,-1.444,-1.644,-1.485,-1.4143,-1.4343,-1.347,-1.2968,-1.2881,-1.2881,-1.2881,-1.2881,-1.2881,-1.2881,-1.2881,-1.2881,-1.2881,-1.2881,-1.2881,-1.2881,-1.2881,-1.2881,-1.2881,-1.2881,-0.893,-0.8672,-0.8807,-0.992,-0.9121,-0.897,-1.0837,-0.998,-0.9533,-1.0631,-1.0245,-1.017,-1.0912,-1.0742,-1.0556,-1.0556,-1.0556,-1.0872,-1.1538,-1.096,-1.1107,-1.2366,-1.1676,-1.1709,-1.2648,-0.839,-0.587,-0.5304,-0.7735,-0.8495,-0.7645,-0.7474,0.0,0.0,0.0,-0.6713,-0.6381,-0.5375,-0.4687,-0.3986,-0.1139,-0.0447,-0.1485,-0.4981,-0.4143,-0.1006,-0.0263,0.0,0.0,0.0,-0.2563,-0.5757,-0.5757,-0.624,-0.6859,-0.71,-0.7105,-0.6979,-0.6979,-0.6979,-0.6979,-0.6979,-0.6979,-0.6979,-0.6979,-0.6981,-0.6961,-0.7014,-0.6982,-0.7051,-0.7268,-0.7503,-0.7677,-0.7492,-0.7633,-0.8095,-0.8995,-0.8089,-0.8059,-1.0118,-1.0052,-1.0108,-1.0708,-1.0929,-1.0764,-1.0112,-1.154,-1.2455,-1.2523,-1.3124,-1.4056,-1.5452,-1.4509,-1.4933,-1.6867,-1.5332,-1.4598,-1.4609,-1.395,-1.3372,-1.2881,-1.2881,-1.2881,-1.2881,-1.2881,-1.2881,-1.2881,-1.2881,-1.2881,-1.2881,-1.2881,-1.2881,-1.2881,-1.2881,-1.2881,-1.2881,-0.8677,-0.8517,-0.8623,-0.9294,-0.9093,-0.9219,-1.0392,-1.0193,-1.0163,-1.098,-1.0736,-1.0601,-1.0969,-1.0818,-1.0694,-1.0694,-1.0998,-1.1374,-1.1821,-1.1249,-1.1199,-1.1952,-1.1584,-1.1932,-1.3173,-1.0642,-0.7917,-0.5074,-0.7633,-0.8516,-0.7812,-0.7486,-0.7044,-0.651,0.0,-0.7634,-0.73,-0.8191,-0.7034,-0.4343,-0.1253,0.0,-0.0224,-0.2259,-0.1772,-0.0319,-0.2749,-0.4041,-0.4476,-0.3854,-0.5119,-0.6979,-0.6979,-0.6979,-0.6979,-0.6979,-0.6979,-0.6979,-0.6979,-0.7231,-0.7447,-0.7447,-0.769,-0.7889,-0.7889,-0.7889,-0.7942,-0.815,-0.818,-0.8124,-0.791,-0.7711,-0.758,-0.758,-0.7776,-0.8174,-0.9014,-0.8355,-0.8316,-0.9804,-0.9989,-1.007,-1.0306,-1.0901,-1.1055,-1.0504,-1.1706,-1.2508,-1.26,-1.3261,-1.4231,-1.5495,-1.4367,-1.4914,-1.7387,-1.5012,-1.4289,-1.5172,-1.39,-1.32,-1.2881,-1.2881,-1.2881,-1.2881,-1.2881,-1.2881,-1.2881,-1.2881,-1.2881,-1.2881,-1.2881,-1.2881,-1.2881,-1.2881,-1.2881,-1.2881,-0.9366,-0.9183,-0.9119,-0.9278,-0.9273,-0.9484,-1.0179,-1.058,-1.0975,-1.1474,-1.1306,-1.111,-1.1031,-1.0996,-1.0954,-1.091,-1.1437,-1.1864,-1.2083,-1.1412,-1.0759,-1.0233,-1.086,-1.1864,-1.3173,-1.1357,-0.8436,-0.4412,-0.7578,-0.8743,-0.8073,-0.7715,-0.7315,-0.6982,-0.8321,-0.8442,-0.7811,-1.0389,-0.8665,-0.3938,-0.1129,0.0,0.0,0.0,0.0,-0.0648,-0.5625,-0.8003,-0.8637,-0.7522,-0.7148,-0.7148,-0.7148,-0.7088,-0.7021,-0.7147,-0.7105,-0.7063,-0.7314,-0.7614,-0.7919,-0.8036,-0.8398,-0.8716,-0.8716,-0.8716,-0.8824,-0.9223,-0.9348,-0.928,-0.8712,-0.814,-0.7787,-0.7853,-0.8019,-0.8427,-0.9169,-0.8662,-0.8564,-0.9579,-0.9791,-0.9918,-0.998,-1.1072,-1.1644,-1.1265,-1.1957,-1.2476,-1.2622,-1.3278,-1.4142,-1.5197,-1.4181,-1.4796,-1.7223,-1.4596,-1.3895,-1.5192,-1.3637,-1.2881,-1.2881,-1.2881,-1.2881,-1.2881,-1.2881,-1.2881,-1.2881,-1.2881,-1.2881,-1.2881,-1.2881,-1.2881,-1.2881,-1.2881,-1.2881,-1.2881,-1.2314,-1.175,-1.1369,-1.1847,-1.0387,-0.9745,-1.1586,-1.1462,-1.1117,-1.0991,-1.0955,-1.0821,-1.0513,-1.1306,-1.1787,-1.153,-1.2015,-1.2266,-1.2102,-1.1412,-0.9378,-0.578,-0.8484,-1.1048,-1.3148,-0.5347,-0.0997,-0.052,-0.6769,-0.9204,-0.8002,-0.7976,-0.7616,-0.7041,-0.8151,-0.7734,-0.6398,-0.9226,-0.6597,-0.047,-0.0134,0.0,0.0,0.0,0.0,-0.0762,-0.656,-0.8711,-0.8677,-0.7836,-0.7548,-0.7548,-0.7548,-0.7308,-0.7105,-0.7663,-0.7447,-0.7231,-0.8259,-0.8234,-0.8036,-0.8521,-0.8675,-0.8716,-0.8716,-0.8716,-0.8824,-0.9223,-0.9592,-0.9629,-0.8975,-0.9311,-0.9524,-0.9096,-0.9214,-0.967,-1.0656,-0.929,-0.8872,-1.0701,-1.0102,-1.0003,-1.1135,-1.1733,-1.1951,-1.1663,-1.1955,-1.2199,-1.2327,-1.309,-1.3878,-1.4667,-1.4434,-1.4683,-1.5449,-1.4469,-1.3981,-1.3949,-1.3226,-1.2881,-1.2881,-1.2881,-1.2881,-1.2881,-1.2881,-1.2881,-1.2881,-1.2881,-1.2881,-1.2881,-1.2881,-1.2881,-1.2881,-1.2881,-1.2881,-1.2881,-1.1217,-1.1019,-1.0963,-1.1482,-1.1093,-1.1167,-1.2503,-1.2399,-1.2133,-1.2045,-1.1643,-1.1335,-1.1195,-1.1812,-1.2208,-1.2077,-1.258,-1.2835,-1.278,-1.0006,-0.6453,-0.2183,-0.3252,-0.4381,-0.5259,-0.1816,-0.0884,-0.2698,-0.536,-0.7711,-0.9697,-0.8465,-0.7685,-0.7404,-0.8426,-0.886,-0.8961,-1.1009,-0.7263,-0.0225,-0.2803,-0.541,-0.7168,-0.1973,-0.1102,-0.2953,-0.5317,-0.7301,-0.8731,-0.8237,-0.7862,-0.7569,-0.7328,-0.7148,-0.7063,-0.7273,-0.7447,-0.7655,-0.8111,-0.8513,-0.8918,-0.9119,-0.9609,-1.0036,-1.0036,-1.022,-1.0557,-1.0973,-1.0849,-1.0577,-1.0344,-0.9665,-0.9232,-0.9417,-0.9123,-0.9315,-1.0481,-0.9467,-0.9219,-1.078,-1.038,-1.0352,-1.1308,-1.1834,-1.2149,-1.2231,-1.2388,-1.2449,-1.2419,-1.2991,-1.3627,-1.4327,-1.4318,-1.4572,-1.5114,-1.438,-1.3987,-1.4027,-1.3293,-1.2881,-1.2881,-1.2881,-1.2881,-1.2881,-1.2881,-1.2881,-1.2881,-1.2881,-1.2881,-1.2881,-1.2881,-1.2881,-1.2881,-1.2881,-1.2881,-1.2881,-1.1512,-1.139,-1.1312,-1.1635,-1.1746,-1.2081,-1.297,-1.2932,-1.2829,-1.2902,-1.2328,-1.1883,-1.1718,-1.205,-1.231,-1.2391,-1.2885,-1.3198,-1.3198,-1.028,-0.6561,-0.2129,-0.1941,-0.1941,-0.1941,-0.1941,-0.2983,-0.5122,-0.5977,-0.783,-1.0537,-0.8402,-0.7421,-0.7552,-0.8296,-0.8926,-0.9601,-1.1896,-0.9365,-0.3945,-0.5703,-0.9004,-1.2217,-0.6113,-0.4042,-0.4597,-0.5978,-0.7482,-0.8817,-0.8955,-0.8489,-0.7825,-0.7419,-0.7125,-0.7063,-0.7391,-0.7697,-0.7995,-0.848,-0.9039,-0.9518,-0.9677,-1.0305,-1.0908,-1.0908,-1.1143,-1.1455,-1.1777,-1.1656,-1.1397,-1.1084,-1.0052,-0.9268,-0.9376,-0.9035,-0.9085,-0.9986,-0.9419,-0.9401,-1.0659,-1.0475,-1.0533,-1.1202,-1.1629,-1.2018,-1.2366,-1.2425,-1.2503,-1.2636,-1.3152,-1.3655,-1.4135,-1.4605,-1.4808,-1.4748,-1.4446,-1.412,-1.3795,-1.3168,-1.2881,-1.2881,-1.2881,-1.2881,-1.2881,-1.2881,-1.2881,-1.2881,-1.2881,-1.2881,-1.2881,-1.2881,-1.2881,-1.2881,-1.2881,-1.2881,-1.2881,-1.4555,-1.3949,-1.3296,-1.3099,-1.238,-1.2081,-1.297,-1.2932,-1.2897,-1.3162,-1.2774,-1.2293,-1.1759,-1.1882,-1.2097,-1.2386,-1.2885,-1.3198,-1.3198,-1.3148,-1.1144,-0.6712,-0.6524,-0.6524,-0.6524,-0.6524,-0.6536,-0.6574,-0.9437,-1.0485,-0.9776,-0.7483,-0.6746,-0.7306,-0.7453,-0.7121,-0.6738,-1.1055,-1.2822,-1.2353,-0.8115,-0.9004,-1.2871,-1.2764,-0.9268,-0.5005,-0.9741,-1.0289,-0.8967,-1.0025,-0.9621,-0.8609,-0.8058,-0.7463,-0.7231,-0.8341,-0.8316,-0.8242,-0.9843,-0.9883,-0.9637,-1.0157,-1.0596,-1.0908,-1.0908,-1.0918,-1.0918,-1.0928,-1.1577,-1.1851,-1.0786,-1.057,-1.0215,-0.9093,-0.9182,-0.9402,-0.9393,-0.9181,-0.9401,-1.0473,-1.0314,-1.0347,-1.0966,-1.1201,-1.149,-1.1865,-1.1855,-1.2156,-1.295,-1.3628,-1.3978,-1.399,-1.5527,-1.5587,-1.3948,-1.4771,-1.4413,-1.292,-1.2929,-1.2881,-1.2881,-1.2881,-1.2881,-1.2881,-1.2881,-1.2881,-1.2881,-1.2881,-1.2881,-1.2881,-1.2881,-1.2881,-1.2881,-1.2881,-1.2881,-1.2881,-1.3159,-1.3262,-1.3343,-1.3528,-1.3715,-1.4105,-1.4845,-1.4222,-1.3731,-1.3796,-1.2856,-1.225,-1.2489,-1.269,-1.2855,-1.2956,-1.3098,-1.3198,-1.3198,-1.3198,-1.2572,-1.1157,-1.1107,-1.1107,-1.1107,-1.1107,-1.15,-1.2241,-1.1337,-0.9954,-0.8135,-0.9991,-1.0944,-1.1122,-1.1163,-1.1032,-1.0908,-1.2295,-1.2881,-1.2764,-1.1377,-1.165,-1.2881,-1.2881,-1.1158,-0.8992,-1.0845,-1.0626,-0.957,-1.0067,-0.9857,-0.9296,-0.8843,-0.8458,-0.8265,-0.8922,-0.9072,-0.9171,-0.9967,-1.013,-1.0088,-1.0244,-1.082,-1.1279,-1.0977,-1.1143,-1.1445,-1.1748,-1.1553,-1.1204,-1.0879,-1.0426,-1.0058,-0.9884,-0.9191,-0.8865,-0.9465,-0.9116,-0.9085,-0.989,-1.025,-1.0583,-1.097,-1.1054,-1.1282,-1.1728,-1.1797,-1.2139,-1.2908,-1.3038,-1.3166,-1.3325,-1.4207,-1.4216,-1.3212,-1.396,-1.3848,-1.2881,-1.2881,-1.2881,-1.2881,-1.2881,-1.2881,-1.2881,-1.2881,-1.2881,-1.2881,-1.2881,-1.2881,-1.2881,-1.2881,-1.2881,-1.2881,-1.2881,-1.2881,-1.2881,-1.2688,-1.296,-1.3289,-1.403,-1.4513,-1.5049,-1.5709,-1.4975,-1.4341,-1.4268,-1.3265,-1.2667,-1.2987,-1.312,-1.3198,-1.3198,-1.3198,-1.3198,-1.3198,-1.3198,-1.3198,-1.3198,-1.3433,-1.3546,-1.3546,-1.3747,-1.4186,-1.4916,-1.2498,-1.0843,-0.989,-1.1953,-1.2881,-1.2881,-1.2881,-1.2881,-1.2881,-1.2881,-1.2881,-1.2881,-1.2881,-1.2881,-1.2881,-1.2881,-1.2049,-1.0897,-1.1523,-1.083,-0.9683,-1.0488,-1.0438,-0.9998,-0.9839,-0.9783,-0.9771,-0.9648,-0.9538,-0.9676,-1.0433,-1.0584,-1.0557,-1.0723,-1.1289,-1.1699,-1.125,-1.141,-1.1596,-1.1504,-1.1182,-1.0859,-1.0703,-1.034,-1.004,-1.0007,-0.9306,-0.8943,-0.9442,-0.9232,-0.9243,-0.9874,-1.0374,-1.0687,-1.0793,-1.0867,-1.1023,-1.1369,-1.1475,-1.1852,-1.2602,-1.2956,-1.3179,-1.3332,-1.3982,-1.3979,-1.3253,-1.3674,-1.3572,-1.2881,-1.2881,-1.2881,-1.2881,-1.2881,-1.2881,-1.2881,-1.2881,-1.2881,-1.2881,-1.2881,-1.2881,-1.2881,-1.2881,-1.2881,-1.2881,-1.2881,-1.2881,-1.2881,-1.3053,-1.2978,-1.3205,-1.4524,-1.4779,-1.5049,-1.5709,-1.5218,-1.4716,-1.4526,-1.3881,-1.3418,-1.3204,-1.3198,-1.3198,-1.3198,-1.3198,-1.3198,-1.3198,-1.3198,-1.3198,-1.3198,-1.3795,-1.4085,-1.4085,-1.4626,-1.4864,-1.4826,-1.3134,-1.2883,-1.3996,-1.3228,-1.2881,-1.2881,-1.2881,-1.2881,-1.2881,-1.2881,-1.2881,-1.2881,-1.2881,-1.2881,-1.2881,-1.2881,-1.2049,-1.0965,-1.1836,-1.0941,-0.9599,-1.1075,-1.1176,-1.0722,-1.0916,-1.123,-1.1431,-1.0474,-0.9931,-0.9934,-1.1291,-1.1289,-1.1055,-1.1498,-1.1875,-1.207,-1.1704,-1.1577,-1.1332,-1.0488,-1.0615,-1.0742,-1.0352,-1.0283,-1.0118,-0.9637,-0.9518,-0.949,-0.9429,-0.9449,-0.9705,-1.0266,-1.0543,-1.0623,-1.0513,-1.0597,-1.0727,-1.0855,-1.1017,-1.1437,-1.2206,-1.3142,-1.37,-1.3811,-1.4521,-1.4528,-1.3771,-1.3781,-1.3493,-1.2881,-1.2881,-1.2881,-1.2881,-1.2881,-1.2881,-1.2881,-1.2881,-1.2881,-1.2881,-1.2881,-1.2881,-1.2881,-1.2881,-1.2881,-1.2881,-1.2881,-1.2881,-1.2881,-1.2986,-1.2904,-1.3127,-1.4154,-1.4595,-1.5049,-1.5709,-1.5109,-1.4553,-1.4519,-1.3782,-1.3238,-1.322,-1.3198,-1.3198,-1.3198,-1.3198,-1.3198,-1.3198,-1.3198,-1.3198,-1.3198,-1.3795,-1.4085,-1.4085,-1.4626,-1.4697,-1.4308,-1.415,-1.3838,-1.3334,-1.304,-1.2881,-1.2881,-1.2881,-1.2881,-1.2881,-1.2881,-1.2881,-1.2881,-1.2881,-1.2881,-1.2881,-1.2881,-1.2353,-1.1571,-1.1572,-1.1435,-1.1181,-1.1022,-1.1375,-1.1755,-1.1499,-1.1518,-1.1543,-1.1306,-1.1199,-1.1238,-1.1879,-1.1748,-1.1469,-1.1577,-1.1685,-1.1734,-1.1626,-1.1299,-1.1006,-1.0801,-1.0586,-1.04,-1.0303,-1.0283,-1.0244,-1.0118,-0.9765,-0.949,-0.9429,-0.9448,-0.9539,-0.9621,-1.0091,-1.037,-1.0343,-1.0374,-1.0463,-1.0564,-1.0793,-1.1454,-1.2591,-1.2329,-1.2445,-1.3121,-1.2981,-1.2951,-1.3094,-1.2751,-1.2692,-1.2881,-1.2881,-1.2881,-1.2881,-1.2881,-1.2881,-1.2881,-1.2881,-1.2881,-1.2881,-1.2881,-1.2881,-1.2881,-1.2881,-1.2881,-1.2881,-1.2881,-1.2881,-1.2881,-1.3003,-1.2926,-1.3058,-1.3858,-1.4438,-1.4917,-1.5304,-1.5007,-1.4721,-1.4533,-1.3934,-1.3459,-1.3232,-1.3198,-1.3198,-1.3198,-1.3198,-1.3198,-1.3198,-1.3198,-1.3198,-1.3198,-1.3998,-1.4462,-1.4462,-1.5255,-1.5483,-1.5212,-1.5139,-1.4688,-1.3801,-1.3486,-1.3152,-1.2881,-1.2881,-1.2881,-1.2881,-1.2881,-1.2881,-1.2881,-1.2881,-1.2881,-1.2861,-1.2656,-1.2281,-1.1733,-1.1221,-1.1266,-1.1454,-1.0904,-1.135,-1.2148,-1.1743,-1.1881,-1.2175,-1.1924,-1.1719,-1.1743,-1.2353,-1.2207,-1.1865,-1.1865,-1.1865,-1.1758,-1.1357,-1.1084,-1.085,-1.0664,-1.0439,-1.0283,-1.0283,-1.0283,-1.0283,-1.0283,-0.98,-0.9403,-0.9355,-0.9391,-0.9381,-0.9354,-0.9933,-1.0311,-1.0293,-1.0283,-1.0329,-1.0395,-1.0631,-1.1092,-1.1879,-1.1594,-1.1922,-1.3065,-1.2328,-1.2041,-1.2322,-1.2246,-1.2451,-1.2881,-1.2881,-1.2881,-1.2881,-1.2881,-1.2881,-1.2881,-1.2881,-1.2881,-1.2881,-1.2881,-1.2881,-1.2881,-1.2881,-1.2881,-1.2881,-1.2881,-1.2881,-1.2881,-1.2991,-1.2856,-1.2876,-1.359,-1.415,-1.4558,-1.4752,-1.4834,-1.4777,-1.4519,-1.4084,-1.3648,-1.3232,-1.3198,-1.3198,-1.3198,-1.3198,-1.3198,-1.3198,-1.3198,-1.3198,-1.3198,-1.4287,-1.4916,-1.4916,-1.5957,-1.6522,-1.6522,-1.5908,-1.5276,-1.4709,-1.4097,-1.3457,-1.2881,-1.2881,-1.2881,-1.2881,-1.2881,-1.2881,-1.2881,-1.2881,-1.2881,-1.2832,-1.2393,-1.2092,-1.1871,-1.0939,-1.0994,-1.1368,-1.0876,-1.1444,-1.2266,-1.1875,-1.2322,-1.2812,-1.2432,-1.2061,-1.1969,-1.2724,-1.2607,-1.2248,-1.2158,-1.2227,-1.2061,-1.1045,-1.0918,-1.0869,-1.0381,-1.0283,-1.0283,-1.0283,-1.0283,-1.0264,-1.0195,-0.9695,-0.929,-0.9297,-0.9308,-0.9355,-0.9419,-0.9944,-1.0283,-1.0283,-1.0283,-1.0283,-1.0283,-1.0448,-1.0688,-1.1055,-1.1043,-1.173,-1.3128,-1.2141,-1.1636,-1.1704,-1.2109,-1.252,-1.2881,-1.2881,-1.2881,-1.2881,-1.2881,-1.2881,-1.2881,-1.2881,-1.2881,-1.2881,-1.2881,-1.2881,-1.2881,-1.2881,-1.2881,-1.2881,-1.2881,-1.2881,-1.2881,-1.2637,-1.2287,-1.2253,-1.3145,-1.3182,-1.3505,-1.4618,-1.4184,-1.3921,-1.4432,-1.3802,-1.3301,-1.3198,-1.3198,-1.3198,-1.3198,-1.3198,-1.3198,-1.3198,-1.3198,-1.3198,-1.3198,-1.4287,-1.4916,-1.4916,-1.5957,-1.6522,-1.6522,-1.5908,-1.5276,-1.4709,-1.4097,-1.3457,-1.2881,-1.2881,-1.2881,-1.2881,-1.2881,-1.2881,-1.2881,-1.2881,-1.2881,-1.2832,-1.2393,-1.2396,-1.2551,-1.1223,-1.1565,-1.2503,-1.1574,-1.1959,-1.2773,-1.2695,-1.2773,-1.2871,-1.2803,-1.2734,-1.2705,-1.2842,-1.2832,-1.2598,-1.19,-1.2227,-1.2363,-1.0752,-1.0979,-1.1273,-1.0439,-1.0283,-1.0283,-1.0283,-1.0283,-1.0118,-0.9637,-0.9421,-0.9286,-0.9283,-0.9288,-0.9493,-1.0016,-1.0198,-1.0283,-1.0283,-1.0283,-1.0283,-1.0283,-1.033,-1.0774,-1.1768,-1.096,-1.1141,-1.2655,-1.1975,-1.1738,-1.2119,-1.2559,-1.2812,-1.2881,-1.2881,-1.2881,-1.2881,-1.2881,-1.2881,-1.2881,-1.2881,-1.2881,-1.2881,-1.2881,-1.2881,-1.2881,-1.2881,-1.2881,-1.2881,-1.2881,-1.2881,-1.2881,-1.2372,-1.2066,-1.1938,-1.2371,-1.2629,-1.3145,-1.4109,-1.3827,-1.375,-1.4418,-1.3735,-1.3198,-1.3198,-1.3198,-1.3198,-1.3198,-1.3198,-1.3198,-1.3198,-1.3198,-1.3336,-1.3659,-1.4475,-1.5153,-1.5743,-1.6258,-1.6337,-1.6008,-1.5732,-1.5129,-1.419,-1.3909,-1.3457,-1.2881,-1.2881,-1.2881,-1.2881,-1.2881,-1.2881,-1.2881,-1.2881,-1.2881,-1.2832,-1.2393,-1.25,-1.2745,-1.1472,-1.1837,-1.2793,-1.1916,-1.2184,-1.2881,-1.2881,-1.2881,-1.2881,-1.2881,-1.2881,-1.2832,-1.2598,-1.2705,-1.2666,-1.1832,-1.2273,-1.2549,-1.1302,-1.1322,-1.142,-1.0752,-1.0439,-1.0283,-1.0283,-1.0283,-1.0098,-0.9513,-0.9346,-0.9194,-0.8862,-0.9107,-0.9419,-0.9665,-1.0057,-1.0283,-1.0283,-1.0283,-1.0371,-1.0605,-1.041,-1.0614,-1.1358,-1.0712,-1.0614,-1.1337,-1.1518,-1.1777,-1.218,-1.2432,-1.2646,-1.2881,-1.2881,-1.2881,-1.2881,-1.2881,-1.2881,-1.2881,-1.2881,-1.2881,-1.2881,-1.2881,-1.2881,-1.2881,-1.2881,-1.2881,-1.2881,-1.2881,-1.2881,-1.2881,-1.2123,-1.2076,-1.1984,-1.1835,-1.2343,-1.3041,-1.3705,-1.3486,-1.3555,-1.4405,-1.3735,-1.3198,-1.3198,-1.3198,-1.3198,-1.3198,-1.3198,-1.3198,-1.3198,-1.3311,-1.3609,-1.4072,-1.4739,-1.5517,-1.6497,-1.6522,-1.6281,-1.582,-1.5676,-1.5039,-1.4003,-1.3873,-1.3457,-1.2881,-1.2881,-1.2881,-1.2881,-1.2881,-1.2881,-1.2881,-1.2881,-1.2881,-1.2832,-1.2393,-1.25,-1.2774,-1.178,-1.2054,-1.2822,-1.2236,-1.2452,-1.2881,-1.2881,-1.2881,-1.2881,-1.2881,-1.2881,-1.2812,-1.2471,-1.2549,-1.2568,-1.193,-1.2305,-1.2646,-1.1802,-1.1685,-1.1562,-1.1025,-1.0654,-1.04,-1.0303,-1.0283,-1.0098,-0.9513,-0.9346,-0.9159,-0.869,-0.9003,-0.9347,-0.9516,-0.9973,-1.0283,-1.0283,-1.0371,-1.0566,-1.0889,-1.0703,-1.0674,-1.0898,-1.0703,-1.0616,-1.0616,-1.1263,-1.1777,-1.218,-1.2334,-1.2549,-1.2881,-1.2881,-1.2881,-1.2881,-1.2881,-1.2881,-1.2881,-1.2881,-1.2881,-1.2881,-1.2881,-1.2881,-1.2881,-1.2881,-1.2881,-1.2881,-1.2881,-1.2881,-1.2881,-1.1826,-1.2306,-1.2531,-1.191,-1.2343,-1.3041,-1.3705,-1.3102,-1.3033,-1.4349,-1.3735,-1.3198,-1.3198,-1.3198,-1.3198,-1.3198,-1.3198,-1.3198,-1.3198,-1.3709,-1.4035,-1.4085,-1.5104,-1.5906,-1.6509,-1.6522,-1.6466,-1.6423,-1.5864,-1.5276,-1.4606,-1.405,-1.3457,-1.2881,-1.2881,-1.2881,-1.2881,-1.2881,-1.2881,-1.2881,-1.2881,-1.2881,-1.2832,-1.2393,-1.25,-1.2822,-1.2289,-1.2462,-1.2881,-1.2822,-1.2881,-1.2881,-1.2881,-1.2881,-1.2881,-1.2881,-1.2881,-1.2871,-1.2842,-1.2559,-1.2266,-1.2151,-1.2529,-1.2646,-1.1802,-1.1885,-1.1943,-1.1084,-1.0889,-1.0742,-1.0352,-1.0283,-1.0098,-0.9513,-0.9346,-0.93,-0.9335,-0.9327,-0.9535,-1.0147,-1.0264,-1.0283,-1.0283,-1.0635,-1.0879,-1.0908,-1.1302,-1.1341,-1.0928,-1.126,-1.1508,-1.1508,-1.1567,-1.1777,-1.218,-1.2627,-1.2852,-1.2881,-1.2881,-1.2881,-1.2881,-1.2881,-1.2881,-1.2881,-1.2881,-1.2881,-1.2881,-1.2881,-1.2881,-1.2881,-1.2881,-1.2881,-1.2881,-1.2881,-1.2881,-1.2881,-1.2351,-1.2636,-1.2861,-1.3017,-1.3256,-1.3645,-1.4318,-1.3685,-1.3446,-1.4391,-1.3735,-1.3198,-1.3198,-1.3198,-1.3198,-1.3198,-1.3198,-1.3198,-1.3198,-1.3783,-1.4387,-1.5079,-1.5806,-1.6308,-1.6509,-1.6522,-1.6337,-1.5952,-1.5332,-1.4732,-1.4143,-1.3515,-1.3104,-1.2881,-1.2881,-1.2881,-1.2881,-1.2881,-1.2881,-1.2881,-1.2881,-1.2881,-1.2861,-1.2695,-1.2734,-1.2861,-1.2695,-1.2744,-1.2881,-1.2881,-1.2881,-1.2881,-1.2881,-1.2881,-1.2881,-1.2881,-1.2686,-1.2434,-1.2278,-1.2435,-1.2464,-1.1752,-1.189,-1.2087,-1.1473,-1.1278,-1.1219,-1.1344,-1.0889,-1.0547,-1.0654,-1.0459,-1.0186,-0.9868,-1.0099,-1.0272,-1.0202,-1.0502,-1.0709,-1.0684,-1.0908,-1.09,-1.0332,-1.0949,-1.1309,-1.1309,-1.1508,-1.1611,-1.1719,-1.1621,-1.1606,-1.1606,-1.1826,-1.2061,-1.218,-1.2666,-1.2881,-1.2881,-1.2881,-1.2881,-1.2881,-1.2881,-1.2881,-1.2881,-1.2881,-1.2881,-1.2881,-1.2881,-1.2881,-1.2881,-1.2881,-1.2881,-1.2881,-1.2881,-1.2881,-1.2881,-1.2972,-1.3271,-1.352,-1.3765,-1.3974,-1.4274,-1.4722,-1.4041,-1.375,-1.4418,-1.3735,-1.3198,-1.3198,-1.3198,-1.3198,-1.3198,-1.3198,-1.3273,-1.3483,-1.4198,-1.4941,-1.5668,-1.622,-1.6522,-1.6522,-1.6522,-1.6194,-1.5588,-1.5017,-1.4376,-1.3779,-1.32,-1.2881,-1.2881,-1.2881,-1.2881,-1.2881,-1.2881,-1.2881,-1.2881,-1.2881,-1.2881,-1.2881,-1.2881,-1.2881,-1.2881,-1.2881,-1.2881,-1.2881,-1.2881,-1.2881,-1.2881,-1.2881,-1.2881,-1.2881,-1.2881,-1.2666,-1.2339,-1.1899,-1.2187,-1.2337,-1.1297,-1.1421,-1.1644,-1.1182,-1.1022,-1.1031,-1.114,-1.0668,-1.0289,-1.0308,-1.0197,-1.0049,-1.0089,-1.0501,-1.086,-1.0964,-1.1344,-1.1489,-1.1152,-1.142,-1.1371,-1.0783,-1.1338,-1.1768,-1.1768,-1.1939,-1.2109,-1.2422,-1.1875,-1.1675,-1.1768,-1.207,-1.218,-1.218,-1.2666,-1.2881,-1.2881,-1.2881,-1.2881,-1.2881,-1.2881,-1.2881,-1.2881,-1.2881,-1.2881,-1.2881,-1.2881,-1.2881,-1.2881,-1.2881,-1.2881,-1.2881,-1.2881,-1.2881,-1.2881,-1.369,-1.4333,-1.4588,-1.3929,-1.4363,-1.4797,-1.4797,-1.4056,-1.3764,-1.4418,-1.3735,-1.3198,-1.3198,-1.3198,-1.3198,-1.3198,-1.3198,-1.3471,-1.406,-1.513,-1.5693,-1.5706,-1.6233,-1.6522,-1.6522,-1.6522,-1.6194,-1.5588,-1.5017,-1.4376,-1.3779,-1.32,-1.2881,-1.2881,-1.2881,-1.2881,-1.2881,-1.2881,-1.2881,-1.2881,-1.2881,-1.2881,-1.2881,-1.2881,-1.2881,-1.2881,-1.2881,-1.2881,-1.2881,-1.2881,-1.2881,-1.2881,-1.2881,-1.2881,-1.2881,-1.2881,-1.2881,-1.2725,-1.1972,-1.1765,-1.1616,-1.0965,-1.1316,-1.1616,-1.0965,-1.1308,-1.15,-1.0408,-1.0188,-0.9968,-0.9264,-0.9331,-0.9624,-1.0043,-1.0398,-1.0838,-1.1528,-1.1616,-1.1616,-1.1606,-1.1606,-1.1606,-1.1606,-1.1973,-1.219,-1.218,-1.2627,-1.2881,-1.2881,-1.2096,-1.1768,-1.2171,-1.219,-1.219,-1.219,-1.2666,-1.2881,-1.2881,-1.2881,-1.2881,-1.2881,-1.2881,-1.2881,-1.2881,-1.2881,-1.2881,-1.2881,-1.2881,-1.2881,-1.2881,-1.2881,-1.2881,-1.2881,-1.2881,-1.2881,-1.2881,-1.4363,-1.4648,-1.4872,-1.5169,-1.5379,-1.5499,-1.5499,-1.4757,-1.4263,-1.4474,-1.3735,-1.3198,-1.3198,-1.3198,-1.3198,-1.3198,-1.3198,-1.3634,-1.4601,-1.5291,-1.5869,-1.6258,-1.6421,-1.6522,-1.6522,-1.6522,-1.6423,-1.6238,-1.5197,-1.4606,-1.4422,-1.3382,-1.2881,-1.2881,-1.2881,-1.2881,-1.2881,-1.2881,-1.2881,-1.2881,-1.2881,-1.2881,-1.2881,-1.2881,-1.2881,-1.2881,-1.2881,-1.2881,-1.2881,-1.2881,-1.2881,-1.2822,-1.2295,-1.2129,-1.203,-1.1584,-1.1434,-1.1283,-1.0568,-1.0415,-1.0364,-1.0167,-1.0269,-1.025,-0.9772,-0.9818,-1.0025,-1.0165,-0.9945,-0.9736,-0.9861,-0.9663,-0.9652,-1.0077,-1.0661,-1.1203,-1.1674,-1.2177,-1.2373,-1.2061,-1.2305,-1.2292,-1.1665,-1.2246,-1.2559,-1.2209,-1.2627,-1.2881,-1.2881,-1.2627,-1.2549,-1.2686,-1.2686,-1.2686,-1.2686,-1.2812,-1.2881,-1.2881,-1.2881,-1.2881,-1.2881,-1.2881,-1.2881,-1.2881,-1.2881,-1.2881,-1.2881,-1.2881,-1.2881,-1.2881,-1.2881,-1.2881,-1.2881,-1.2881,-1.2881,-1.2881,-1.5052,-1.5214,-1.5334,-1.5724,-1.5799,-1.5799,-1.5799,-1.5074,-1.4501,-1.4501,-1.3735,-1.3198,-1.3198,-1.3198,-1.3198,-1.3198,-1.3599,-1.4249,-1.5141,-1.5718,-1.617,-1.6509,-1.6522,-1.6522,-1.6522,-1.6522,-1.625,-1.5788,-1.5062,-1.4479,-1.3978,-1.3248,-1.2881,-1.2881,-1.2881,-1.2881,-1.2881,-1.2881,-1.2881,-1.2881,-1.2881,-1.2881,-1.2881,-1.2881,-1.2881,-1.2881,-1.2881,-1.2881,-1.2881,-1.2881,-1.2881,-1.2774,-1.203,-1.1814,-1.1665,-1.1015,-1.0813,-1.0661,-0.9961,-0.9814,-0.971,-0.9458,-0.9614,-0.9666,-0.9177,-0.9228,-0.9479,-0.9622,-0.9415,-0.9294,-0.946,-0.9552,-0.9771,-1.0228,-1.0933,-1.1601,-1.215,-1.2608,-1.2783,-1.252,-1.2725,-1.2666,-1.2184,-1.2616,-1.2773,-1.251,-1.2734,-1.2881,-1.2881,-1.2881,-1.2881,-1.2881,-1.2881,-1.2881,-1.2881,-1.2881,-1.2881,-1.2881,-1.2881,-1.2881,-1.2881,-1.2881,-1.2881,-1.2881,-1.2881,-1.2881,-1.2881,-1.2881,-1.2881,-1.2881,-1.2881,-1.2881,-1.2881,-1.2881,-1.2881,-1.2881,-1.5679,-1.5799,-1.5799,-1.5799,-1.5799,-1.5799,-1.5741,-1.5043,-1.4501,-1.4438,-1.3702,-1.3198,-1.3198,-1.3198,-1.3198,-1.3198,-1.4237,-1.5142,-1.5655,-1.6208,-1.6522,-1.6522,-1.6522,-1.6522,-1.6522,-1.6522,-1.5932,-1.4789,-1.4744,-1.4107,-1.2968,-1.2929,-1.2881,-1.2881,-1.2881,-1.2881,-1.2881,-1.2881,-1.2881,-1.2881,-1.2881,-1.2881,-1.2881,-1.2881,-1.2881,-1.2881,-1.2881,-1.2881,-1.2881,-1.2822,-1.2774,-1.2666,-1.1873,-1.1616,-1.1466,-1.0813,-1.0618,-1.0466,-0.9865,-0.971,-0.9562,-0.8956,-0.9263,-0.9562,-0.8962,-0.9256,-0.951,-0.891,-0.8804,-0.8731,-0.8464,-0.9125,-0.9819,-1.0197,-1.1043,-1.1873,-1.252,-1.2676,-1.2725,-1.2725,-1.2725,-1.2725,-1.2725,-1.2774,-1.2832,-1.2881,-1.2881,-1.2881,-1.2881,-1.2881,-1.2881,-1.2881,-1.2881,-1.2881,-1.2881,-1.2881,-1.2881,-1.2881,-1.2881,-1.2881,-1.2881,-1.2881,-1.2881,-1.2881,-1.2881,-1.2881,-1.2881,-1.2881,-1.2881,-1.2881,-1.2881,-1.2881,-1.2881,-1.2881,-1.2881,-1.2881,-1.5769,-1.5799,-1.5799,-1.5799,-1.5799,-1.5668,-1.5329,-1.4814,-1.4406,-1.4052,-1.3547,-1.3198,-1.3198,-1.3198,-1.3198,-1.3198,-1.4237,-1.5142,-1.5655,-1.6208,-1.6522,-1.6522,-1.6522,-1.6522,-1.6522,-1.6522,-1.6151,-1.541,-1.4926,-1.4329,-1.36,-1.3104,-1.2881,-1.2881,-1.2881,-1.2881,-1.2881,-1.2881,-1.2881,-1.2881,-1.2881,-1.2881,-1.2881,-1.2881,-1.2881,-1.2881,-1.2881,-1.2881,-1.2822,-1.2236,-1.203,-1.1832,-1.0618,-1.021,-1.0115,-0.9413,-0.9211,-0.9211,-0.9061,-0.9008,-0.8956,-0.8857,-0.891,-0.8956,-0.8857,-0.891,-0.8956,-0.8804,-0.8804,-0.8791,-0.8724,-0.8862,-0.904,-0.912,-0.9769,-1.0269,-1.0474,-1.0922,-1.1275,-1.1275,-1.1275,-1.1275,-1.1275,-1.1724,-1.2295,-1.2881,-1.2881,-1.2881,-1.2881,-1.2881,-1.2881,-1.2881,-1.2881,-1.2881,-1.2881,-1.2881,-1.2881,-1.2881,-1.2881,-1.2881,-1.2881,-1.2881,-1.2881,-1.2881,-1.2881,-1.2881,-1.2881,-1.2881,-1.2881,-1.2881,-1.2881,-1.2881,-1.2881,-1.2881,-1.2881,-1.2881,-1.5856,-1.5926,-1.5983,-1.5827,-1.5799,-1.5639,-1.5165,-1.4752,-1.4374,-1.3967,-1.348,-1.3198,-1.3198,-1.3198,-1.3411,-1.3961,-1.4538,-1.5255,-1.6032,-1.6358,-1.6522,-1.6522,-1.6522,-1.638,-1.6095,-1.6051,-1.5776,-1.5186,-1.456,-1.3967,-1.3372,-1.3065,-1.2881,-1.2881,-1.2881,-1.2881,-1.2881,-1.2881,-1.2881,-1.2881,-1.2881,-1.2881,-1.2881,-1.2881,-1.2881,-1.2881,-1.2881,-1.2666,-1.2344,-1.1922,-1.1566,-1.1166,-1.0115,-0.9814,-0.9666,-0.9008,-0.8804,-0.8804,-0.8804,-0.8804,-0.8804,-0.8804,-0.8804,-0.8804,-0.8804,-0.8804,-0.8804,-0.8804,-0.8804,-0.8804,-0.8804,-0.9061,-0.9256,-0.9256,-0.9865,-1.0261,-1.0261,-1.0568,-1.0813,-1.0813,-1.0813,-1.0813,-1.0813,-1.1116,-1.1475,-1.1891,-1.19,-1.19,-1.19,-1.19,-1.19,-1.19,-1.2197,-1.2393,-1.2393,-1.2715,-1.2881,-1.2881,-1.2881,-1.2881,-1.2881,-1.2881,-1.2881,-1.2881,-1.2881,-1.2881,-1.2881,-1.2881,-1.2881,-1.2881,-1.2881,-1.2881,-1.2881,-1.2881,-1.2881,-1.2881,-1.6067,-1.608,-1.6136,-1.5856,-1.5799,-1.5668,-1.5285,-1.4814,-1.4342,-1.3835,-1.3459,-1.3198,-1.3198,-1.3198,-1.3561,-1.4513,-1.4802,-1.5341,-1.6446,-1.6522,-1.6522,-1.6522,-1.6522,-1.6238,-1.5632,-1.5499,-1.5141,-1.456,-1.405,-1.3505,-1.2881,-1.2881,-1.2881,-1.2881,-1.2881,-1.2881,-1.2881,-1.2881,-1.2881,-1.2881,-1.2881,-1.2881,-1.2881,-1.2881,-1.2881,-1.2881,-1.2881,-1.2452,-1.1765,-1.1566,-1.1065,-1.0517,-0.9865,-0.9614,-0.951,-0.8956,-0.8804,-0.8804,-0.8804,-0.8804,-0.8804,-0.8804,-0.8804,-0.8804,-0.8804,-0.8804,-0.8804,-0.8804,-0.8804,-0.8804,-0.8804,-0.9263,-0.9614,-0.9614,-1.0115,-1.0466,-1.0466,-1.0466,-1.0466,-1.0466,-1.0466,-1.0517,-1.0618,-1.0618,-1.0661,-1.0813,-1.0813,-1.0813,-1.0813,-1.0813,-1.0864,-1.0965,-1.1516,-1.1864,-1.1972,-1.2608,-1.2881,-1.2881,-1.2881,-1.2881,-1.2881,-1.2881,-1.2881,-1.2881,-1.2881,-1.2881,-1.2881,-1.2881,-1.2881,-1.2881,-1.2881,-1.2881,-1.2881,-1.2881,-1.2881,-1.2881,-1.6581,-1.6246,-1.5856,-1.5799,-1.5799,-1.577,-1.5712,-1.5013,-1.4214,-1.3391,-1.3232,-1.3198,-1.3198,-1.3198,-1.3261,-1.3411,-1.4325,-1.5341,-1.6446,-1.6522,-1.6522,-1.6522,-1.6522,-1.6238,-1.5632,-1.5107,-1.4514,-1.3909,-1.3815,-1.3505,-1.2881,-1.2881,-1.2881,-1.2881,-1.2881,-1.2881,-1.2881,-1.2881,-1.2881,-1.2881,-1.2881,-1.2881,-1.2881,-1.2881,-1.2881,-1.2881,-1.2881,-1.2452,-1.1616,-1.0466,-1.0012,-0.9814,-0.9159,-0.8956,-0.891,-0.8804,-0.8804,-0.8804,-0.8804,-0.8804,-0.8804,-0.8804,-0.8804,-0.8804,-0.8804,-0.8804,-0.8804,-0.8804,-0.8804,-0.8804,-0.8804,-0.8857,-0.8956,-0.8956,-0.9008,-0.9061,-0.9061,-0.9061,-0.9061,-0.9061,-0.9061,-0.9309,-0.9865,-0.9909,-1.0167,-1.0762,-1.0813,-1.0813,-1.0813,-1.0813,-1.1065,-1.1665,-1.1765,-1.2129,-1.2725,-1.2832,-1.2881,-1.2881,-1.2881,-1.2881,-1.2881,-1.2881,-1.2881,-1.2881,-1.2881,-1.2881,-1.2881,-1.2881,-1.2881,-1.2881,-1.2881,-1.2881,-1.2881,-1.2881,-1.2881,-1.2881,-1.6815,-1.685,-1.6696,-1.5926,-1.5799,-1.5799,-1.5799,-1.5074,-1.4181,-1.3288,-1.3772,-1.4149,-1.4149,-1.4149,-1.4149,-1.4149,-1.4588,-1.5341,-1.6446,-1.6522,-1.6337,-1.6008,-1.6008,-1.5555,-1.4641,-1.4318,-1.392,-1.3286,-1.3286,-1.3152,-1.2881,-1.2881,-1.2881,-1.2881,-1.2881,-1.2881,-1.2881,-1.2881,-1.2881,-1.2881,-1.2881,-1.2881,-1.2881,-1.2881,-1.2881,-1.2832,-1.2452,-1.1832,-1.1116,-1.0115,-0.9562,-0.9211,-0.891,-0.8804,-0.8804,-0.8804,-0.8804,-0.8804,-0.8804,-0.8804,-0.8804,-0.8804,-0.8804,-0.8804,-0.8804,-0.8804,-0.8804,-0.8804,-0.8804,-0.8804,-0.8804,-0.8804,-0.8804,-0.8804,-0.8804,-0.8804,-0.8804,-0.8804,-0.8804,-0.8804,-0.8804,-0.891,-0.9211,-0.9263,-0.9361,-0.9666,-0.9666,-0.9666,-0.9666,-0.9666,-0.9814,-1.0115,-1.0864,-1.1425,-1.1742,-1.252,-1.2881,-1.2881,-1.2881,-1.2881,-1.2881,-1.2881,-1.2881,-1.2881,-1.2881,-1.2881,-1.2881,-1.2881,-1.2881,-1.2881,-1.2881,-1.2881,-1.2881,-1.2881,-1.2881,-1.2881]},{"header":{"parameterUnit":"m.s-1","parameterCategory":1,"la1":30.6,"la2":28.766,"lo1":-90.7593,"lo2":-88.6598,"dy":0.0162,"dx":0.0183,"nx":116,"ny":114,"refTime":"2023-10-21T06:00:00:Z","depth":0,"parameterNumber":3,"parameterNumberName":"V-component_of_WINDS"},"data":[0.0,0.0,0.0,0.0,0.0,0.0,0.0,0.0,0.0,0.0,0.0,0.0,0.0,0.0,0.0,0.0,0.0,0.0,0.0,0.0,0.0,0.0,0.0,0.0,0.0,0.0,0.0,0.0,0.0,0.0,0.0,0.0,0.0,0.0,0.0,0.0,0.0,0.0,0.0,0.0,0.0,0.0,0.0,0.0,0.0,0.0,0.0,0.0,0.0,0.0,0.0,0.0,0.0,0.0,0.0,0.0,0.0,0.0,0.0,0.0,0.0,0.0,0.0,0.0,0.0,0.0,0.0,0.0,0.0,0.0,0.0,0.0,0.0,0.0,0.0,0.0,0.0,0.0,0.0,0.0,0.0,0.0,0.0,0.0,0.0,0.0,0.0,0.0,0.0,0.0,0.0,0.0,0.0,0.0,0.0,0.0,0.0,0.0,0.0,0.0,0.0,0.0,0.0,0.0,0.0,0.0,0.0,0.0,0.0,0.0,0.0,0.0,0.0,0.0,0.0,0.0,0.0,0.0,0.0,0.0,0.0,0.0,0.0,0.0,0.0,0.0,0.0,0.0,0.0,0.0,0.0,0.0,0.0,0.0,0.0,0.0,0.0,0.0,0.0,0.0,0.0,0.0,0.0,0.0,0.0,0.0,0.0,0.0,0.0,0.0,0.0,0.0,0.0,0.0,0.0,0.0,0.0,0.0,0.0,0.0,0.0,0.0,0.0,0.0,0.0,0.0,0.0,0.0,0.0,0.0,0.0,0.0,0.0,0.0,0.0,0.0,0.0,0.0,0.0,0.0,0.0,0.0,0.0,0.0,0.0,0.0,0.0,0.0,0.0,0.0,0.0,0.0,0.0,0.0,0.0,0.0,0.0,0.0,0.0,0.0,0.0,0.0,0.0,0.0,0.0,0.0,0.0,0.0,0.0,0.0,0.0,0.0,0.0,0.0,0.0,0.0,0.0,0.0,0.0,0.0,0.0,0.0,0.0,0.0,0.0,0.0,0.0,0.0,0.0,0.0,0.0,0.0,0.0,0.0,0.0,0.0,0.0,0.0,0.0,0.0,0.0,0.0,0.0,0.0,0.0,0.0,0.0,0.0,0.0,0.0,0.0,0.0,0.0,0.0,0.0,0.0,0.0,0.0,0.0,0.0,0.0,0.0,0.0,0.0,0.0,0.0,0.0,0.0,0.0,0.0,0.0,0.0,0.0,0.0,0.0,0.0,0.0,0.0,0.0,0.0,0.0,0.0,0.0,0.0,0.0,0.0,0.0,0.0,0.0,0.0,0.0,0.0,0.0,0.0,0.0,0.0,0.0,0.0,0.0,0.0,0.0,0.0,0.0,0.0,0.0,0.0,0.0,0.0,0.0,0.0,0.0,0.0,0.0,0.0,0.0,0.0,0.0,0.0,0.0,0.0,0.0,0.0,0.0,0.0,0.0,0.0,0.0,0.0,0.0,0.0,0.0,0.0,0.0,0.0,0.0,0.0,0.0,0.0,0.0,0.0,0.0,0.0,0.0,0.0,0.0,0.0,0.0,0.0,0.0,0.0,0.0,0.0,0.0,0.0,0.0,0.0,0.0,0.0,0.0,0.0,0.0,0.0,0.0,0.0,0.0,0.0,0.0,0.0,0.0,0.0,0.0,0.0,0.0,0.0,0.0,0.0,0.0,0.0,0.0,0.0,0.0,0.0,0.0,0.0,0.0,0.0,0.0,0.0,0.0,0.0,0.0,0.0,0.0,0.0,0.0,0.0,0.0,0.0,0.0,0.0,0.0,0.0,0.0,0.0,0.0,0.0,0.0,0.0,0.0,0.0,0.0,0.0,0.0,0.0,0.0,0.0,0.0,0.0,0.0,0.0,0.0,0.0,0.0,0.0,0.0,0.0,0.0,0.0,0.0,0.0,0.0,0.0,0.0,0.0,0.0,0.0,0.0,0.0,0.0,0.0,0.0,0.0,0.0,0.0,0.0,0.0,0.0,0.0,0.0,0.0,0.0,0.0,0.0,0.0,0.0,0.0,0.0,0.0,0.0,0.0,0.0,0.0,0.0,0.0,0.0,0.0,0.0,0.0,0.0,0.0,0.0,0.0,0.0,0.0,0.0,0.0,0.0,0.0,0.0,0.0,0.0,0.0,0.0,0.0,0.0,0.0,0.0,0.0,0.0,0.0,0.0,0.0,0.0,0.0,0.0,0.0,0.0,0.0,0.0,0.0,0.0,0.0,0.0,0.0,0.0,0.0,0.0,0.0,0.0,0.0,0.0,0.0,0.0,0.0,0.0,0.0,0.0,0.0,0.0,0.0,0.0,0.0,0.0,0.0,0.0,0.0,0.0,0.0,0.0,0.0,0.0,0.0,0.0,0.0,0.0,0.0,0.0,0.0,0.0,0.0,0.0,0.0,0.0,0.0,0.0,0.0,0.0,0.0,0.0,0.0,0.0,0.0,0.0,0.0,0.0,0.0,0.0,0.0,0.0,0.0,0.0,0.0,0.0,0.0,0.0,0.0,0.0,0.0,0.0,0.0,0.0,0.0,0.0,0.0,0.0,0.0,0.0,0.0,0.0,0.0,0.0,0.0,0.0,0.0,0.0,0.0,0.0,0.0,0.0,0.0,0.0,0.0,0.0,0.0,0.0,0.0,0.0,0.0,0.0,0.0,0.0,0.0,0.0,0.0,0.0,0.0,0.0,0.0,0.0,0.0,0.0,0.0,0.0,0.0,0.0,0.0,0.0,0.0,0.0,0.0,0.0,0.0,0.0,0.0,0.0,0.0,0.0,0.0,0.0,0.0,0.0,0.0,0.0,0.0,0.0,0.0,0.0,0.0,0.0,0.0,0.0,0.0,0.0,0.0,0.0,0.0,0.0,0.0,0.0,0.0,0.0,0.0,0.0,0.0,0.0,0.0,0.0,0.0,0.0,0.0,0.0,0.0,0.0,0.0,0.0,0.0,0.0,0.0,0.0,0.0,0.0,0.0,0.0,0.0,0.0,0.0,0.0,0.0,0.0,0.0,0.0,0.0,0.0,0.0,0.0,0.0,0.0,0.0,0.0,0.0,0.0,0.0,0.0,0.0,0.0,0.0,0.0,0.0,0.0,0.0,0.0,0.0,0.0,0.0,0.0,0.0,0.0,0.0,0.0,0.0,0.0,0.0,0.0,0.0,0.0,0.0,0.0,0.0,0.0,0.0,0.0,0.0,0.0,0.0,0.0,0.0,0.0,0.0,0.0,0.0,0.0,0.0,0.0,0.0,0.0,0.0,0.0,0.0,0.0,0.0,0.0,0.0,0.0,0.0,0.0,0.0,0.0,0.0,0.0,0.0,0.0,0.0,0.0,0.0,0.0,0.0,0.0,0.0,0.0,0.0,0.0,0.0,0.0,0.0,0.0,0.0,0.0,0.0,0.0,0.0,0.0,0.0,0.0,0.0,0.0,0.0,0.0,0.0,0.0,0.0,0.0,0.0,0.0,0.0,0.0,0.0,0.0,0.0,0.0,0.0,0.0,0.0,0.0,0.0,0.0,0.0,0.0,0.0,0.0,0.0,0.0,0.0,0.0,0.0,0.0,0.0,0.0,0.0,0.0,0.0,0.0,0.0,0.0,0.0,0.0,0.0,0.0,0.0,0.0,0.0,0.0,0.0,0.0,0.0,0.0,0.0,0.0,0.0,0.0,0.0,0.0,0.0,0.0,0.0,0.0,0.0,0.0,0.0,0.0,0.0,0.0,0.0,0.0,0.0,0.0,0.0,0.0,0.0,0.0,0.0,0.0,0.0,0.0,0.0,0.0,0.0,0.0,0.0,0.0,0.0,0.0,0.0,0.0,0.0,0.0,0.0,0.0,0.0,0.0,0.0,0.0,0.0,0.0,0.0,0.0,0.0,0.0,0.0,0.0,0.0,0.0,0.0,0.0,0.0,0.0,0.0,0.0,0.0,0.0,0.0,0.0,0.0,0.0,0.0,0.0,0.0,0.0,0.0,0.0,0.0,0.0,0.0,0.0,0.0,0.0,0.0,0.0,0.0,0.0,0.0,0.0,0.0,0.0,0.0,0.0,0.0,0.0,0.0,0.0,0.0,0.0,0.0,0.0,0.0,0.0,0.0,0.0,0.0,0.0,0.0,0.0,0.0,0.0,0.0,0.0,0.0,0.0,0.0,0.0,0.0,0.0,0.0,0.0,0.0,0.0,0.0,0.0,0.0,0.0,0.0,0.0,0.0,0.0,0.0,0.0,0.0,0.0,0.0,0.0,0.0,0.0,0.0,0.0,0.0,0.0,0.0,0.0,0.0,0.0,0.0,0.0,0.0,0.0,0.0,0.0,0.0,0.0,0.0,0.0,0.0,0.0,0.0,0.0,0.0,0.0,0.0,0.0,0.0,0.0,0.0,0.0,0.0,0.0,0.0,0.0,0.0,0.0,0.0,0.0,0.0,0.0,0.0,0.0,0.0,0.0,0.0,0.0,0.0,0.0,0.0,0.0,0.0,0.0,0.0,0.0,0.0,0.0,0.0,0.0,0.0,0.0,0.0,0.0,0.0,0.0,0.0,0.0,0.0,0.0,0.0,0.0,0.0,0.0,0.0,0.0,0.0,0.0,0.0,0.0,0.0,0.0,0.0,0.0,0.0,0.0,0.0,0.0,0.0,0.0,0.0,0.0,0.0,0.0,0.0,0.0,0.0,0.0,0.0,0.0,0.0,0.0,0.0,0.0,0.0,0.0,0.0,0.0,0.0,0.0,0.0,0.0,0.0,0.0,0.0,0.0,0.0,0.0,0.0,0.0,0.0,0.0,0.0,0.0,0.0,0.0,0.0,0.0,0.0,0.0,0.0,0.0,0.0,0.0,0.0,0.0,0.0,0.0,0.0,0.0,0.0,0.0,0.0,0.0,0.0,0.0,0.0,0.0,0.0,0.0,0.0,0.0,0.0,0.0,0.0,0.0,0.0,0.0,0.0,0.0,0.0,0.0,0.0,0.0,0.0,0.0,0.0,0.0,0.0,0.0,0.0,0.0,0.0,0.0,0.0,0.0,0.0,0.0,0.0,0.0,0.0,0.0,0.0,0.0,0.0,0.0,0.0,0.0,0.0,0.0,0.0,0.0,0.0,0.0,0.0,0.0,0.0,0.0,0.0,0.0,0.0,0.0,0.0,0.0,0.0,0.0,0.0,0.0,0.0,0.0,0.0,0.0,0.0,0.0,0.0,0.0,0.0,0.0,0.0,0.0,0.0,0.0,0.0,0.0,0.0,0.0,0.0,0.0,0.0,0.0,0.0,0.0,0.0,0.0,0.0,0.0,0.0,0.0,0.0,0.0,0.0,0.0,0.0,0.0,0.0,0.0,0.0,0.0,0.0,0.0,0.0,0.0,0.0,0.0,0.0,0.0,0.0,0.0,0.0,0.0,0.0,0.0,0.0,0.0,0.0,0.0,0.0,0.0,0.0,0.0,0.0,0.0,0.0,0.0,0.0,0.0,0.0,0.0,0.0,0.0,0.0,0.0,0.0,0.0,0.0,0.0,0.0,0.0,0.0,0.0,0.0,0.0,0.0,0.0,0.0,0.0,0.0,0.0,0.0,0.0,0.0,0.0,0.0,0.0,0.0,0.0,0.0,0.0,0.0,0.0,0.0,0.0,0.0,0.0,0.0,0.0,0.0,0.0,0.0,0.0,0.0,0.0,0.0,0.0,0.0,0.0,0.0,0.0,0.0,0.0,0.0,0.0,0.0,0.0,0.0,0.0,0.0,0.0,0.0,0.0,0.0,0.0,0.0,0.0,0.0,0.0,0.0,0.0,0.0,0.0,0.0,0.0,0.0,0.0,0.0,0.0,0.0,0.0,0.0,0.0,0.0,0.0,0.0,0.0,0.0,0.0,0.0,0.0,0.0,0.0,0.0,0.0,0.0,0.0,0.0,0.0,0.0,0.0,0.0,0.0,0.0,0.0,0.0,0.0,0.0,0.0,0.0,0.0,0.0,0.0,0.0,0.0,0.0,0.0,0.0,0.0,0.0,0.0,0.0,0.0,0.0,0.0,0.0,0.0,0.0,0.0,0.0,0.0,0.0,0.0,0.0,0.0,0.0,0.0,0.0,0.0,0.0,0.0,0.0,0.0,0.0,-1.2502,-1.1593,0.0,0.0,0.0,0.0,0.0,0.0,0.0,0.0,0.0,0.0,0.0,0.0,0.0,0.0,0.0,0.0,0.0,0.0,0.0,0.0,0.0,0.0,0.0,0.0,0.0,0.0,0.0,0.0,0.0,0.0,0.0,0.0,0.0,0.0,0.0,0.0,0.0,0.0,0.0,0.0,0.0,0.0,0.0,0.0,0.0,0.0,0.0,0.0,0.0,0.0,0.0,0.0,0.0,0.0,0.0,0.0,0.0,0.0,0.0,0.0,0.0,0.0,0.0,0.0,0.0,0.0,0.0,0.0,0.0,0.0,0.0,0.0,0.0,0.0,0.0,0.0,0.0,0.0,0.0,0.0,0.0,0.0,0.0,0.0,0.0,0.0,0.0,0.0,0.0,0.0,0.0,0.0,0.0,0.0,0.0,0.0,0.0,0.0,0.0,0.0,0.0,0.0,0.0,0.0,0.0,0.0,0.0,0.0,0.0,0.0,0.0,0.0,0.0,0.0,-1.3451,-1.2671,0.0,0.0,0.0,0.0,0.0,0.0,0.0,0.0,0.0,0.0,0.0,0.0,0.0,0.0,0.0,0.0,0.0,0.0,0.0,0.0,0.0,0.0,0.0,0.0,0.0,0.0,0.0,0.0,0.0,0.0,0.0,0.0,0.0,0.0,0.0,0.0,0.0,0.0,0.0,0.0,0.0,0.0,0.0,0.0,0.0,0.0,0.0,0.0,0.0,0.0,0.0,0.0,0.0,0.0,0.0,0.0,0.0,0.0,0.0,0.0,0.0,0.0,0.0,0.0,0.0,0.0,0.0,0.0,0.0,0.0,0.0,0.0,0.0,0.0,0.0,0.0,0.0,0.0,0.0,0.0,0.0,0.0,0.0,0.0,0.0,0.0,0.0,0.0,0.0,0.0,0.0,0.0,0.0,0.0,0.0,0.0,0.0,0.0,0.0,0.0,0.0,0.0,0.0,0.0,0.0,0.0,0.0,0.0,-1.4854,-1.5334,-1.6166,-1.6084,-1.6132,-1.6191,-1.4681,-1.4118,-1.4227,-1.3515,0.0,0.0,0.0,0.0,0.0,0.0,0.0,0.0,0.0,0.0,0.0,0.0,0.0,0.0,0.0,0.0,0.0,0.0,0.0,0.0,0.0,0.0,0.0,0.0,0.0,0.0,0.0,0.0,0.0,0.0,0.0,0.0,0.0,0.0,0.0,0.0,0.0,0.0,-1.3231,-1.5158,-1.6551,-1.727,0.0,0.0,0.0,0.0,0.0,0.0,0.0,0.0,0.0,0.0,0.0,0.0,0.0,0.0,0.0,0.0,0.0,0.0,0.0,0.0,0.0,0.0,0.0,0.0,0.0,0.0,0.0,0.0,0.0,0.0,0.0,0.0,0.0,0.0,0.0,0.0,0.0,0.0,0.0,0.0,0.0,0.0,0.0,0.0,-0.6829,-0.8847,0.0,0.0,0.0,0.0,0.0,0.0,0.0,0.0,0.0,0.0,0.0,0.0,0.0,-1.5564,-1.7031,-1.6456,-1.6923,-1.8414,-1.8417,-1.8843,-1.9626,-1.8932,-1.9023,-1.9607,-1.7152,0.0,-1.6215,-1.6109,0.0,0.0,0.0,0.0,0.0,0.0,0.0,0.0,0.0,0.0,0.0,0.0,0.0,0.0,0.0,0.0,0.0,0.0,0.0,0.0,0.0,0.0,0.0,0.0,0.0,0.0,0.0,0.0,0.0,0.0,0.0,0.0,0.0,0.0,0.0,0.0,-1.3001,-1.443,-1.5875,-1.6842,-1.8117,-1.9477,-1.765,-1.575,-1.3863,-1.3415,0.0,0.0,0.0,0.0,0.0,0.0,0.0,0.0,0.0,0.0,0.0,0.0,0.0,0.0,0.0,0.0,0.0,0.0,0.0,0.0,0.0,0.0,0.0,0.0,0.0,0.0,0.0,0.0,0.0,0.0,0.0,0.0,0.0,0.0,0.0,0.0,0.0,0.0,0.0,-0.8605,-1.1338,-1.3238,-1.2766,-1.2345,0.0,0.0,0.0,0.0,0.0,0.0,0.0,0.0,0.0,-1.5465,-1.5877,-1.6638,-1.7823,-1.7497,-1.7927,-1.9112,-1.9594,-2.0211,-2.0915,-2.1063,-2.1264,-2.1474,-2.0316,-1.9532,-1.8982,-1.7774,-1.6728,-1.5883,0.0,0.0,0.0,0.0,-1.4115,-1.4128,0.0,0.0,0.0,0.0,0.0,0.0,0.0,0.0,0.0,0.0,0.0,0.0,0.0,0.0,0.0,-0.9117,0.0,0.0,0.0,0.0,0.0,0.0,0.0,0.0,0.0,0.0,0.0,0.0,-1.4826,-1.6362,-1.8677,-1.8888,-1.9812,-2.1254,-2.1067,-1.918,-1.6168,-1.5929,-1.4428,0.0,0.0,0.0,0.0,0.0,0.0,0.0,0.0,0.0,0.0,0.0,0.0,0.0,0.0,0.0,0.0,0.0,0.0,0.0,0.0,0.0,0.0,0.0,0.0,0.0,0.0,0.0,0.0,0.0,0.0,0.0,0.0,0.0,0.0,0.0,0.0,0.0,0.0,-1.0683,-1.3978,-1.5689,-1.535,-1.5032,0.0,0.0,0.0,0.0,0.0,0.0,-1.5951,-1.561,-1.6049,-1.7532,-1.7998,-1.842,-1.8794,-1.8962,-1.9375,-2.0005,-2.0833,-2.1467,-2.1952,-2.2609,-2.2821,-2.2674,-2.2453,-2.1952,-2.1181,-1.9601,-1.7957,-1.654,-1.7795,-1.713,-1.5511,-1.5964,-1.6221,-1.6447,0.0,0.0,0.0,0.0,0.0,0.0,0.0,0.0,0.0,0.0,0.0,0.0,0.0,0.0,-1.195,-1.1983,-1.2219,-1.2183,0.0,0.0,0.0,0.0,0.0,0.0,0.0,0.0,0.0,-1.4945,-1.7488,-1.9619,-2.1331,-2.2158,-2.3032,-2.3879,-2.3102,-2.1282,-1.8745,-1.7937,-1.6957,-1.5768,0.0,0.0,0.0,0.0,0.0,0.0,0.0,0.0,0.0,0.0,0.0,0.0,0.0,0.0,0.0,0.0,0.0,0.0,0.0,0.0,0.0,0.0,0.0,0.0,0.0,0.0,0.0,0.0,0.0,0.0,0.0,0.0,0.0,0.0,0.0,0.0,0.0,0.0,0.0,-1.281,-1.565,0.0,0.0,0.0,0.0,-1.5278,-1.5213,-1.5955,-1.7592,-1.8418,-1.9269,-2.0173,-2.1816,-2.2312,-2.1507,-2.2137,-2.2445,-2.2436,-2.3112,-2.3427,-2.339,-2.3441,-2.346,-2.3404,-2.2566,-2.2176,-2.2144,-2.2092,-2.1054,-1.9491,-1.9581,-1.9531,-1.9331,-1.8587,-1.8819,-1.9482,0.0,0.0,0.0,0.0,0.0,0.0,0.0,0.0,0.0,0.0,0.0,0.0,0.0,-1.1758,-1.2824,-1.2834,-1.4042,-1.3834,-1.1546,0.0,0.0,0.0,0.0,0.0,0.0,0.0,-1.4429,-1.6732,-1.8816,-2.0696,-2.235,-2.3225,-2.4082,-2.487,-2.4572,-2.3631,-2.2192,-2.0848,-1.9053,-1.6984,-1.5188,-1.3337,0.0,0.0,0.0,0.0,0.0,0.0,0.0,0.0,0.0,0.0,0.0,0.0,0.0,0.0,0.0,0.0,0.0,0.0,0.0,0.0,0.0,0.0,0.0,0.0,0.0,0.0,0.0,0.0,0.0,0.0,0.0,0.0,0.0,0.0,0.0,0.0,0.0,-1.6522,-1.7812,0.0,-1.8487,-1.9046,-1.9182,-1.862,-1.9066,-1.989,-2.1074,-2.0786,-2.1024,-2.1987,-2.2364,-2.2438,-2.2218,-2.2306,-2.2373,-2.2356,-2.314,-2.3461,-2.3329,-2.3883,-2.4081,-2.3929,-2.3615,-2.3486,-2.3487,-2.3509,-2.2346,-2.059,-2.111,-2.0984,-2.0558,-2.0796,-2.1059,-2.1309,0.0,0.0,0.0,0.0,0.0,0.0,0.0,0.0,0.0,0.0,0.0,-1.0438,-1.1559,-1.3168,-1.4169,-1.4169,-1.5151,-1.4705,-1.2232,0.0,0.0,0.0,0.0,0.0,0.0,-1.4413,-1.6225,-1.8581,-2.06,-2.2293,-2.3658,-2.4235,-2.4793,-2.5303,-2.5303,-2.5005,-2.4428,-2.3088,-2.1139,-1.8854,-1.748,-1.5147,-1.2342,0.0,0.0,0.0,0.0,0.0,0.0,0.0,0.0,0.0,0.0,0.0,0.0,0.0,0.0,0.0,0.0,0.0,0.0,0.0,0.0,0.0,0.0,0.0,0.0,0.0,0.0,0.0,0.0,0.0,0.0,0.0,0.0,0.0,0.0,-1.5676,-1.7555,-1.9237,-1.993,-2.0515,-2.1093,-2.1132,-2.1166,-2.1215,-2.1702,-2.2382,-2.3218,-2.2595,-2.2496,-2.3086,-2.3135,-2.3027,-2.2835,-2.2938,-2.2989,-2.2989,-2.349,-2.3675,-2.3561,-2.4152,-2.4248,-2.4054,-2.4151,-2.4074,-2.3876,-2.3996,-2.3125,-2.1777,-2.215,-2.1895,-2.1408,-2.1941,-2.2377,-2.2718,0.0,0.0,0.0,0.0,0.0,0.0,0.0,0.0,0.0,0.0,-0.9458,-1.1002,-1.3002,-1.4924,-1.6102,-1.6111,-1.5357,-1.4595,-1.4,-1.179,0.0,0.0,0.0,0.0,-1.2649,-1.5921,-1.852,-2.035,-2.2859,-2.4505,-2.5264,-2.5284,-2.5303,-2.5303,-2.5303,-2.5303,-2.5245,-2.4466,-2.3214,-2.1606,-1.9612,-1.7058,-1.4245,0.0,0.0,0.0,0.0,0.0,0.0,0.0,0.0,0.0,0.0,0.0,0.0,0.0,0.0,0.0,0.0,0.0,0.0,0.0,0.0,0.0,0.0,0.0,0.0,0.0,0.0,0.0,0.0,0.0,0.0,0.0,0.0,0.0,-1.6387,-1.8761,-2.0369,-2.0396,-2.185,-2.287,-2.2861,-2.2861,-2.2861,-2.2861,-2.2861,-2.3151,-2.3797,-2.3843,-2.3739,-2.3549,-2.4341,-2.4379,-2.3554,-2.4182,-2.4495,-2.4495,-2.4284,-2.419,-2.417,-2.417,-2.4014,-2.3728,-2.4052,-2.385,-2.3301,-2.3616,-2.3571,-2.3212,-2.2715,-2.2329,-2.2046,-2.2046,-2.2749,-2.3753,0.0,0.0,0.0,0.0,0.0,0.0,0.0,0.0,0.0,0.0,-0.9857,-1.1758,-1.3383,-1.4922,-1.6035,-1.6633,-1.4916,-1.3639,-1.3233,0.0,0.0,0.0,0.0,0.0,-1.5988,-1.763,-1.9369,-2.1177,-2.3148,-2.4206,-2.4428,-2.5024,-2.5303,-2.5303,-2.5303,-2.5303,-2.5284,-2.5063,-2.4379,-2.3283,-2.151,-1.9764,-1.8022,0.0,0.0,0.0,0.0,0.0,0.0,0.0,0.0,0.0,0.0,0.0,0.0,0.0,0.0,0.0,0.0,0.0,0.0,0.0,0.0,0.0,0.0,0.0,0.0,0.0,0.0,0.0,0.0,0.0,0.0,0.0,-1.785,-1.9388,-1.9208,-2.0331,-2.1575,-2.2698,-2.3758,-2.4354,-2.4271,-2.4258,-2.4258,-2.4258,-2.4258,-2.4327,-2.4515,-2.4392,-2.4362,-2.445,-2.4381,-2.4334,-2.4222,-2.4264,-2.4284,-2.4284,-2.4228,-2.4074,-2.3837,-2.3837,-2.3934,-2.4153,-2.4225,-2.4515,-2.4872,-2.4974,-2.4821,-2.4417,-2.3395,-2.2957,-2.2888,-2.2888,-2.3213,-2.3753,0.0,0.0,0.0,0.0,0.0,0.0,0.0,0.0,0.0,0.0,-1.0008,-1.1847,-1.319,-1.4373,-1.5262,-1.5736,-1.415,-1.2991,-1.2713,0.0,0.0,0.0,0.0,-1.5386,-1.7927,-1.9629,-2.1175,-2.2581,-2.3947,-2.4553,-2.4483,-2.4962,-2.5173,-2.5173,-2.5173,-2.5214,-2.5303,-2.5303,-2.5024,-2.4524,-2.3534,-2.1742,-1.9549,-1.8604,-1.7266,-1.5873,-1.547,-1.5347,-1.508,-1.3248,0.0,0.0,0.0,0.0,0.0,0.0,0.0,0.0,0.0,0.0,0.0,0.0,0.0,0.0,0.0,0.0,0.0,0.0,0.0,0.0,0.0,0.0,0.0,0.0,-2.0014,-2.2221,-2.3139,-2.3398,-2.3713,-2.4247,-2.4962,-2.5262,-2.4842,-2.4804,-2.4804,-2.4804,-2.4804,-2.476,-2.4685,-2.4559,-2.4459,-2.4352,-2.4116,-2.4057,-2.4174,-2.4057,-2.4074,-2.4208,-2.4363,-2.4203,-2.371,-2.4221,-2.4335,-2.4156,-2.4601,-2.4901,-2.509,-2.523,-2.509,-2.47,0.0,0.0,0.0,0.0,-2.3117,-2.3346,0.0,0.0,0.0,0.0,0.0,0.0,0.0,0.0,0.0,0.0,0.0,-1.1407,-1.2537,-1.3416,-1.3941,-1.4049,-1.3107,-1.2481,0.0,0.0,0.0,-1.3372,-1.5856,-1.7796,-1.9012,-2.1551,-2.3304,-2.4207,-2.4928,-2.5173,-2.501,-2.501,-2.5037,-2.5107,-2.5012,-2.518,-2.5501,-2.5425,-2.5425,-2.5501,-2.5501,-2.3443,-2.0329,-2.0295,-1.9122,-1.7461,-1.7475,-1.6971,-1.628,-1.6145,0.0,0.0,0.0,0.0,0.0,0.0,0.0,0.0,0.0,0.0,0.0,0.0,0.0,0.0,0.0,0.0,0.0,0.0,0.0,0.0,0.0,0.0,0.0,0.0,-2.1444,-2.4068,-2.7062,-2.692,-2.6184,-2.5317,-2.566,-2.569,-2.4938,-2.4787,-2.4731,-2.4731,-2.4697,-2.4604,-2.4425,-2.4355,0.0,0.0,0.0,-2.3692,-2.3692,-2.3692,-2.3816,-2.4074,-2.4526,-2.4338,-2.362,-2.4789,-2.4795,-2.3905,-2.4925,-2.5114,-2.4642,-2.5026,-2.4966,-2.4588,-2.4059,-2.3665,-2.335,-2.2875,-2.2721,-2.2848,0.0,0.0,0.0,0.0,0.0,0.0,0.0,0.0,0.0,-0.829,-0.9476,-1.0679,-1.1639,-1.2014,-1.2437,-1.3081,-1.2125,-1.1706,0.0,0.0,-1.3597,-1.4983,-1.694,-1.8796,-2.055,-2.2308,-2.3736,-2.4828,-2.4969,-2.5034,-2.501,-2.501,-2.5285,-2.5782,-2.513,-2.5565,-2.6775,-2.6128,-2.6242,-2.6832,-2.6832,-2.6072,-2.479,-2.3687,-2.3299,-2.3214,-2.2038,-2.1962,-2.2068,-1.9955,-1.9526,-1.9372,-1.6322,0.0,0.0,0.0,0.0,0.0,0.0,0.0,0.0,0.0,0.0,0.0,0.0,0.0,0.0,0.0,0.0,0.0,0.0,0.0,0.0,-2.1719,-2.4352,-2.6525,-2.7182,-2.7542,-2.7456,-2.6632,-2.6074,-2.5614,-2.53,-2.4691,-2.4321,-2.4321,-2.4059,-2.3903,-2.386,-2.3595,-2.3526,-2.3692,-2.3692,-2.3692,-2.3692,-2.3692,-2.3606,-2.3392,-2.4076,0.0,-2.2933,-2.3807,-2.3953,-2.3544,-2.4364,-2.4968,-2.5439,-2.6112,-2.5978,-2.5253,-2.399,-2.3451,-2.335,-2.2875,-2.2873,-2.3117,0.0,0.0,0.0,0.0,0.0,0.0,0.0,0.0,0.0,0.0,-0.889,-0.9938,-1.0801,-1.073,-1.0904,-1.1627,-1.0997,0.0,0.0,-1.2988,-1.4449,-1.6703,-1.8532,-2.0336,-2.2112,-2.3401,-2.4327,-2.4904,-2.4904,-2.485,-2.4747,-2.4747,-2.5145,-2.5824,-2.5429,-2.5984,-2.7175,-2.6761,-2.6836,-2.7213,-2.7213,-2.7194,-2.704,-2.6037,-2.5595,-2.5399,-2.467,-2.4136,-2.3595,-2.2251,-2.1791,-2.1434,-1.9625,-1.7592,-1.5735,0.0,0.0,0.0,0.0,0.0,0.0,0.0,0.0,0.0,0.0,0.0,0.0,0.0,0.0,-1.8364,-1.8395,0.0,-2.3236,-2.3693,-2.5929,-2.7791,-2.824,-2.8439,-2.8151,-2.7028,-2.6469,-2.5964,-2.5439,-2.4667,-2.4132,-2.3958,-2.3795,-2.3628,-2.3459,-2.33,-2.3189,-2.3189,-2.3189,-2.3383,-2.3802,-2.3802,-2.3996,-2.4343,-2.455,-2.4181,-2.3309,-2.4305,-2.4471,-2.4002,-2.5101,-2.5795,-2.6184,-2.6539,-2.6708,-2.6556,-2.5084,-2.4272,-2.3879,-2.3283,-2.3399,-2.3804,0.0,0.0,0.0,0.0,0.0,0.0,0.0,0.0,0.0,0.0,-0.8274,-0.9111,-0.9734,-0.943,-0.9439,0.0,0.0,0.0,0.0,-1.3648,-1.5538,-1.821,-2.0189,-2.1857,-2.3217,-2.4195,-2.47,-2.4746,-2.4746,-2.4748,-2.4737,-2.4737,-2.5224,-2.6098,-2.595,-2.6507,-2.7546,-2.7378,-2.7415,-2.7546,-2.7546,-2.7849,-2.8196,-2.7549,-2.6831,-2.6148,-2.6045,-2.4783,-2.3206,-2.3422,-2.2886,-2.2093,-2.198,-2.0407,-1.8423,-1.7435,-1.591,0.0,0.0,0.0,0.0,0.0,0.0,0.0,0.0,-1.8436,-1.8944,-2.035,-2.0734,-2.1004,-2.1596,-2.3252,-2.4774,-2.5494,-2.7117,-2.853,-2.9217,-2.9134,-2.8515,-2.7228,-2.6792,-2.6355,-2.5695,-2.4701,-2.3996,-2.3714,-2.3566,-2.3463,-2.3347,-2.3151,-2.301,-2.2937,-2.2782,-2.3007,-2.3655,-2.3811,-2.4301,-2.5084,-2.512,-2.4718,-2.4046,-2.5108,-2.5203,-2.4574,-2.5896,-2.6573,-2.6691,-2.6691,-2.7046,-2.7486,-2.6285,-2.5456,-2.4828,-2.3934,-2.4028,-2.4526,0.0,0.0,0.0,0.0,0.0,0.0,0.0,0.0,0.0,0.0,0.0,0.0,0.0,0.0,0.0,0.0,0.0,0.0,-1.2997,-1.4661,-1.6602,-1.9051,-2.1472,-2.2849,-2.3033,-2.3842,-2.4357,-2.4526,-2.4526,-2.4884,-2.5576,-2.5576,-2.6264,-2.7537,-2.682,-2.7353,-2.8736,-2.804,-2.815,-2.8791,-2.8791,-2.8823,-2.8801,-2.8018,-2.7355,-2.6729,-2.6188,-2.4272,-2.214,-2.3159,-2.2764,-2.1737,-2.1139,-2.022,-1.9066,-1.7401,-1.5747,-1.4288,-1.3676,-1.3516,-1.3731,-1.4529,-1.5203,-1.67,0.0,-2.214,-2.3385,-2.6015,-2.6986,-2.7198,-2.677,-2.7191,-2.7624,-2.7755,-2.8408,-2.8929,-2.9044,-2.9017,-2.8686,-2.7794,-2.7056,-2.6557,-2.6465,-2.4829,-2.3735,-2.3692,-2.3141,-2.311,-2.3805,-2.2939,-2.2815,-2.3742,-2.3076,-2.273,-2.2834,-2.3534,-2.3812,-2.3629,-2.4941,-2.5147,-2.4465,-2.5251,-2.5203,-2.4557,-2.5372,-2.6099,-2.6691,-2.6691,-2.6742,-2.681,-2.664,-2.6522,-2.6285,-2.4896,-2.4633,-2.489,0.0,0.0,0.0,0.0,0.0,0.0,0.0,0.0,0.0,0.0,0.0,0.0,0.0,0.0,0.0,0.0,0.0,0.0,-1.3194,-1.4773,-1.7123,-2.0592,-2.2208,-2.3235,-2.3694,-2.4025,-2.4247,-2.4339,-2.4339,-2.4727,-2.5522,-2.5522,-2.6329,-2.7787,-2.7438,-2.7934,-2.8975,-2.865,-2.8705,-2.8994,-2.8994,-2.8723,-2.8209,-2.742,-2.5988,-2.4393,-2.3989,-2.285,0.0,0.0,-2.024,-1.9843,-1.9693,-1.9073,-1.8273,-1.7617,-1.6563,-1.5687,-1.5986,-1.6481,-1.732,-1.9041,-1.9737,-2.096,-2.4739,-2.5836,-2.6727,-2.8995,-2.928,-2.9189,-2.9439,-2.9139,-2.902,-2.9485,-2.9252,-2.9093,-2.93,-2.8573,-2.7816,-2.7295,-2.6099,-2.5411,-2.5586,-2.4838,-2.4198,-2.3841,-2.3937,-2.4091,-2.4252,-2.382,-2.36,-2.3608,-2.3266,-2.3095,-2.3095,-2.3864,-2.439,-2.4695,-2.5321,-2.5439,-2.5152,-2.5456,-2.5676,-2.5795,-2.6099,-2.6657,-2.7317,-2.6877,-2.6945,-2.73,-2.686,-2.6691,-2.6573,-2.5524,-2.5484,-2.5917,0.0,0.0,0.0,0.0,0.0,0.0,0.0,0.0,0.0,0.0,0.0,0.0,0.0,0.0,0.0,0.0,0.0,0.0,0.0,-1.4317,-1.6989,-2.0889,-2.2228,-2.3308,-2.4171,-2.419,-2.419,-2.419,-2.419,-2.4722,-2.5713,-2.5713,-2.6576,-2.8136,-2.8136,-2.8576,-2.9305,-2.9085,-2.8994,-2.8975,-2.8778,-2.8062,-2.7016,-2.5947,-2.414,-2.2161,-2.2006,-2.0952,0.0,0.0,-1.7675,-1.7324,-1.7595,-1.7452,-1.713,-1.6859,-1.6352,-1.6207,-1.7639,-1.8694,-2.0058,-2.2923,-2.3823,-2.4818,-2.7948,-2.886,-2.9405,-3.0844,-3.0581,-3.0168,-3.0434,-2.9827,-2.94,-2.9771,-2.9269,-2.8877,-2.8941,-2.7926,-2.691,-2.6224,-2.5108,-2.436,-2.429,-2.4438,-2.4385,-2.3925,-2.4505,-2.4846,-2.4811,-2.4625,-2.434,-2.4019,-2.3799,-2.3697,-2.3697,-2.4425,-2.5067,-2.5609,-2.5812,-2.5913,-2.5913,-2.5913,-2.6184,-2.6691,-2.6691,-2.7131,-2.7739,-2.7232,-2.7452,-2.8095,-2.7537,-2.7199,-2.6945,-2.642,-2.642,-2.6623,0.0,0.0,0.0,0.0,0.0,0.0,0.0,0.0,0.0,0.0,0.0,0.0,0.0,0.0,0.0,0.0,0.0,0.0,0.0,-1.3218,-1.6003,-1.9059,-2.1388,-2.3117,-2.419,-2.419,-2.419,-2.419,-2.419,-2.5016,-2.6557,-2.6557,-2.7438,-2.8957,-2.8957,-2.942,-3.0118,-2.9347,-2.8994,-2.892,-2.8154,-2.6888,-2.5291,-2.3502,-2.1994,-2.0873,-2.1006,0.0,0.0,0.0,-1.5678,-1.4303,-1.4776,-1.5482,0.0,-1.4592,-1.4278,-1.4919,-1.7435,-1.8694,-2.0266,-2.4319,-2.5917,-2.7126,-2.9567,-3.0748,-3.1396,-3.17,-3.1538,-3.0959,-2.9675,-2.9206,-2.876,-2.8011,-2.8173,-2.8175,-2.7483,-2.7056,-2.6233,-2.4647,-2.4417,-2.3957,-2.2876,-2.3484,-2.3925,-2.3898,-2.4291,-2.4828,-2.5541,-2.4881,-2.4814,-2.5524,-2.4831,-2.4472,-2.4472,-2.5203,-2.5592,-2.5609,-2.6319,-2.6657,-2.6657,-2.6657,-2.6674,-2.6691,-2.6691,-2.7131,-2.7789,-2.7755,-2.8247,-2.8941,-2.8924,-2.845,-2.7755,-2.7722,-2.73,-2.6691,0.0,0.0,0.0,0.0,0.0,0.0,0.0,0.0,0.0,0.0,0.0,0.0,0.0,0.0,0.0,0.0,0.0,0.0,0.0,-1.2583,-1.4579,-1.6302,-1.9219,-2.0979,-2.1327,-2.2314,-2.3148,-2.3876,-2.3876,-2.4543,-2.5786,-2.5786,-2.6374,-2.7438,-2.797,-2.8356,-2.8594,-2.8319,-2.8209,-2.8044,-2.603,-2.4348,-2.2818,-2.0421,-1.8301,-1.6496,0.0,0.0,0.0,0.0,-1.2403,-1.1808,-1.2656,-1.3174,-1.3714,-1.5092,-1.6091,-1.7289,-1.9746,-2.1861,-2.3933,-2.6395,-2.7989,-2.9347,-3.0687,-3.1201,-3.1268,-3.083,-2.9292,-2.773,-2.6725,-2.5095,-2.4514,-2.6476,-2.6504,-2.6796,-2.8309,-2.7539,-2.6222,-2.4643,-2.4483,-2.4116,-2.3238,-2.3605,-2.3994,-2.4279,-2.489,-2.5541,-2.6285,-2.6082,-2.5845,-2.5609,-2.5372,-2.4983,-2.4506,-2.5236,-2.5609,-2.5609,-2.6353,-2.6691,-2.6691,-2.6691,-2.6691,-2.6725,-2.7232,-2.7588,-2.7823,-2.8383,-2.8755,-2.9011,-2.9011,-2.8822,-2.8535,-2.801,-2.762,-2.7368,0.0,0.0,0.0,0.0,0.0,0.0,0.0,0.0,0.0,0.0,0.0,0.0,0.0,0.0,0.0,0.0,0.0,0.0,0.0,0.0,-1.2556,-1.3639,-1.6289,-1.7971,-1.8426,-1.9292,-2.0153,-2.1022,-2.097,-2.1616,-2.2898,-2.3029,-2.3795,-2.5084,-2.5615,-2.614,-2.6631,-2.6071,-2.563,-2.5114,-2.3079,-2.1141,-1.9234,-1.715,-1.5288,0.0,0.0,0.0,0.0,0.0,-1.0427,-1.0376,-1.1597,-1.2119,-1.2839,-1.5587,-1.6892,-1.8224,-2.1676,-2.4153,-2.6392,-2.8888,-3.0081,-3.0834,-3.1641,-3.1384,-3.0577,-2.9112,-2.7246,-2.5372,-2.3599,-2.2179,-2.2066,-2.4476,-2.4568,-2.5117,-2.7353,-2.669,-2.5721,-2.4992,-2.4881,-2.4797,-2.4594,-2.4535,-2.4599,-2.4879,-2.5828,-2.6607,-2.708,-2.7097,-2.6877,-2.642,-2.6133,-2.5896,-2.5676,-2.615,-2.6539,-2.6826,-2.7283,-2.7503,-2.7503,-2.7503,-2.7503,-2.7537,-2.8027,-2.8383,-2.867,-2.9178,-2.9533,-2.977,-2.977,-2.9617,-2.9296,-2.8518,-2.823,-2.8095,0.0,0.0,0.0,0.0,0.0,0.0,0.0,0.0,0.0,0.0,0.0,0.0,0.0,0.0,0.0,0.0,0.0,0.0,0.0,0.0,0.0,-1.1042,-1.2811,-1.4311,-1.5517,-1.5433,-1.5611,-1.612,-1.5992,-1.6712,-1.823,-1.8574,-1.9897,-2.1964,-2.2032,-2.287,-2.4147,-2.2692,-2.1487,-2.0513,-1.943,-1.7349,-1.4821,-1.3782,0.0,0.0,0.0,0.0,0.0,0.0,-0.9876,-1.0272,-1.1646,-1.2491,-1.3489,-1.6242,-1.6984,-1.8032,-2.3229,-2.5704,-2.7724,-3.1561,-3.2008,-3.1623,-3.2284,-3.1157,-2.9263,-2.6654,-2.5394,-2.3769,-2.0424,-2.0422,-2.1209,-2.2018,-2.2529,-2.3371,-2.4934,-2.488,-2.4929,-2.5592,-2.5744,-2.6031,-2.6691,-2.6167,-2.5778,-2.5778,-2.7012,-2.7755,-2.784,-2.784,-2.7823,-2.7789,-2.7165,-2.7131,-2.7772,-2.7823,-2.8247,-2.9011,-2.9011,-2.9011,-2.9011,-2.9011,-2.8958,-2.8924,-2.9008,-2.9414,-3.0057,-3.0142,-3.0581,-3.119,-3.119,-3.0768,-3.0074,-2.9313,-2.9042,-2.8822,0.0,0.0,0.0,0.0,0.0,0.0,0.0,0.0,0.0,0.0,0.0,0.0,0.0,0.0,0.0,0.0,0.0,0.0,0.0,0.0,0.0,0.0,0.0,0.0,0.0,0.0,0.0,0.0,0.0,-1.5269,-1.5877,-1.6368,-1.6874,-1.7416,-1.8318,-1.8954,-1.9358,-1.8985,-1.8512,-1.7873,0.0,-1.3982,-1.2538,0.0,0.0,0.0,0.0,0.0,0.0,-1.0584,-1.1567,-1.3291,-1.4167,-1.5424,-1.7237,-2.062,-2.1953,-2.3157,-2.7083,-2.9547,-3.1139,-3.1604,-3.2008,-3.188,-3.0277,-2.8511,-2.654,-2.4119,-2.1211,-1.8669,-1.7347,-1.7276,-1.7999,-1.9837,-2.1905,-2.3869,-2.5675,-2.6778,-2.7156,-2.6488,-2.7418,-2.796,-2.7571,-2.7892,-2.8129,-2.8129,-2.7418,-2.7469,-2.8619,-2.8687,-2.8416,-2.7806,-2.8197,-2.8213,-2.7789,-2.8399,-2.8789,-2.9011,-2.9011,-2.9011,-2.9011,-2.9011,-2.867,-2.818,-2.933,-2.96,-2.9364,-3.0463,-3.1021,-3.119,-3.119,-3.1089,-3.0835,-3.0091,-2.982,-2.9685,0.0,0.0,0.0,0.0,0.0,0.0,0.0,0.0,0.0,0.0,0.0,0.0,0.0,0.0,0.0,0.0,0.0,0.0,0.0,0.0,0.0,0.0,0.0,0.0,0.0,0.0,0.0,0.0,0.0,0.0,0.0,-1.248,-1.3122,-1.402,-1.461,-1.5193,-1.5693,0.0,0.0,0.0,0.0,0.0,0.0,0.0,0.0,0.0,0.0,0.0,0.0,0.0,-1.3768,-1.5485,-1.698,-1.8383,-2.0191,-2.3822,-2.504,-2.5981,-2.9458,-3.1468,-3.2504,-3.2045,-3.1751,-3.0882,-2.8351,-2.6158,-2.3831,-2.0892,-1.8321,-1.6357,-1.5557,-1.54,-1.6245,-1.8814,-2.046,-2.2362,-2.5055,-2.6436,-2.7315,-2.7656,-2.8755,-2.955,-2.9753,-2.96,-2.9736,-3.0378,-2.9042,-2.8569,-2.9431,-2.9482,-2.9279,-2.8839,-2.8924,-2.8924,-2.8822,-2.9583,-2.9956,-2.9956,-2.9956,-2.9956,-2.9956,-2.9956,-2.9719,-2.9347,-3.0209,-3.0345,-3.0023,-3.0852,-3.119,-3.119,-3.119,-3.119,-3.1106,-3.0378,-3.0311,-3.048,0.0,0.0,0.0,0.0,0.0,0.0,0.0,0.0,0.0,0.0,0.0,0.0,0.0,0.0,0.0,0.0,0.0,0.0,0.0,0.0,0.0,0.0,0.0,0.0,0.0,0.0,0.0,0.0,0.0,0.0,0.0,0.0,0.0,0.0,0.0,0.0,0.0,0.0,0.0,0.0,0.0,0.0,0.0,0.0,0.0,0.0,0.0,0.0,0.0,0.0,-1.6378,-1.7437,-1.9862,-2.1352,-2.2887,-2.6265,-2.711,-2.7669,-3.0969,-3.2219,-3.2559,-3.2339,-3.1164,-2.9282,-2.6372,-2.3964,-2.1309,-1.7769,-1.6325,-1.5488,-1.4757,-1.4651,-1.5632,-1.8653,-1.9212,-2.0475,-2.4015,-2.5304,-2.6674,-2.8738,-2.9736,-3.0784,-3.2154,-3.1055,-3.0818,-3.2212,-3.1021,-3.026,-3.026,-3.026,-3.026,-3.026,-2.9617,-2.9634,-3.0378,-3.1123,-3.1427,-3.1343,-3.1343,-3.1275,-3.119,-3.119,-3.114,-3.1055,-3.1157,-3.114,-3.1055,-3.1157,-3.119,-3.119,-3.119,-3.119,-3.1123,-3.048,-3.0649,-3.1106,0.0,0.0,0.0,0.0,0.0,0.0,0.0,0.0,0.0,0.0,0.0,0.0,0.0,0.0,0.0,0.0,0.0,0.0,0.0,0.0,0.0,0.0,0.0,0.0,0.0,0.0,0.0,0.0,0.0,0.0,0.0,0.0,0.0,0.0,0.0,0.0,0.0,0.0,0.0,0.0,0.0,0.0,0.0,0.0,0.0,0.0,0.0,0.0,0.0,0.0,-1.948,-2.057,-2.2236,-2.4242,-2.6377,-2.852,-2.9435,-3.0231,-3.2228,-3.2687,-3.2284,-3.0962,-2.9916,-2.8141,-2.4073,-2.1704,-1.9591,-1.671,-1.4793,-1.3965,-1.5115,-1.5418,-1.6444,-1.9343,-2.0508,-2.185,-2.4181,-2.6184,-2.7824,-2.8856,-3.0176,-3.1343,-3.2246,-3.1512,-3.136,-3.2246,-3.1495,-3.1004,-3.1004,-3.1004,-3.1004,-3.1004,-3.0886,-3.1157,-3.1901,-3.2645,-3.2713,-3.2087,-3.2087,-3.1782,-3.119,-3.119,-3.0869,-3.0328,-3.0937,-3.0852,-3.0345,-3.0954,-3.119,-3.119,-3.119,-3.119,-3.1173,-3.1055,-3.1089,-3.1173,0.0,0.0,0.0,0.0,0.0,0.0,0.0,0.0,0.0,0.0,0.0,0.0,0.0,0.0,0.0,0.0,0.0,0.0,0.0,0.0,0.0,0.0,0.0,0.0,0.0,-0.5897,-0.5915,-0.6062,0.0,-0.6159,-0.646,-0.6589,-0.7071,-0.7856,-0.7588,0.0,0.0,0.0,0.0,0.0,0.0,0.0,0.0,0.0,0.0,0.0,0.0,0.0,0.0,0.0,-1.7952,-1.9914,-2.3309,-2.519,-2.6281,-2.7043,-2.8426,-2.9876,-3.0562,-3.1673,-3.232,-3.1109,-2.9586,-2.7204,-2.2772,-2.0187,-1.7897,-1.5088,-1.3747,-1.3435,-1.4574,-1.4813,-1.5536,-1.7723,-1.8549,-1.9796,-2.2333,-2.4309,-2.6234,-2.8146,-2.9719,-3.1224,-3.273,-3.185,-3.1664,-3.278,-3.1833,-3.119,-3.119,-3.119,-3.119,-3.119,-3.1562,-3.1918,-3.2313,-3.3034,-3.322,-3.2865,-3.2459,-3.2087,-3.1749,-3.1376,-3.1004,-3.0683,-3.1055,-3.1004,-3.07,-3.1055,-3.119,-3.119,-3.119,-3.119,-3.119,-3.119,-3.119,-3.119,0.0,0.0,0.0,0.0,0.0,0.0,0.0,0.0,0.0,0.0,0.0,0.0,0.0,0.0,0.0,0.0,0.0,0.0,0.0,0.0,0.0,0.0,0.0,0.0,0.0,0.0,0.0,-0.6104,-0.608,0.0,0.0,0.0,0.0,0.0,-0.7654,-0.7779,-0.8239,0.0,0.0,0.0,0.0,-0.6742,0.0,0.0,0.0,0.0,0.0,0.0,0.0,0.0,-1.5518,-1.7918,-2.2355,-2.4028,-2.4449,-2.4914,-2.664,-2.8539,-2.9126,-3.0789,-3.2118,-3.1127,-2.92,-2.6326,-2.1624,-1.902,-1.6729,-1.373,-1.31,-1.333,-1.4169,-1.3989,-1.4345,-1.6221,-1.647,-1.7469,-2.0562,-2.2613,-2.4816,-2.7468,-2.9313,-3.1157,-3.3203,-3.207,-3.1799,-3.3288,-3.2036,-3.119,-3.119,-3.1343,-3.1427,-3.1427,-3.229,-3.2747,-3.2747,-3.3508,-3.3711,-3.3406,-3.2797,-3.2357,-3.2019,-3.1444,-3.119,-3.119,-3.119,-3.119,-3.119,-3.119,-3.119,-3.119,-3.119,-3.119,-3.119,-3.119,-3.119,-3.119,0.0,0.0,0.0,0.0,0.0,0.0,0.0,0.0,0.0,0.0,0.0,0.0,0.0,0.0,0.0,0.0,0.0,0.0,0.0,0.0,0.0,0.0,0.0,0.0,0.0,0.0,0.0,-0.6104,-0.6218,0.0,0.0,0.0,0.0,0.0,0.0,-0.7159,-0.811,-0.6817,0.0,0.0,0.0,0.0,0.0,0.0,0.0,0.0,0.0,-1.0473,-1.1335,0.0,-1.4497,-1.5711,-1.7762,-1.9615,-2.1551,-2.4154,-2.5665,-2.7154,-3.0283,-3.1329,-3.1127,-2.9604,-2.797,-2.5335,-2.004,-1.8146,-1.6624,-1.3481,-1.294,-1.3423,-1.4763,-1.3807,-1.3804,-1.6802,-1.6649,-1.7264,-2.0461,-2.3354,-2.5782,-2.7587,-2.9753,-3.1698,-3.3254,-3.207,-3.1799,-3.3288,-3.2036,-3.119,-3.119,-3.1833,-3.2212,-3.2212,-3.3541,-3.4286,-3.4286,-3.5047,-3.4742,-3.3406,-3.3339,-3.2594,-3.1292,-3.1224,-3.119,-3.119,-3.119,-3.119,-3.119,-3.119,-3.119,-3.119,-3.119,-3.119,-3.119,-3.119,-3.119,-3.119,0.0,0.0,0.0,0.0,0.0,0.0,0.0,0.0,0.0,0.0,0.0,0.0,0.0,0.0,0.0,0.0,0.0,0.0,0.0,0.0,0.0,0.0,0.0,0.0,0.0,0.0,-0.59,-0.592,-0.6254,0.0,0.0,0.0,0.0,0.0,0.0,-0.7545,-0.7795,-0.7155,0.0,0.0,0.0,0.0,0.0,0.0,0.0,0.0,0.0,0.0,-0.9755,-1.108,-1.1841,-1.2515,-1.3849,-1.4815,0.0,-1.8537,-2.1822,-2.482,-2.5642,-2.8231,-3.0411,-2.9292,-2.7438,-2.4732,-2.031,-1.7932,-1.5818,-1.2802,-1.2539,-1.2827,-1.2915,-1.278,-1.2995,-1.409,-1.4212,-1.5196,-1.8177,-2.0217,-2.2824,-2.6674,-2.8332,-3.0108,-3.2493,-3.2188,-3.2273,-3.3322,-3.2442,-3.2053,-3.251,-3.2374,-3.2493,-3.2949,-3.3947,-3.4286,-3.3846,-3.4573,-3.4421,-3.3406,-3.2949,-3.2425,-3.1833,-3.1393,-3.119,-3.119,-3.119,-3.119,-3.119,-3.119,-3.119,-3.119,-3.119,-3.119,-3.119,-3.119,-3.119,-3.119,0.0,0.0,0.0,0.0,0.0,0.0,0.0,0.0,0.0,0.0,0.0,0.0,0.0,0.0,0.0,0.0,0.0,0.0,0.0,0.0,0.0,0.0,0.0,0.0,0.0,0.0,-0.6195,-0.6153,-0.657,-0.6917,0.0,0.0,-0.7633,-0.7988,0.0,0.0,0.0,0.0,0.0,0.0,0.0,0.0,0.0,0.0,0.0,0.0,0.0,0.0,0.0,0.0,0.0,0.0,0.0,0.0,0.0,0.0,-1.8365,-2.169,-2.2422,-2.5574,-2.8576,-2.8352,-2.6384,-2.3648,-2.0219,-1.7434,-1.4831,-1.2271,-1.2235,-1.2434,-1.1623,-1.2069,-1.251,0.0,0.0,-1.3803,-1.607,-1.8037,-2.06,-2.4245,-2.6084,-2.8188,-3.115,-3.2367,-3.2966,-3.3068,-3.2797,-3.2848,-3.3372,-3.3102,-3.3186,-3.3711,-3.4218,-3.4252,-3.3728,-3.4235,-3.4015,-3.3068,-3.2763,-3.2391,-3.1935,-3.1427,-3.119,-3.119,-3.119,-3.119,-3.119,-3.119,-3.119,-3.119,-3.119,-3.119,-3.119,-3.119,-3.119,-3.119,0.0,0.0,0.0,0.0,0.0,0.0,0.0,0.0,0.0,0.0,0.0,0.0,0.0,0.0,0.0,0.0,0.0,0.0,0.0,0.0,0.0,0.0,0.0,0.0,0.0,0.0,-0.6664,-0.6993,-0.7266,-0.75,-0.7695,-0.7695,-0.7812,-0.7986,0.0,0.0,0.0,0.0,0.0,0.0,0.0,0.0,0.0,0.0,0.0,0.0,0.0,0.0,0.0,0.0,0.0,0.0,0.0,-1.1579,-1.2253,0.0,-1.5947,-1.7669,-2.2329,-2.4252,-2.523,-2.6347,-2.4559,-2.1848,-1.9213,-1.6389,-1.3807,-1.1979,-1.2138,-1.2351,-1.1551,-1.2009,-1.2522,-1.2588,-1.2937,-1.3539,-1.4575,-1.7935,-2.0218,-1.9996,-2.3095,-2.631,-2.9046,-3.2446,-3.3863,-3.2432,-3.2983,-3.3389,-3.3406,-3.4083,-3.4472,-3.4472,-3.4489,-3.4489,-3.4472,-3.4489,-3.3744,-3.2347,-3.3034,-3.2628,-3.1207,-3.119,-3.119,-3.119,-3.119,-3.119,-3.119,-3.119,-3.119,-3.119,-3.119,-3.119,-3.119,-3.119,-3.119,-3.119,0.0,0.0,0.0,0.0,0.0,0.0,0.0,0.0,0.0,0.0,0.0,0.0,0.0,0.0,0.0,0.0,0.0,0.0,0.0,0.0,0.0,0.0,0.0,0.0,0.0,0.0,0.0,-0.6667,-0.7241,-0.7605,-0.7768,-0.7811,-0.7911,-0.8054,-0.7797,-0.765,0.0,0.0,0.0,0.0,0.0,0.0,-0.7062,0.0,0.0,0.0,0.0,0.0,0.0,0.0,0.0,0.0,0.0,0.0,0.0,-1.2941,-1.4714,-1.6741,-1.836,-2.0435,-2.2036,-2.175,-2.0829,-1.9396,-1.713,-1.5465,-1.3749,-1.1515,-1.1877,-1.2228,-1.1003,-1.1753,-1.2491,-1.2287,-1.2968,-1.3943,-1.5082,-1.812,-2.1184,-2.3761,-2.7896,-3.095,-3.2008,-3.3558,-3.4523,-3.4556,-3.4303,-3.437,-3.4895,-3.4658,-3.4726,-3.525,-3.4759,-3.4252,-3.3744,-3.3237,-3.2493,-3.1546,-3.1782,-3.1647,-3.119,-3.119,-3.119,-3.119,-3.119,-3.119,-3.119,-3.119,-3.119,-3.119,-3.119,-3.119,-3.119,-3.119,-3.119,-3.119,0.0,0.0,0.0,0.0,0.0,0.0,0.0,0.0,0.0,0.0,0.0,0.0,0.0,0.0,0.0,0.0,0.0,0.0,0.0,0.0,0.0,0.0,0.0,0.0,0.0,0.0,0.0,0.0,0.0,-0.7926,-0.8066,-0.808,-0.8164,-0.8272,-0.8054,-0.7884,0.0,0.0,0.0,0.0,0.0,0.0,-0.6908,0.0,0.0,0.0,0.0,0.0,0.0,0.0,0.0,0.0,0.0,0.0,0.0,0.0,-1.3156,-1.488,-1.5828,-1.7411,-1.8845,-1.9032,-1.8388,-1.7364,-1.6077,-1.4809,-1.3394,-1.1579,-1.1984,-1.2306,-1.1168,-1.1785,-1.2451,-1.2347,-1.2926,-1.3678,-1.4475,-1.7003,-2.0123,-2.3833,-2.8768,-3.1798,-3.1618,-3.3617,-3.4878,-3.4793,-3.4861,-3.4878,-3.4793,-3.4607,-3.4573,-3.4776,-3.432,-3.3728,-3.2983,-3.251,-3.1918,-3.119,-3.1461,-3.1461,-3.119,-3.119,-3.119,-3.119,-3.119,-3.119,0.0,-3.119,-3.119,-3.119,-3.119,-3.119,-3.119,-3.119,-3.119,-3.119,0.0,0.0,0.0,0.0,0.0,0.0,0.0,0.0,0.0,0.0,0.0,0.0,0.0,0.0,0.0,0.0,0.0,0.0,0.0,0.0,0.0,0.0,0.0,0.0,0.0,0.0,0.0,-0.8011,-0.8191,-0.8396,-0.8566,0.0,-0.8508,-0.8721,-0.8359,-0.808,0.0,0.0,0.0,0.0,0.0,0.0,0.0,0.0,0.0,0.0,0.0,0.0,0.0,0.0,0.0,0.0,0.0,0.0,0.0,0.0,0.0,0.0,0.0,-1.514,-1.5748,-1.7587,-1.6867,-1.5713,-1.5696,0.0,0.0,-1.2108,-1.24,-1.2551,-1.1834,-1.2028,-1.2388,-1.2626,-1.2851,-1.3015,-1.3137,-1.5377,-1.8143,-2.1252,-2.6724,-2.9864,-2.8862,-3.2824,-3.4928,-3.366,-3.4793,-3.4928,-3.3558,-3.4134,-3.4134,-3.3355,-3.3322,-3.2983,-3.233,-3.2263,-3.1867,-3.1207,-3.1884,-3.185,-3.119,-3.119,-3.119,-3.119,-3.119,-3.119,-3.119,-3.119,-3.119,-3.119,-3.119,-3.119,-3.119,-3.119,-3.119,-3.119,0.0,0.0,0.0,0.0,0.0,0.0,0.0,0.0,0.0,0.0,0.0,0.0,0.0,0.0,0.0,0.0,0.0,0.0,0.0,0.0,0.0,0.0,0.0,0.0,0.0,0.0,0.0,-0.8011,-0.8191,-0.8636,-0.9241,-0.8616,0.0,0.0,-0.8771,0.0,0.0,0.0,0.0,0.0,0.0,0.0,0.0,0.0,0.0,0.0,-0.7163,-0.7885,0.0,0.0,0.0,0.0,0.0,0.0,0.0,0.0,-1.1273,-1.1695,-1.2784,0.0,-1.35,-1.3773,-1.3911,-1.3939,0.0,0.0,0.0,0.0,0.0,0.0,0.0,-1.2018,-1.2287,-1.2251,-1.3121,-1.3824,-1.3872,-1.9074,-2.3084,-2.3637,-2.9055,-3.2157,-3.0717,-3.2604,-3.4252,-3.503,-3.4878,-3.4607,-3.4252,-3.4404,-3.3897,-3.2594,-3.2544,-3.2459,-3.2313,-3.1732,-3.136,-3.119,-3.1376,-3.136,-3.119,-3.119,-3.119,-3.119,-3.119,-3.119,-3.119,-3.119,-3.119,-3.119,-3.119,-3.119,-3.119,-3.119,-3.119,-3.1123,0.0,0.0,0.0,0.0,0.0,0.0,0.0,0.0,0.0,0.0,0.0,0.0,0.0,0.0,0.0,0.0,0.0,0.0,0.0,0.0,0.0,0.0,0.0,0.0,0.0,0.0,0.0,0.0,0.0,-0.8824,0.0,0.0,0.0,0.0,0.0,0.0,0.0,0.0,0.0,0.0,-0.7435,0.0,0.0,0.0,0.0,0.0,-0.7242,-0.7712,0.0,-0.8259,-0.844,-0.88,0.0,0.0,0.0,0.0,-1.0955,-1.1415,-1.2231,-1.2546,-1.2646,-1.2565,-1.2871,-1.3192,-1.3087,0.0,0.0,0.0,0.0,0.0,0.0,-1.2221,-1.221,-1.2271,-1.3798,-1.5415,-1.6709,-2.1368,-2.4741,-2.4914,-2.9408,-3.2144,-3.1291,-3.2527,-3.3592,-3.4049,-3.4032,-3.3846,-3.3491,-3.3474,-3.2949,-3.1816,-3.1782,-3.1782,-3.1782,-3.1393,-3.119,-3.119,-3.119,-3.119,-3.119,-3.0852,-3.07,-3.07,-3.07,-3.07,-3.0717,-3.1055,-3.1004,-3.07,-3.07,-3.048,-3.0176,-3.0176,-3.0176,-3.0125,0.0,0.0,0.0,0.0,0.0,0.0,0.0,0.0,0.0,0.0,0.0,0.0,0.0,0.0,0.0,0.0,0.0,0.0,0.0,0.0,0.0,0.0,0.0,0.0,0.0,0.0,0.0,0.0,0.0,0.0,0.0,0.0,-0.9451,0.0,0.0,0.0,0.0,0.0,0.0,-0.7469,-0.7589,0.0,0.0,0.0,0.0,0.0,0.0,0.0,0.0,-0.7724,-0.7753,-0.7812,-0.7955,0.0,0.0,0.0,0.0,0.0,-1.2289,-1.2526,-1.2537,-1.2665,-1.2887,-1.3067,-1.3051,0.0,0.0,0.0,0.0,0.0,0.0,-1.2732,-1.2596,-1.3102,-1.5129,-1.7591,-2.0319,-2.3074,-2.5024,-2.5524,-2.8978,-3.1203,-3.1048,-3.2256,-3.2899,-3.2493,-3.2933,-3.2949,-3.2307,-3.2313,-3.1901,-3.1055,-3.1021,-3.097,-3.0852,-3.1089,-3.119,-3.119,-3.119,-3.119,-3.1173,-3.0446,-3.0108,-3.0108,-2.9989,-2.9939,-2.9989,-3.0598,-3.0497,-2.9939,-2.9939,-2.955,-2.9011,-2.9011,-2.9011,-2.8958,0.0,0.0,0.0,0.0,0.0,0.0,0.0,0.0,0.0,0.0,0.0,0.0,0.0,0.0,0.0,0.0,0.0,0.0,0.0,0.0,0.0,0.0,0.0,0.0,0.0,0.0,0.0,0.0,0.0,0.0,-1.0597,-0.9325,-0.8864,-0.9122,0.0,-0.9026,-0.8267,-0.8051,-0.7884,-0.7739,-0.7753,0.0,0.0,0.0,0.0,0.0,0.0,0.0,0.0,-0.7975,-0.7797,-0.7753,-0.7941,0.0,0.0,0.0,0.0,0.0,-1.239,-1.2569,-1.261,-1.2684,-1.3015,-1.3312,-1.3278,0.0,0.0,0.0,0.0,0.0,0.0,-1.4011,-1.4374,-1.5974,-1.8095,-2.036,-2.2677,-2.5216,-2.6539,-2.5706,-2.923,-3.1317,-3.0349,-3.1038,-3.2002,-3.3152,-3.2747,-3.2408,-3.233,-3.2313,-3.1664,-3.0311,-3.0277,-2.9973,-2.933,-3.0565,-3.119,-3.119,-3.119,-3.119,-3.1173,-3.0446,-3.0108,-3.0074,-2.9431,-2.9161,-2.9161,-2.9279,-2.9245,-2.9161,-2.9161,-2.9076,-2.9011,-2.9011,-2.9011,-2.889,0.0,0.0,0.0,0.0,0.0,0.0,0.0,0.0,0.0,0.0,0.0,0.0,0.0,0.0,0.0,0.0,0.0,0.0,0.0,0.0,0.0,0.0,0.0,0.0,0.0,0.0,0.0,0.0,0.0,-1.0037,-1.1431,-1.0799,-0.9909,-0.8879,0.0,-0.9165,-0.8403,-0.8269,-0.8121,-0.797,0.0,0.0,0.0,0.0,0.0,0.0,0.0,0.0,0.0,0.0,-0.7753,-0.768,-0.7883,0.0,0.0,0.0,0.0,0.0,-1.1817,-1.2375,-1.2799,-1.2982,-1.307,-1.3104,0.0,0.0,0.0,0.0,0.0,0.0,-1.4297,-1.472,-1.6111,-1.9856,-2.1693,-2.3443,-2.5764,-2.7093,-2.7893,-2.8028,-2.9717,-3.0924,-3.1016,-3.1339,-3.1739,-3.2195,-3.1901,-3.1698,-3.1698,-3.1326,-3.0801,-3.0125,-2.9702,-2.933,-2.9011,-2.9651,-3.0006,-3.0006,-3.0006,-3.0006,-2.9973,-2.9211,-2.8873,-2.8856,-2.8501,-2.8349,-2.8383,-2.8805,-2.8738,-2.8349,-2.8349,-2.8112,-2.774,-2.774,-2.774,-2.7689,0.0,0.0,0.0,0.0,0.0,0.0,0.0,0.0,0.0,0.0,0.0,0.0,0.0,0.0,0.0,0.0,0.0,0.0,0.0,0.0,0.0,0.0,0.0,0.0,0.0,0.0,-0.9117,-0.9795,-1.0065,-1.0631,-1.1523,-1.1692,-1.0722,0.0,0.0,-0.9133,-0.8542,-0.8492,-0.8377,-0.8218,0.0,0.0,0.0,0.0,0.0,0.0,0.0,0.0,0.0,0.0,0.0,0.0,0.0,0.0,0.0,-0.8911,-0.9718,-1.0524,-1.1097,-1.1947,-1.2733,-1.2941,-1.3158,0.0,0.0,0.0,0.0,0.0,0.0,-1.4459,-1.5436,-1.6517,-1.854,-2.2532,-2.445,-2.6199,-2.8435,-2.8665,-2.9042,-3.0256,-3.0117,-3.0431,-3.1558,-3.1504,-3.1288,-3.0976,-3.0937,-3.0869,-3.0683,-3.0142,-2.977,-2.9583,-2.9008,-2.8636,-2.845,-2.845,-2.8619,-2.9011,-2.9011,-2.9011,-2.8958,-2.818,-2.7789,-2.7772,-2.7638,-2.7554,-2.7604,-2.8197,-2.8095,-2.7554,-2.7554,-2.7199,-2.6691,-2.6691,-2.6691,-2.6691,0.0,0.0,0.0,0.0,0.0,0.0,0.0,0.0,0.0,0.0,0.0,0.0,0.0,0.0,0.0,0.0,0.0,0.0,0.0,0.0,0.0,0.0,0.0,0.0,0.0,-0.9122,-0.9675,-0.9802,-1.0611,-1.0717,-1.0157,-1.0708,-1.0252,-0.8891,0.0,-0.8793,-0.8696,-0.8677,-0.8632,-0.8562,-0.8501,0.0,0.0,0.0,0.0,0.0,0.0,0.0,0.0,0.0,0.0,0.0,0.0,0.0,-0.8956,-0.9142,-0.9765,-1.0412,-1.0459,-1.122,-1.1992,-1.2075,-1.3345,0.0,-1.5813,-1.6621,0.0,-1.811,0.0,-1.827,-1.8537,-2.0698,-2.2408,-2.2213,-2.5241,-2.8168,-2.9813,-2.9759,-2.994,-3.1083,-3.0206,-3.0006,-3.1138,-3.0603,-3.0213,-3.0192,-3.0192,-2.9871,-2.9178,-2.9093,-2.8738,-2.7975,-2.7891,-2.7571,-2.686,-2.686,-2.7571,-2.9011,-2.9011,-2.9011,-2.8958,-2.818,-2.7789,-2.7755,-2.708,-2.6776,-2.6776,-2.6826,-2.6826,-2.6776,-2.6776,-2.6742,-2.6691,-2.6691,-2.6691,-2.6691,0.0,0.0,0.0,0.0,0.0,0.0,0.0,0.0,0.0,0.0,0.0,0.0,0.0,0.0,0.0,0.0,0.0,0.0,0.0,0.0,0.0,0.0,0.0,-0.7607,-0.8131,-0.9113,-0.9851,-1.0292,-1.1709,-1.1786,-1.0639,-1.0939,0.0,0.0,0.0,-0.9018,-0.8956,-0.894,-0.8936,-0.8891,-0.8698,-0.8477,0.0,0.0,0.0,0.0,0.0,0.0,0.0,0.0,-0.7797,-0.7753,-0.7724,-0.796,-0.8274,-0.8319,-0.8988,-0.9718,-0.9671,-1.1237,-1.2803,-1.2402,-1.3584,0.0,0.0,-1.629,-1.68,-1.7648,-1.818,-1.8875,-2.0264,-2.2301,-2.4169,-2.5433,-2.7277,-2.9015,-3.0376,-3.046,-3.051,-3.0939,-3.0393,-3.0112,-3.0558,-3.0093,-2.9674,-2.9434,-2.9414,-2.9279,-2.8991,-2.8518,-2.8129,-2.7789,-2.7368,-2.6979,-2.6691,-2.6691,-2.6979,-2.7554,-2.7554,-2.7554,-2.7554,-2.7249,-2.7114,-2.7097,-2.6826,-2.6691,-2.6691,-2.6691,-2.6691,-2.6691,-2.6691,-2.6691,-2.6691,-2.6691,-2.6691,-2.6691,0.0,0.0,0.0,0.0,0.0,0.0,0.0,0.0,0.0,0.0,0.0,0.0,0.0,0.0,0.0,0.0,0.0,0.0,0.0,0.0,0.0,0.0,0.0,-0.7398,-0.791,-0.8989,-0.9882,-1.0575,-1.2057,-1.2174,-1.0999,0.0,0.0,0.0,0.0,-0.9184,-0.9142,-0.9171,-0.9149,-0.904,-0.8857,-0.8658,0.0,0.0,0.0,0.0,0.0,0.0,0.0,0.0,-0.7768,-0.7724,0.0,-0.7694,-0.7797,-0.7827,-0.8376,-0.8978,-0.8933,-1.1028,-1.3104,-1.262,0.0,0.0,-1.7012,-1.6589,-1.65,-1.8235,-1.9272,-2.0153,-2.1113,-2.2903,-2.4591,-2.5804,-2.746,-2.8905,-2.9733,-3.0087,-3.0288,-3.0413,-2.984,-2.9607,-2.9927,-2.9397,-2.8939,-2.8638,-2.8619,-2.8518,-2.8281,-2.7537,-2.7198,-2.7452,-2.6742,-2.6353,-2.6353,-2.6573,-2.6454,-2.5998,-2.6234,-2.6471,-2.6691,-2.6691,-2.6691,-2.6691,-2.6691,-2.6691,-2.6691,-2.6691,-2.6691,-2.6674,-2.6437,-2.6353,-2.6387,-2.6607,-2.6539,-2.6387,0.0,0.0,0.0,0.0,0.0,0.0,0.0,0.0,0.0,0.0,0.0,0.0,0.0,0.0,0.0,0.0,0.0,0.0,0.0,0.0,0.0,0.0,0.0,-0.7228,-0.7499,-0.8742,-0.9763,-1.0511,-1.1434,-1.1579,-1.0972,-1.0236,0.0,0.0,0.0,-0.9199,-0.9208,-0.9341,-0.924,-0.9002,-0.9005,-0.8717,-0.8293,0.0,0.0,0.0,0.0,0.0,0.0,0.0,-0.7724,-0.7602,0.0,0.0,-0.7812,-0.7885,-0.8092,-0.8313,-0.8306,-1.0417,-1.2606,-1.253,0.0,0.0,-1.9917,-1.8073,-1.7046,-2.0625,-2.2246,-2.2574,-2.1153,-2.2732,-2.3744,-2.236,-2.5317,-2.7769,-2.7787,-2.8484,-2.9132,-2.9539,-2.8584,-2.8287,-2.9382,-2.8442,-2.7755,-2.7755,-2.7755,-2.7469,-2.6708,-2.5998,-2.593,-2.6657,-2.5981,-2.5592,-2.5592,-2.6302,-2.593,-2.4523,-2.5236,-2.5981,-2.6674,-2.6674,-2.6691,-2.6691,-2.6691,-2.6691,-2.6691,-2.6691,-2.6691,-2.6623,-2.5896,-2.5625,-2.571,-2.642,-2.6234,-2.571,0.0,0.0,0.0,0.0,0.0,0.0,0.0,0.0,0.0,0.0,0.0,0.0,0.0,0.0,0.0,0.0,0.0,0.0,0.0,0.0,0.0,0.0,0.0,0.0,0.0,0.0,-0.967,-1.0495,-1.0976,-1.0834,0.0,0.0,0.0,-0.9181,0.0,0.0,-0.9421,-0.9456,-0.9456,-0.9386,-0.9064,-0.8812,-0.8622,0.0,0.0,0.0,0.0,0.0,0.0,0.0,0.0,0.0,-0.7855,0.0,-0.8169,-0.8297,-0.8874,-0.9496,-0.9492,-1.1568,-1.3712,-1.3636,0.0,0.0,0.0,-1.8231,0.0,0.0,-2.1751,-2.3344,-2.1622,-2.3359,-2.4922,-2.449,-2.5377,-2.63,-2.6888,-2.7163,-2.7578,-2.8255,-2.7079,-2.6568,-2.7496,-2.6323,-2.5473,-2.5473,-2.5473,-2.5372,-2.5152,-2.4932,-2.4915,-2.5167,-2.4932,-2.4814,-2.4814,-2.5033,-2.4915,-2.4506,-2.4712,-2.5203,-2.593,-2.593,-2.6201,-2.6657,-2.615,-2.6218,-2.6691,-2.6691,-2.6691,-2.6674,-2.6454,-2.637,-2.6404,-2.6623,-2.6556,-2.6404,0.0,0.0,0.0,0.0,0.0,0.0,0.0,0.0,0.0,0.0,0.0,0.0,0.0,0.0,0.0,0.0,0.0,0.0,0.0,0.0,0.0,0.0,0.0,0.0,0.0,-0.8576,-0.9116,0.0,0.0,0.0,0.0,0.0,0.0,-0.9231,0.0,-0.9717,-0.9455,-0.9516,-0.9482,-0.9385,-0.9094,-0.8906,-0.8767,0.0,0.0,0.0,0.0,0.0,0.0,0.0,0.0,0.0,-0.8104,0.0,-0.8436,-0.8554,-0.9303,-1.0112,-1.0123,-1.2431,-1.4916,-1.5227,-1.7032,-1.8842,-1.9184,-1.9626,-1.9936,-1.9863,-2.2227,-2.3989,-2.2886,-2.3915,-2.4905,-2.4905,-2.5201,-2.5586,-2.6062,-2.641,-2.6778,-2.7273,-2.6255,-2.5702,-2.6242,-2.5207,-2.4506,-2.4506,-2.4506,-2.4506,-2.4506,-2.4205,-2.4218,-2.4506,-2.4235,-2.4052,-2.4052,-2.4371,-2.4218,-2.363,-2.3917,-2.4289,-2.4746,-2.5033,-2.5575,-2.6234,-2.5795,-2.5862,-2.6251,-2.6251,-2.6251,-2.6234,-2.593,-2.5642,-2.5456,-2.6048,-2.6065,-2.5896,0.0,0.0,0.0,0.0,0.0,0.0,0.0,0.0,0.0,0.0,0.0,0.0,0.0,0.0,0.0,0.0,0.0,0.0,0.0,0.0,0.0,0.0,0.0,0.0,0.0,0.0,0.0,0.0,0.0,0.0,0.0,0.0,-0.9738,-0.9261,0.0,-1.0144,-0.9403,-0.9532,-0.9403,-0.9119,-0.9087,-0.897,-0.8806,-0.8651,0.0,0.0,0.0,0.0,0.0,0.0,0.0,0.0,-0.8332,-0.8457,-0.8663,-0.8728,-0.9497,-1.0337,-1.0421,-1.3015,-1.5912,-1.6876,-1.9707,-2.2178,-2.185,-2.1872,-2.1898,-2.1633,-2.3191,-2.4532,-2.4275,-2.4266,-2.4281,-2.4208,-2.4795,-2.5293,-2.5293,-2.5915,-2.641,-2.6484,-2.5763,-2.5313,-2.5384,-2.4729,-2.432,-2.432,-2.432,-2.432,-2.432,-2.3646,-2.3596,-2.4286,-2.3646,-2.3291,-2.3291,-2.3951,-2.3613,-2.231,-2.2987,-2.3325,-2.341,-2.4069,-2.4763,-2.5423,-2.5558,-2.5575,-2.5507,-2.5575,-2.5609,-2.5541,-2.478,-2.4069,-2.3663,-2.5017,-2.5067,-2.4709,0.0,0.0,0.0,0.0,0.0,0.0,0.0,0.0,0.0,0.0,0.0,0.0,0.0,0.0,0.0,0.0,0.0,0.0,0.0,0.0,0.0,0.0,0.0,0.0,0.0,0.0,0.0,0.0,0.0,0.0,0.0,0.0,0.0,-0.9308,0.0,-1.0097,-0.9412,-0.9421,-0.9376,-0.9237,-0.9023,-0.8951,-0.893,-0.8744,-0.8693,0.0,0.0,0.0,0.0,0.0,0.0,0.0,-0.8514,-0.8721,-0.8951,-0.9126,-0.9814,-1.0675,-1.1362,-1.3167,-1.5235,-1.6787,-1.9641,-2.2387,-2.3589,-2.3886,-2.3007,-1.9867,-2.2537,-2.4763,-2.2539,-2.3785,-2.4944,-2.43,-2.4337,-2.4447,-2.4447,-2.4612,-2.4942,-2.5566,-2.4491,-2.3932,-2.4577,-2.3505,-2.2784,-2.2784,-2.2784,-2.2784,-2.2784,-2.2632,-2.2615,-2.2784,-2.2632,-2.2547,-2.2547,-2.2699,-2.2615,-2.231,-2.2462,-2.2835,-2.341,-2.3562,-2.3714,-2.3934,-2.5101,-2.527,-2.4763,-2.5372,-2.5609,-2.5541,-2.478,-2.4421,-2.432,-2.4611,-2.4659,-2.4557,0.0,0.0,0.0,0.0,0.0,0.0,0.0,0.0,0.0,0.0,0.0,0.0,0.0,0.0,0.0,0.0,0.0,0.0,0.0,0.0,0.0,0.0,0.0,0.0,0.0,0.0,0.0,0.0,0.0,0.0,0.0,0.0,0.0,-0.9363,0.0,-1.0401,-0.9357,-0.9348,-0.9301,-0.9187,-0.9015,-0.899,-0.9046,-0.8936,-0.8912,-0.8945,-0.8974,0.0,0.0,0.0,0.0,0.0,0.0,0.0,-0.9106,-0.9234,-0.9872,-1.0749,-1.1642,-1.3268,-1.5301,-1.7904,-2.0087,-2.2023,-2.3574,-2.398,-2.3489,-2.1607,-2.3309,-2.4668,-2.3215,-2.3971,-2.4685,-2.4263,-2.419,-2.419,-2.419,-2.419,-2.4298,-2.4561,-2.3773,-2.33,-2.3558,-2.2794,-2.231,-2.231,-2.231,-2.231,-2.231,-2.231,-2.231,-2.231,-2.231,-2.231,-2.231,-2.231,-2.231,-2.231,-2.231,-2.2513,-2.2885,-2.3241,-2.3207,-2.2936,-2.4069,-2.4323,-2.4019,-2.4763,-2.4864,-2.4509,-2.412,-2.3748,-2.3477,-2.3833,-2.3951,-2.4002,0.0,0.0,0.0,0.0,0.0,0.0,0.0,0.0,0.0,0.0,0.0,0.0,0.0,0.0,0.0,0.0,0.0,0.0,0.0,0.0,0.0,0.0,0.0,0.0,0.0,0.0,0.0,0.0,0.0,0.0,0.0,0.0,0.0,-0.9363,0.0,-1.0623,-0.929,-0.9354,-0.9314,-0.9212,-0.9225,-0.9219,-0.9184,-0.9206,-0.9196,-0.9177,-0.9188,-0.9188,-0.9171,-0.9078,0.0,0.0,0.0,0.0,-0.9201,-0.9187,-0.9794,-1.0667,-1.1589,-1.338,-1.5744,-1.8935,-2.0352,-2.1289,-2.2607,-2.3086,-2.339,-2.3915,-2.4282,-2.4495,-2.4444,-2.4321,-2.419,-2.419,-2.419,-2.419,-2.419,-2.419,-2.4074,-2.3735,-2.3392,-2.3069,-2.2746,-2.2463,-2.231,-2.231,-2.231,-2.231,-2.231,-2.231,-2.231,-2.231,-2.231,-2.231,-2.231,-2.231,-2.231,-2.231,-2.231,-2.231,-2.2327,-2.2936,-2.2885,-2.2344,-2.3088,-2.3393,-2.3444,-2.4052,-2.3934,-2.3376,-2.3257,-2.2835,-2.2378,-2.2987,-2.3207,-2.3291,0.0,0.0,0.0,0.0,0.0,0.0,0.0,0.0,0.0,0.0,-0.273,0.0,0.0,0.0,0.0,0.0,0.0,0.0,0.0,0.0,0.0,0.0,0.0,0.0,0.0,0.0,0.0,0.0,0.0,0.0,0.0,0.0,0.0,-0.9338,0.0,0.0,-0.9231,-0.9587,-0.9685,-0.9647,-0.9997,-0.9883,-0.9538,-0.9603,-0.9381,-0.9043,-0.9081,-0.912,-0.9088,-0.8908,-0.8908,0.0,0.0,0.0,-0.9188,-0.9126,-0.9697,-1.0521,-1.1393,0.0,-1.6153,-1.8192,-1.9349,-2.0224,-2.1103,-2.1774,-2.243,-2.3184,-2.3959,-2.4444,-2.4266,-2.4209,-2.419,-2.419,-2.419,-2.419,-2.419,-2.419,-2.4074,-2.3735,-2.3392,-2.3069,-2.2746,-2.2463,-2.231,-2.231,-2.231,-2.231,-2.231,-2.231,-2.231,-2.231,-2.231,-2.231,-2.231,-2.231,-2.231,-2.231,-2.231,-2.231,-2.231,-2.2412,-2.2395,-2.2344,-2.3088,-2.3393,-2.341,-2.3511,-2.3477,-2.3342,-2.2699,-2.2395,-2.2327,-2.2412,-2.2462,-2.2462,0.0,0.0,0.0,0.0,0.0,0.0,0.0,0.0,0.0,0.0,0.0,0.0,0.0,0.0,0.0,0.0,0.0,0.0,0.0,0.0,0.0,0.0,0.0,0.0,0.0,0.0,0.0,0.0,0.0,0.0,0.0,-0.9564,-0.9637,0.0,0.0,0.0,0.0,-1.0202,-1.0297,-1.0093,-1.0239,-1.0224,-1.0057,-0.9809,-0.9622,-0.9513,-0.9589,-0.9411,-0.9196,-0.9457,-0.9321,-0.9036,-0.8979,0.0,0.0,0.0,-0.9628,-1.0487,-1.1895,-1.3641,-1.5373,-1.663,-1.738,-1.8268,-1.9845,-2.0461,-2.1064,-2.2285,-2.2761,-2.3102,-2.3456,-2.3529,-2.3529,-2.3529,-2.3914,-2.419,-2.419,-2.419,-2.4074,-2.3735,-2.3392,-2.3069,-2.2746,-2.2463,-2.231,-2.231,-2.231,-2.231,-2.231,-2.231,-2.231,-2.231,-2.231,-2.231,-2.231,-2.231,-2.231,-2.231,-2.231,-2.231,-2.231,-2.231,-2.231,-2.2327,-2.2649,-2.2784,-2.2784,-2.2784,-2.2784,-2.275,-2.2446,-2.231,-2.231,-2.231,-2.231,-2.231,0.0,0.0,0.0,0.0,0.0,0.0,0.0,0.0,0.0,0.0,0.0,0.0,0.0,0.0,0.0,0.0,0.0,0.0,0.0,0.0,0.0,0.0,0.0,0.0,0.0,0.0,0.0,0.0,0.0,0.0,-0.9102,-0.9234,-0.9348,0.0,-1.0766,-1.0941,0.0,0.0,-1.0849,-1.0583,-1.043,-1.039,-1.0351,-1.0007,-0.9867,-0.9881,-1.0199,-1.0044,-0.9749,-1.0195,-1.0027,-0.9588,-0.9372,-0.9452,0.0,0.0,0.0,-1.0872,-1.2616,-1.3726,-1.4538,-1.5214,-1.5766,-1.6602,-1.8334,-1.8889,-1.9507,-2.1071,-2.1108,-2.1161,-2.2189,-2.2556,-2.2703,-2.2703,-2.3199,-2.3657,-2.3878,-2.3896,-2.3855,-2.3717,-2.3392,-2.3069,-2.2746,-2.2463,-2.231,-2.231,-2.231,-2.231,-2.231,-2.231,-2.231,-2.231,-2.231,-2.231,-2.231,-2.231,-2.231,-2.231,-2.231,-2.231,-2.231,-2.231,-2.231,-2.231,-2.231,-2.231,-2.231,-2.231,-2.231,-2.231,-2.231,-2.231,-2.231,-2.231,-2.231,-2.231,0.0,0.0,0.0,0.0,0.0,0.0,0.0,0.0,0.0,0.0,0.0,0.0,0.0,0.0,-0.6401,-0.6963,-0.6894,-0.6792,-0.6678,-0.7205,-0.7533,-0.7592,-0.8034,0.0,-0.8398,-0.8444,0.0,0.0,0.0,0.0,-0.9116,-0.9245,-0.9376,-0.9529,-1.0108,-1.0623,-1.1051,0.0,0.0,-1.1122,-1.0743,-1.0387,-1.0148,-1.0302,-1.009,-0.9828,-1.0784,-1.109,-1.1008,-1.1034,-1.1059,-1.0974,-1.0347,-1.0662,-1.0996,0.0,0.0,0.0,-1.3498,-1.3973,-1.4105,-1.4462,-1.5143,-1.5822,-1.6196,-1.6822,-1.7788,-1.9391,-1.8961,-1.8775,-2.0338,-2.1308,-2.1876,-2.1876,-2.1913,-2.2189,-2.296,-2.307,-2.3233,-2.3663,-2.3392,-2.3069,-2.2746,-2.2463,-2.231,-2.231,-2.231,-2.231,-2.231,-2.231,-2.231,-2.231,-2.231,-2.231,-2.231,-2.231,-2.231,-2.231,-2.231,-2.231,-2.231,-2.231,-2.231,-2.231,-2.231,-2.231,-2.231,-2.231,-2.231,-2.231,-2.231,-2.231,-2.231,-2.231,-2.231,-2.231,0.0,0.0,0.0,0.0,0.0,0.0,0.0,0.0,0.0,0.0,0.0,0.0,0.0,-0.5567,-0.6286,-0.6432,-0.67,-0.7107,-0.7747,-0.7548,-0.7606,-0.8037,-0.8203,-0.8287,-0.8279,-0.8435,0.0,0.0,0.0,-0.8919,-0.9161,-0.9206,-0.9539,-1.0092,-1.019,-1.0223,-1.0225,-1.0607,0.0,-1.0425,-1.0263,-1.0424,-1.0669,-0.9954,-1.0065,-1.0587,-1.0468,-1.072,-1.1269,-1.2439,-1.2253,-1.1394,-1.0681,-1.0573,-1.0701,-1.0674,-1.1141,-1.1982,-1.3432,-1.3525,-1.3369,-1.3917,-1.4324,-1.4774,-1.538,-1.5833,-1.6564,-1.8181,-1.8286,-1.8427,-1.9528,-2.0409,-2.0978,-2.0978,-2.1437,-2.2079,-2.2905,-2.2997,-2.3253,-2.3945,-2.3714,-2.3392,-2.3045,-2.2738,-2.249,-2.2293,-2.231,-2.231,-2.231,-2.231,-2.231,-2.231,-2.231,-2.231,-2.231,-2.231,-2.231,-2.231,-2.231,-2.231,-2.231,-2.231,-2.231,-2.231,-2.231,-2.231,-2.231,-2.231,-2.231,-2.231,-2.231,-2.231,-2.231,-2.231,-2.231,-2.231,0.0,0.0,0.0,0.0,0.0,0.0,0.0,0.0,0.0,0.0,0.0,0.0,0.0,0.0,-0.6566,-0.6823,-0.714,-0.7592,-0.8182,-0.788,-0.7796,-0.8123,-0.8314,-0.8369,-0.8263,-0.8444,-0.8579,0.0,0.0,0.0,0.0,-0.9174,-0.9469,-1.0013,-0.9749,-0.979,0.0,0.0,-1.0349,-1.0112,-0.9813,-1.005,-1.0516,-1.0074,-1.0441,-1.1222,-1.134,-1.172,-1.243,-1.4076,-1.3568,-1.2222,-1.1923,-1.1345,-1.1001,-1.2038,-1.2249,-1.2388,-1.3503,-1.3479,-1.328,-1.3757,-1.3708,-1.3752,-1.4552,-1.4688,-1.5096,-1.666,-1.7146,-1.7619,-1.8702,-1.9326,-1.9769,-2.006,-2.0574,-2.1235,-2.2061,-2.2153,-2.2575,-2.3676,-2.3497,-2.3279,-2.3218,-2.2898,-2.2496,-2.1966,-2.1938,-2.182,-2.1522,-2.1786,-2.204,-2.231,-2.231,-2.231,-2.231,-2.231,-2.231,-2.231,-2.231,-2.231,-2.231,-2.231,-2.231,-2.231,-2.231,-2.231,-2.231,-2.231,-2.231,-2.231,-2.231,-2.231,-2.231,-2.231,-2.231,-2.231,0.0,0.0,0.0,0.0,0.0,0.0,0.0,0.0,0.0,0.0,0.0,0.0,0.0,0.0,0.0,-0.8243,-0.8372,-0.8263,-0.794,-0.8216,-0.8214,-0.7839,-0.8325,-0.8521,-0.8399,-0.8526,-0.864,0.0,0.0,0.0,0.0,0.0,-0.9169,-0.9266,-0.8745,-0.935,-1.077,-1.0636,-1.0495,-1.0319,-0.9499,-0.9309,-0.9632,-1.0706,-1.1274,-1.1712,-1.3448,-1.4168,-1.4489,-1.586,-1.5044,-1.3514,-1.399,-1.3094,-1.2127,-1.3565,-1.3507,-1.3154,0.0,0.0,0.0,-1.3941,-1.3247,-1.277,-1.3573,-1.3343,-1.3376,-1.4888,-1.5438,-1.6169,-1.7803,-1.8096,-1.8353,-1.9161,-1.9305,-1.9583,-2.0393,-2.0503,-2.1108,-2.2795,-2.2696,-2.2701,-2.3165,-2.2923,-2.2315,-2.1281,-2.1204,-2.0865,-2.0035,-2.0737,-2.1498,-2.2243,-2.2276,-2.2293,-2.231,-2.231,-2.231,-2.231,-2.231,-2.231,-2.231,-2.231,-2.231,-2.231,-2.231,-2.231,-2.231,-2.231,-2.231,-2.231,-2.231,-2.231,-2.231,-2.231,-2.231,-2.231,0.0,0.0,0.0,0.0,0.0,0.0,0.0,0.0,0.0,0.0,0.0,0.0,0.0,0.0,-0.8989,-0.8758,-0.8574,-0.8425,-0.8335,-0.8108,-0.8065,-0.8297,-0.8322,-0.8387,-0.8534,-0.8636,-0.8705,-0.8769,0.0,0.0,0.0,0.0,0.0,0.0,-0.8796,-0.9176,-1.0057,-0.9888,-0.9902,-1.0087,-1.0569,-1.034,-0.9854,-1.1065,-1.2285,-1.334,-1.3221,-1.3612,-1.447,-1.6168,-1.5545,-1.3943,-1.3311,-1.29,-1.2765,-1.3275,-1.3268,-1.3227,-1.3899,0.0,0.0,0.0,0.0,0.0,-1.2598,-1.222,-1.2376,-1.477,-1.4923,-1.534,-1.7664,-1.8096,-1.8353,-1.9161,-1.9305,-1.9583,-2.0393,-2.0503,-2.1108,-2.2795,-2.2696,-2.2785,-2.3494,-2.3259,-2.2608,-2.1574,-2.148,-2.1053,-2.0061,-2.0204,-2.0703,-2.1465,-2.1498,-2.1752,-2.231,-2.231,-2.231,-2.231,-2.231,-2.231,-2.231,-2.231,-2.231,-2.231,-2.231,-2.231,-2.231,-2.231,-2.231,-2.231,-2.231,-2.231,-2.231,-2.231,-2.231,-2.231,0.0,0.0,0.0,0.0,0.0,0.0,0.0,0.0,0.0,0.0,0.0,0.0,0.0,0.0,0.0,-0.8813,-0.8897,-0.8785,-0.8289,-0.8465,-0.8482,-0.8248,-0.8472,-0.8595,-0.8646,-0.8743,-0.8794,-0.8834,0.0,0.0,0.0,0.0,0.0,0.0,0.0,0.0,0.0,-1.0175,-1.0266,-1.0598,-1.1103,-1.1065,-1.08,-1.1837,-1.2896,-1.381,-1.3791,-1.416,-1.486,-1.6373,-1.61,-1.485,-1.3435,-1.3281,-1.3611,-1.3546,-1.3582,-1.36,0.0,0.0,-1.2148,-1.2131,0.0,0.0,-1.2106,-1.1507,-1.146,-1.4119,-1.3924,-1.4001,-1.6407,-1.6628,-1.6922,-1.8304,-1.852,-1.8859,-1.9861,-2.0005,-2.0501,-2.1786,-2.1716,-2.1812,-2.2464,-2.2255,-2.1616,-2.056,-2.0484,-2.0199,-1.957,-1.9816,-2.0382,-2.1187,-2.1498,-2.187,-2.231,-2.231,-2.231,-2.231,-2.231,-2.231,-2.231,-2.231,-2.231,-2.231,-2.231,-2.231,-2.231,-2.231,-2.231,-2.231,-2.231,-2.231,-2.231,-2.231,-2.231,-2.231,0.0,0.0,0.0,0.0,0.0,0.0,0.0,0.0,0.0,0.0,0.0,0.0,0.0,0.0,0.0,0.0,-0.9091,-0.8986,-0.7918,-0.8835,-0.9012,-0.8132,-0.873,-0.901,-0.8843,-0.8941,-0.8976,-0.8925,0.0,0.0,0.0,0.0,0.0,0.0,0.0,0.0,0.0,-1.1121,-1.1302,-1.1693,-1.1603,-1.1677,-1.1944,-1.2845,-1.3337,-1.3714,-1.4781,-1.5177,-1.5331,-1.6284,-1.6487,-1.6017,-1.4083,-1.4024,-1.4554,-1.4167,-1.4159,0.0,0.0,0.0,0.0,-1.1811,-1.0942,0.0,-1.1818,-1.1008,-1.0689,-1.3071,-1.2754,-1.2633,-1.4618,-1.4602,-1.4969,-1.6974,-1.7346,-1.7839,-1.9115,-1.9305,-1.9601,-2.0393,-2.0316,-2.0388,-2.0901,-2.071,-2.0102,-1.9039,-1.885,-1.8775,-1.8775,-1.9393,-2.0128,-2.0933,-2.1667,-2.2107,-2.2192,-2.226,-2.231,-2.231,-2.231,-2.231,-2.231,-2.231,-2.231,-2.231,-2.231,-2.231,-2.231,-2.231,-2.231,-2.231,-2.231,-2.231,-2.231,-2.231,-2.231,-2.231,-0.2816,0.0,0.0,0.0,0.0,0.0,0.0,0.0,0.0,0.0,0.0,0.0,0.0,0.0,0.0,0.0,-0.8167,-0.7722,-0.7585,-0.76,-0.8109,-0.9218,-0.9157,-0.9313,-0.975,-0.9664,-0.9446,-0.9057,0.0,0.0,0.0,0.0,0.0,0.0,0.0,0.0,0.0,-1.1959,-1.2336,-1.3008,-1.36,-1.2943,-1.1777,-1.3592,-1.4419,-1.4659,-1.4935,-1.5035,-1.5026,-1.486,-1.5894,-1.6866,-1.4721,-1.4696,-1.533,-1.4609,-1.4271,-1.4092,-1.3931,-1.3347,-1.2608,-1.1799,-1.0948,0.0,-1.0772,-1.0411,-1.0394,-1.1813,-1.2222,-1.269,-1.3906,-1.4564,-1.5204,-1.6011,-1.6853,-1.7841,-1.9115,-1.9305,-1.9601,-2.0393,-2.0263,-2.0425,-2.1237,-2.1013,-2.0398,-1.9369,-1.8495,-1.8014,-1.8014,-1.8166,-1.8572,-1.9316,-2.0078,-2.0771,-2.1397,-2.2006,-2.231,-2.231,-2.231,-2.231,-2.231,-2.231,-2.231,-2.231,-2.231,-2.231,-2.231,-2.231,-2.231,-2.231,-2.231,-2.231,-2.231,-2.231,-2.231,-2.231,-0.2907,0.0,0.0,0.0,0.0,0.0,0.0,0.0,0.0,0.0,0.0,0.0,0.0,0.0,0.0,0.0,0.0,0.0,0.0,-0.8168,-0.8755,-0.9231,-0.9561,-0.9904,-1.0229,-1.0291,-1.0222,-1.0042,0.0,0.0,0.0,0.0,0.0,0.0,0.0,0.0,0.0,-1.2007,-1.2805,-1.3683,-1.4025,-1.3489,-1.2372,-1.1177,-1.2325,-1.4616,-1.4793,-1.4887,-1.4898,-1.4518,-1.5166,-1.6111,-1.6138,-1.5628,-1.5001,-1.5007,-1.4289,-1.3502,-1.3423,-1.279,-1.195,-1.1146,-1.0622,0.0,0.0,-1.012,-1.0225,-1.1364,-1.1448,-1.1525,-1.227,-1.2786,-1.3412,-1.4349,-1.5084,-1.5952,-1.7222,-1.8404,-1.9246,-1.9524,-1.9434,-1.9483,-1.9779,-1.9531,-1.9139,-1.8645,-1.8087,-1.7811,-1.7811,-1.8149,-1.8521,-1.8877,-1.9993,-2.0788,-2.1204,-2.1938,-2.231,-2.231,-2.231,-2.231,-2.231,-2.231,-2.231,-2.231,-2.231,-2.231,-2.231,-2.231,-2.231,-2.231,-2.231,-2.231,-2.231,-2.231,-2.231,-2.231,-0.3062,0.0,0.0,0.0,0.0,0.0,0.0,0.0,0.0,0.0,0.0,0.0,0.0,0.0,0.0,0.0,0.0,0.0,-0.7523,-0.8633,-0.9123,-0.8715,-0.9756,-1.0329,-1.022,-1.0624,-1.0859,-1.0939,0.0,0.0,0.0,0.0,0.0,0.0,0.0,0.0,0.0,-1.2203,-1.3197,-1.4115,-1.3897,-1.3345,-1.2332,-0.9396,-1.072,-1.4162,-1.4537,-1.4738,-1.4859,-1.4854,-1.5005,-1.5479,-1.7079,-1.6295,-1.4837,-1.5121,-1.4193,-1.3028,-1.2916,-1.242,-1.1733,-1.0922,-1.0627,-1.047,0.0,0.0,0.0,-1.0857,-1.0781,-1.0591,-1.0698,-1.1104,-1.1687,-1.247,-1.3029,-1.369,-1.463,-1.6603,-1.7914,-1.7869,-1.7739,-1.7693,-1.7811,-1.7667,-1.7659,-1.7794,-1.7676,-1.7659,-1.7772,-1.8369,-1.8691,-1.8691,-2.0162,-2.0957,-2.0957,-2.1854,-2.231,-2.231,-2.231,-2.231,-2.231,-2.231,-2.231,-2.231,-2.231,-2.231,-2.231,-2.231,-2.231,-2.231,-2.231,-2.231,-2.231,-2.231,-2.231,-2.231,-0.3486,-0.2945,0.0,0.0,0.0,0.0,0.0,0.0,0.0,0.0,0.0,0.0,-0.8074,-0.694,-0.6777,-0.842,-0.6031,-0.5225,-0.712,-0.6967,-0.7137,-0.7881,-0.9407,-0.9927,-0.9264,-1.0376,-1.0898,-1.0725,0.0,0.0,0.0,0.0,0.0,0.0,-1.2075,0.0,0.0,-1.3609,-1.3802,-1.4572,-1.4084,-1.2178,-0.9893,-1.2604,-1.3538,-1.3513,-1.4259,-1.4616,-1.486,-1.5801,-1.6501,-1.6843,-1.5981,-1.6081,-1.62,-1.4644,-1.3899,-1.3594,-1.353,-1.3459,-1.3263,-1.2448,-1.1794,-1.1162,-1.0382,0.0,-0.9918,-0.9401,0.0,-1.1493,-1.0245,0.0,0.0,-1.0689,-1.1624,-1.2415,-1.2088,-1.3234,-1.4404,-1.5141,-1.4651,-1.4832,-1.6302,-1.6665,-1.7084,-1.776,-1.7185,-1.7101,-1.7777,-1.7896,-1.7929,-1.7929,-1.9343,-2.0137,-2.0137,-2.16,-2.231,-2.231,-2.231,-2.231,-2.231,-2.231,-2.231,-2.231,-2.231,-2.231,-2.231,-2.231,-2.231,-2.231,-2.231,-2.231,-2.231,-2.231,-2.231,-2.231,-0.3416,-0.3377,0.0,0.0,0.0,0.0,0.0,0.0,0.0,0.0,0.0,0.0,-0.9563,-0.8246,-0.7855,-0.9384,-0.7416,-0.6473,-0.7372,-0.7336,0.0,-1.0444,-1.0697,-1.0988,-1.1418,-1.15,-1.1508,0.0,-1.1659,0.0,0.0,0.0,0.0,0.0,-1.2452,-1.2605,-1.274,-1.4791,-1.5365,-1.4864,-1.4876,-1.3457,-1.1489,-1.2721,-1.0018,-0.5626,-0.5965,-0.7928,-1.0989,-1.5221,-1.704,-1.756,-1.7775,-1.6826,-1.5625,-1.5494,-1.4161,-1.2834,-1.3435,-1.365,-1.3524,-1.2748,-1.2669,-1.2425,-1.1052,-1.07,-1.0479,-0.9787,0.0,0.0,0.0,0.0,0.0,0.0,-1.0473,-1.11,-1.0885,-1.1218,-1.2161,-1.4005,-1.4018,-1.4298,-1.5324,-1.4727,-1.4233,-1.4156,-1.5041,-1.5637,-1.5695,-1.704,-1.8014,-1.842,-1.9444,-2.0204,-2.0686,-2.1769,-2.231,-2.231,-2.231,-2.231,-2.231,-2.231,-2.231,-2.231,-2.231,-2.231,-2.231,-2.231,-2.231,-2.231,-2.231,-2.231,-2.231,-2.231,-2.231,-2.231,-0.3479,0.0,0.0,0.0,0.0,0.0,0.0,0.0,-0.5787,-0.7261,-0.7074,-0.7822,-1.0443,-0.9008,-0.8607,-1.0493,-0.8501,-0.7394,-0.7945,-0.8143,-0.9192,-1.1363,-1.149,-1.1661,-1.1926,-1.2102,-1.2155,0.0,0.0,0.0,0.0,0.0,0.0,0.0,0.0,-1.2589,-1.2322,-1.513,-1.6262,-1.6201,-1.6504,-1.452,-1.1475,-1.199,-0.7123,0.0,0.0,-0.2259,-0.6227,-1.2727,-1.6156,-1.7872,-1.8818,-1.7526,-1.577,-1.6307,-1.4929,-1.3322,-1.3854,-1.4053,-1.3944,-1.3141,-1.3119,-1.2981,-1.1755,-1.1237,-1.0841,-1.0233,-1.0565,0.0,0.0,0.0,-1.0113,-0.9019,0.0,-0.9745,-0.9624,-0.9599,-1.0312,-1.2313,-1.2831,-1.3227,-1.3675,-1.2885,-1.2209,-1.1936,-1.3198,-1.4154,-1.4489,-1.6191,-1.7702,-1.886,-1.9613,-2.033,-2.1009,-2.1866,-2.2237,-2.2106,-2.2237,-2.231,-2.231,-2.231,-2.231,-2.231,-2.231,-2.231,-2.231,-2.231,-2.231,-2.231,-2.231,-2.231,-2.231,-2.231,-2.231,-2.231,-0.389,-0.3894,0.0,0.0,-0.4717,0.0,-0.6233,-0.6502,-0.6862,-0.7508,-0.7196,-0.7783,-1.0078,-0.8187,-0.8171,-1.1721,-0.8193,-0.6662,-0.8819,-0.902,-0.9,-0.8831,-1.111,-1.1329,-0.9074,-1.1608,-1.2612,-1.1912,0.0,0.0,0.0,0.0,0.0,0.0,-1.253,-1.3361,-1.5198,-1.4223,-1.5875,-1.9164,-1.9179,-1.4433,-0.7738,-1.0973,-0.7123,0.0,0.0,-0.0092,-0.1231,-0.7733,-1.3398,-1.7723,-1.7827,-1.7817,-1.7623,-1.6679,-1.633,-1.608,-1.5284,-1.5092,-1.4932,-1.4073,-1.3055,-1.2267,-1.2414,-1.1601,-1.066,-1.0199,-1.0632,-1.0622,-0.9088,-0.9669,-0.986,-0.8213,-0.8231,0.0,0.0,-0.8258,-0.8735,-0.9287,-1.0083,-1.065,-1.074,-1.1454,-1.2226,-1.2918,-1.2351,-1.2936,-1.5152,-1.5464,-1.6595,-1.8819,-1.9613,-2.0166,-2.0508,-2.1692,-2.2061,-2.1628,-2.2077,-2.231,-2.231,-2.231,-2.231,-2.231,-2.231,-2.231,-2.231,-2.231,-2.231,-2.231,-2.231,-2.231,-2.231,-2.231,-2.231,-2.231,0.0,0.0,0.0,-0.4629,-0.4864,-0.5313,-0.615,-0.6433,-0.7011,-0.8221,-0.7955,-0.8702,-1.1534,-1.014,-1.0153,-1.2984,-1.1064,-1.0107,-1.1133,-1.1687,-1.2137,-1.2396,-1.325,-1.3613,-1.3395,-1.3166,-1.262,-1.1689,-1.1991,0.0,0.0,0.0,0.0,0.0,0.0,-1.344,-1.445,-1.5055,-1.4373,-1.3051,-1.4291,-1.355,-1.1148,-0.6062,-0.2405,0.0,0.0,0.0,-0.0331,-0.2535,-0.9969,-1.8357,-1.8677,-1.8171,-1.7417,-1.7302,-1.6689,-1.606,-1.6023,-1.6422,-1.6671,-1.5881,-1.5223,-1.4584,-1.3871,-1.2556,-1.1481,-1.131,-1.1122,-1.0639,-0.9594,-0.9588,-0.9326,-0.8049,-0.8044,-0.8162,0.0,-0.8146,-0.8364,-0.8706,-0.8888,-0.9065,-0.9267,-0.8301,-0.7947,-0.8596,-0.9215,-1.0547,-1.2742,-1.4458,-1.6678,-1.9545,-1.9866,-2.0391,-2.1233,-2.1632,-2.1764,-2.1582,-2.1764,-2.2003,-2.231,-2.231,-2.231,-2.231,-2.231,-2.231,-2.231,-2.231,-2.231,-2.231,-2.231,-2.231,-2.231,-2.231,-2.231,-2.231,-0.4633,-0.4633,-0.4655,-0.4736,-0.4894,-0.5353,-0.637,-0.6895,-0.7507,-0.8438,-0.8525,-0.9354,-1.164,-1.0856,-1.105,-1.325,-1.2387,-1.1983,-1.2553,-1.2711,-1.3286,-1.4442,-1.4225,-1.4137,-1.4317,-1.3691,-1.2867,-1.174,-1.2027,-1.1968,0.0,0.0,0.0,0.0,0.0,-1.2952,-1.3104,-1.3006,-1.2311,-1.1368,-1.2579,-1.3444,-1.3343,-0.7305,-0.2923,0.0,0.0,0.0,0.0,0.0,-0.6751,-1.5585,-1.814,-1.8431,-1.7879,-1.8088,-1.7659,-1.711,-1.7067,-1.7436,-1.7636,-1.6889,-1.6391,-1.5921,-1.5279,-1.3973,-1.2974,-1.3087,-1.2239,-1.1318,-1.07,-0.9992,-0.9224,-0.8334,-0.8066,-0.7968,0.0,-0.7965,-0.8023,-0.831,-0.8246,-0.8171,-0.8225,-0.717,-0.6502,-0.6577,-0.7599,-0.9309,-1.1857,-1.3564,-1.6107,-1.9653,-1.9805,-2.0301,-2.1399,-2.1521,-2.1582,-2.1582,-2.1764,-2.2003,-2.231,-2.231,-2.231,-2.231,-2.231,-2.231,-2.231,-2.231,-2.231,-2.231,-2.231,-2.231,-2.231,-2.231,-2.231,-2.231,-0.4722,-0.4724,-0.4646,-0.4406,-0.4874,-0.5693,-0.691,-0.7798,-0.8306,-0.8125,-0.8851,-0.9662,-1.0514,-1.0326,-1.0845,-1.2611,-1.2164,-1.2164,-1.3032,-1.2176,-1.2569,-1.4636,-1.4065,-1.3121,-1.1925,-1.3249,-1.3304,-1.2009,-1.2138,0.0,0.0,0.0,0.0,0.0,-1.2003,-1.1979,-1.1434,-0.8638,-0.9753,-1.344,-1.3904,-1.4054,-1.4012,-1.4086,-0.852,-0.0642,-0.016,0.0,0.0,0.0,-0.376,-0.9606,-1.62,-1.8586,-1.8966,-1.9019,-1.915,-1.9124,-1.8372,-1.8108,-1.7896,-1.7188,-1.6604,-1.6264,-1.6571,-1.5713,-1.496,-1.5261,-1.3938,-1.2626,-1.2319,-1.0896,-0.96,-0.9017,-0.8228,-0.7717,-0.7847,-0.7711,-0.7712,-0.8048,-0.8097,-0.7973,-0.7607,-0.7862,-0.7751,-0.6973,-0.7478,-0.922,-1.2406,-1.2819,-1.4886,-1.9127,-1.9329,-1.9906,-2.0943,-2.1337,-2.1552,-2.1598,-2.2032,-2.2254,-2.231,-2.231,-2.231,-2.231,-2.231,-2.231,-2.231,-2.231,-2.231,-2.231,-2.231,-2.231,-2.231,-2.231,-2.231,-2.231,-0.4843,-0.5039,-0.5243,-0.5262,-0.5892,-0.6479,-0.6756,-0.7334,-0.7888,-0.8335,-0.8593,-0.9221,-1.053,-1.0636,-1.1015,-1.1962,-1.1895,-1.2104,-1.2846,-1.3328,-1.3574,-1.3543,-1.5328,-1.532,-1.3178,-1.4176,-1.3845,-1.2071,-1.2205,-1.1792,-1.0849,0.0,0.0,0.0,0.0,-1.1334,-1.0466,-0.9915,-0.7333,-0.4225,-1.1266,-1.41,-1.4086,-1.41,-1.2585,-0.9554,-0.2513,0.0,0.0,0.0,-0.1017,-0.4114,-1.4621,-1.8191,-1.8569,-1.9082,-1.9259,-1.9234,-1.9051,-1.8977,-1.8926,-1.8739,-1.7975,-1.7283,-1.7216,-1.6428,-1.5696,-1.5746,-1.5057,-1.4184,-1.333,-1.1915,-1.0518,-0.9388,-0.8243,-0.7432,-0.7334,-0.7475,-0.7692,-0.7927,-0.8216,-0.8102,-0.7359,-0.6582,-0.6465,-0.7295,-0.6939,-0.7914,-1.0697,-1.1804,-1.3865,-1.7213,-1.8426,-1.9507,-2.0467,-2.0583,-2.0813,-2.115,-2.1291,-2.1691,-2.231,-2.231,-2.231,-2.231,-2.231,-2.231,-2.231,-2.231,-2.231,-2.231,-2.231,-2.231,-2.231,-2.231,-2.231,-2.231,-0.4941,-0.5166,-0.5397,-0.5491,-0.5963,-0.6553,-0.7247,-0.8103,-0.8836,-0.9278,-0.994,-1.0526,-1.0889,-1.1117,-1.1401,-1.1775,-1.1805,-1.2209,-1.3166,-1.3229,-1.3404,-1.381,-1.5286,-1.5467,-1.416,-1.4436,-1.3842,-1.2266,-1.2343,-1.1854,-1.0788,0.0,0.0,0.0,0.0,-1.0511,-0.9642,-0.9876,-0.8541,-0.6345,-0.748,-1.041,0.0,-1.41,-1.41,-1.2852,-0.3387,0.0,0.0,0.0,0.0,-0.1167,-0.7899,-1.2638,-1.6165,-1.842,-1.9178,-1.9305,-1.9305,-1.9305,-1.9305,-1.9305,-1.8864,-1.8374,-1.8258,-1.7545,-1.6998,-1.732,-1.6516,-1.5651,-1.5321,-1.3374,-1.1158,-0.91,-0.8065,-0.7452,-0.7212,-0.7299,-0.7493,-0.7773,-0.7828,-0.7644,-0.7113,-0.6421,-0.6246,-0.6834,-0.6465,-0.7619,-1.0835,-1.1128,-1.2744,-1.6203,-1.6907,-1.7532,-1.81,-1.9485,-2.0145,-2.0147,-2.1111,-2.1827,-2.231,-2.231,-2.231,-2.231,-2.231,-2.231,-2.231,-2.231,-2.231,-2.231,-2.231,-2.231,-2.231,-2.231,-2.231,-2.231,-0.5029,-0.5214,-0.5437,-0.5647,-0.5716,-0.6345,-0.8193,-0.9207,-0.9868,-1.0209,-1.1531,-1.2114,-1.1222,-1.1603,-1.1925,-1.1925,-1.1925,-1.2463,-1.3735,-1.2628,-1.2777,-1.4707,-1.4652,-1.4688,-1.4913,-1.3951,-1.2847,-1.1677,-1.223,-1.2104,0.0,0.0,0.0,0.0,0.0,-0.9748,-0.9171,-0.9492,-1.1187,-1.2864,-0.3691,-0.492,-1.2389,-1.3619,-1.3333,-1.1176,-0.2941,0.0,0.0,0.0,-0.112,-0.2533,-0.2533,-0.7494,-1.4038,-1.7781,-1.9063,-1.9305,-1.9305,-1.9305,-1.9305,-1.9305,-1.9305,-1.9305,-1.9305,-1.8757,-1.8463,-1.9161,-1.8052,-1.7065,-1.7462,-1.4808,-1.1676,-0.8989,-0.8124,-0.7717,-0.751,-0.7502,-0.7608,-0.7862,-0.7683,0.0,-0.717,-0.6938,-0.662,-0.6149,-0.6162,-0.7688,-1.1114,-1.0402,-1.1525,-1.5071,-1.5222,-1.535,-1.5533,-1.8585,-1.9828,-1.9296,-2.1246,-2.2237,-2.231,-2.231,-2.231,-2.231,-2.231,-2.231,-2.231,-2.231,-2.231,-2.231,-2.231,-2.231,-2.231,-2.231,-2.231,-2.231,-0.5078,-0.5472,-0.6082,-0.6978,-0.6417,-0.679,-0.9504,-0.8524,-0.7964,-0.9324,-1.0112,-1.0624,-1.077,-1.1878,-1.2636,-1.2636,-1.2636,-1.2957,-1.375,-1.3062,-1.3295,-1.4737,-1.4944,-1.5191,-1.5619,-1.1817,-0.8996,-0.73,-1.0844,-1.191,-1.0669,-1.0575,0.0,0.0,0.0,-0.9677,-0.9968,-1.096,-1.0975,-0.9743,-0.2784,-0.0998,-0.3316,-1.1123,-0.9251,-0.2246,-0.0588,0.0,0.0,0.0,-0.709,-1.5925,-1.5925,-1.6913,-1.8225,-1.899,-1.9259,-1.9305,-1.9305,-1.9305,-1.9305,-1.9305,-1.9305,-1.9305,-1.9305,-1.9179,-1.9124,-1.9271,-1.9054,-1.8611,-1.7876,-1.505,-1.2406,-1.1108,-0.9426,-0.831,-0.8425,-0.9143,-0.9478,-0.8991,-0.975,-0.9804,-0.8594,-0.7512,-0.6694,-0.6227,-0.6496,-0.6939,-0.7524,-0.8728,-1.0026,-1.133,-1.4383,-1.6225,-1.672,-1.9449,-2.0751,-2.0671,-2.1379,-2.1928,-2.231,-2.231,-2.231,-2.231,-2.231,-2.231,-2.231,-2.231,-2.231,-2.231,-2.231,-2.231,-2.231,-2.231,-2.231,-2.231,-0.5501,-0.5745,-0.6038,-0.6477,-0.6456,-0.7011,-0.8915,-0.8515,-0.8641,-1.0419,-1.0973,-1.1319,-1.1508,-1.2282,-1.2801,-1.2801,-1.3107,-1.3555,-1.415,-1.3406,-1.3346,-1.4244,-1.4369,-1.4867,-1.5769,-1.3621,-1.0272,-0.5786,-1.0363,-1.1775,-1.018,-1.0446,-0.9922,-0.8838,0.0,-1.0459,-1.1514,-1.1019,-1.1312,-1.1387,-0.3264,0.0,-0.0499,-0.5045,-0.3957,-0.0882,-0.7604,-1.1104,-1.2297,-1.059,-1.4162,-1.9305,-1.9305,-1.9305,-1.9305,-1.9305,-1.9305,-1.9305,-1.9305,-1.9212,-1.915,-1.915,-1.9033,-1.893,-1.893,-1.893,-1.9056,-1.9435,-1.9507,-1.9255,-1.8412,-1.6726,-1.512,-1.4108,-1.1693,-1.0094,-1.0461,-1.0599,-1.0455,-0.989,-1.0526,-1.0611,-0.9568,-0.8252,-0.7111,-0.6218,-0.6356,-0.6721,-0.7238,-0.785,-0.9286,-1.1729,-1.3574,-1.4528,-1.4525,-1.8705,-1.994,-1.8323,-2.0803,-2.2077,-2.231,-2.231,-2.231,-2.231,-2.231,-2.231,-2.231,-2.231,-2.231,-2.231,-2.231,-2.231,-2.231,-2.231,-2.231,-2.231,-0.6407,-0.643,-0.6386,-0.6466,-0.6675,-0.7211,-0.8317,-0.8721,-0.9583,-1.1424,-1.1862,-1.2019,-1.2091,-1.2594,-1.2939,-1.3002,-1.363,-1.4139,-1.4465,-1.36,-1.2822,-1.2142,-1.2942,-1.4139,-1.5769,-1.3595,-0.9747,-0.426,-0.9744,-1.1655,-1.0149,-1.057,-1.0256,-0.9436,-1.0049,-1.0903,-1.1858,-1.0711,-1.0701,-1.0746,-0.3081,0.0,0.0,0.0,0.0,-0.178,-1.5454,-2.1987,-2.3731,-2.0666,-1.9638,-1.9638,-1.9638,-1.9473,-1.9289,-1.9243,-1.9259,-1.9274,-1.918,-1.9084,-1.9002,-1.8931,-1.8752,-1.8585,-1.8585,-1.8585,-1.8815,-1.9555,-1.982,-1.9788,-1.9339,-1.861,-1.7698,-1.6465,-1.375,-1.1814,-1.1896,-1.1813,-1.1521,-1.0875,-1.1363,-1.1409,-1.0562,-0.9168,-0.778,-0.6504,-0.6425,-0.7023,-0.8354,-0.7627,-0.888,-1.2639,-1.2768,-1.2749,-1.2745,-1.7785,-1.9213,-1.7096,-2.0603,-2.231,-2.231,-2.231,-2.231,-2.231,-2.231,-2.231,-2.231,-2.231,-2.231,-2.231,-2.231,-2.231,-2.231,-2.231,-2.231,-2.231,-0.8112,-0.8076,-0.8109,-0.8846,-0.7863,-0.7545,-0.9216,-0.8995,-0.9205,-1.0801,-1.1003,-1.1108,-1.1373,-1.2501,-1.3381,-1.368,-1.4318,-1.4618,-1.4423,-1.36,-1.1176,-0.6827,-1.0066,-1.3166,-1.5739,-0.64,-0.1152,-0.0502,-0.8139,-1.1571,-1.1013,-1.1391,-1.0928,-0.978,-1.0386,-0.9944,-0.8847,-1.0613,-0.7489,-0.1284,-0.0367,0.0,0.0,0.0,0.0,-0.2092,-1.8023,-2.3933,-2.3841,-2.1528,-2.0739,-2.0739,-2.0739,-2.0079,-1.9259,-1.9086,-1.915,-1.9212,-1.8771,-1.8825,-1.8931,-1.8697,-1.8604,-1.8585,-1.8585,-1.8585,-1.8815,-1.9555,-2.0223,-2.0767,-2.1015,-1.9967,-1.8492,-1.6752,-1.4532,-1.2545,-1.1132,-1.2612,-1.3404,-1.2255,-1.3346,-1.3518,-1.1889,-1.0289,-0.8803,-0.7466,-0.7255,-0.8074,-1.0071,-0.846,-0.8714,-1.1459,-1.1845,-1.282,-1.4533,-1.7788,-1.9967,-2.1075,-2.1903,-2.231,-2.231,-2.231,-2.231,-2.231,-2.231,-2.231,-2.231,-2.231,-2.231,-2.231,-2.231,-2.231,-2.231,-2.231,-2.231,-2.231,-0.7782,-0.786,-0.8038,-0.881,-0.8863,-0.9083,-0.9946,-0.9951,-1.0091,-1.0703,-1.1195,-1.1535,-1.1643,-1.3176,-1.4231,-1.4393,-1.4992,-1.5364,-1.5231,-1.1925,-0.769,-0.2579,-0.3875,-0.5222,-0.6295,-0.2173,-0.1217,-0.3713,-0.6891,-1.0232,-1.3595,-1.2146,-1.0975,-1.0144,-1.1283,-1.2537,-1.3999,-1.6791,-1.1026,-0.0389,-0.4854,-0.9371,-1.2415,-0.3417,-0.3028,-0.8112,-1.4609,-2.006,-2.3988,-2.263,-2.1602,-2.0794,-2.0134,-1.9638,-1.9274,-1.9196,-1.915,-1.9067,-1.8878,-1.8679,-1.8489,-1.8391,-1.8558,-1.8775,-1.8775,-1.912,-1.9648,-2.0422,-2.0952,-2.133,-2.1444,-2.0965,-2.0025,-1.8481,-1.7159,-1.5503,-1.3176,-1.4509,-1.4898,-1.2677,-1.3527,-1.4183,-1.3964,-1.1279,-0.9794,-1.04,-0.9,-0.8084,-0.795,-0.9097,-1.0791,-1.2956,-1.3767,-1.5089,-1.7009,-1.8656,-1.97,-2.0125,-2.1587,-2.231,-2.231,-2.231,-2.231,-2.231,-2.231,-2.231,-2.231,-2.231,-2.231,-2.231,-2.231,-2.231,-2.231,-2.231,-2.231,-2.231,-0.8211,-0.8314,-0.8485,-0.9091,-0.964,-1.0093,-1.0363,-1.0566,-1.0812,-1.1117,-1.175,-1.2092,-1.1925,-1.3382,-1.4478,-1.4767,-1.5424,-1.5799,-1.5799,-1.2306,-0.7854,-0.2548,-0.2323,-0.2323,-0.2323,-0.2323,-0.3767,-0.6705,-0.7968,-1.0534,-1.424,-1.1999,-1.0849,-1.0735,-1.1739,-1.3485,-1.59,-2.0398,-1.6221,-0.6833,-0.9878,-1.5595,-2.116,-1.0588,-0.8869,-1.2377,-1.4521,-1.9115,-2.406,-2.3027,-2.1972,-2.0929,-2.0246,-1.9709,-1.9274,-1.913,-1.9051,-1.8949,-1.8715,-1.843,-1.8187,-1.8103,-1.8495,-1.8894,-1.8894,-1.9299,-1.9841,-2.0399,-2.1028,-2.1436,-2.1292,-2.1194,-2.0695,-1.933,-1.8628,-1.7268,-1.4395,-1.5599,-1.5724,-1.2931,-1.3528,-1.4365,-1.4865,-1.2148,-1.0821,-1.1994,-1.0472,-0.9042,-0.7973,-0.9643,-1.156,-1.3591,-1.392,-1.5268,-1.7812,-1.8407,-1.917,-2.0072,-2.1595,-2.231,-2.231,-2.231,-2.231,-2.231,-2.231,-2.231,-2.231,-2.231,-2.231,-2.231,-2.231,-2.231,-2.231,-2.231,-2.231,-2.231,-1.0097,-1.0042,-0.9974,-1.0326,-1.016,-1.0093,-1.0363,-1.0566,-1.1064,-1.206,-1.2553,-1.2564,-1.1966,-1.2742,-1.3733,-1.4695,-1.5424,-1.5799,-1.5799,-1.5739,-1.334,-0.8034,-0.7809,-0.7809,-0.7809,-0.7809,-0.7824,-0.7869,-1.2133,-1.3421,-1.1912,-1.0687,-1.0639,-1.1579,-1.1532,-1.1396,-1.1671,-1.9147,-2.2209,-2.1397,-1.4056,-1.5595,-2.2293,-2.2107,-1.7899,-1.3037,-2.0195,-2.3383,-2.3984,-2.2517,-2.1736,-2.1442,-2.1696,-2.0645,-1.9212,-1.8735,-1.8789,-1.8843,-1.8035,-1.8014,-1.8125,-1.7861,-1.8352,-1.8894,-1.8894,-1.891,-1.891,-1.8927,-2.0154,-2.1054,-2.061,-2.0524,-2.0048,-1.8643,-1.8119,-1.6874,-1.3925,-1.5355,-1.5724,-1.3107,-1.3749,-1.4307,-1.4036,-1.2829,-1.1847,-1.1359,-1.1398,-1.1535,-1.1712,-1.0084,-1.0202,-1.2542,-1.1024,-1.2123,-1.6187,-1.6477,-1.8531,-2.2265,-2.2282,-2.231,-2.231,-2.231,-2.231,-2.231,-2.231,-2.231,-2.231,-2.231,-2.231,-2.231,-2.231,-2.231,-2.231,-2.231,-2.231,-2.231,-0.9129,-0.9724,-1.0331,-1.1102,-1.1457,-1.1783,-1.2237,-1.2309,-1.2363,-1.2697,-1.2969,-1.3252,-1.351,-1.4407,-1.5117,-1.5441,-1.5679,-1.5799,-1.5799,-1.5799,-1.5049,-1.3355,-1.3295,-1.3295,-1.3295,-1.3295,-1.3705,-1.4588,-1.4909,-1.3891,-1.1781,-1.6303,-1.8579,-1.8882,-1.8857,-1.8822,-1.8894,-2.1295,-2.231,-2.2107,-1.9705,-2.0179,-2.231,-2.231,-2.1209,-1.9963,-2.2113,-2.3318,-2.3687,-2.2478,-2.1629,-2.1003,-2.0583,-1.9686,-1.8896,-1.9243,-1.8913,-1.8496,-1.8745,-1.8369,-1.7922,-1.7833,-1.8741,-1.9536,-1.9012,-1.9299,-1.9824,-2.0348,-2.001,-1.9602,-1.9427,-1.9608,-1.9117,-1.7207,-1.8333,-1.8276,-1.4928,-1.5869,-1.6223,-1.439,-1.4304,-1.4906,-1.6112,-1.4536,-1.3505,-1.3793,-1.3812,-1.3248,-1.1932,-1.2981,-1.4558,-1.6603,-1.6634,-1.7792,-2.0344,-1.9214,-1.9869,-2.231,-2.231,-2.231,-2.231,-2.231,-2.231,-2.231,-2.231,-2.231,-2.231,-2.231,-2.231,-2.231,-2.231,-2.231,-2.231,-2.231,-2.231,-2.231,-0.9219,-0.99,-1.0714,-1.172,-1.2178,-1.2572,-1.3123,-1.296,-1.297,-1.3481,-1.3499,-1.3824,-1.4744,-1.543,-1.5799,-1.5799,-1.5799,-1.5799,-1.5799,-1.5799,-1.5799,-1.5799,-1.6009,-1.6144,-1.6144,-1.6383,-1.6907,-1.7697,-1.6968,-1.6151,-1.5375,-2.0092,-2.231,-2.231,-2.231,-2.231,-2.231,-2.231,-2.231,-2.231,-2.231,-2.231,-2.231,-2.231,-2.266,-2.3106,-2.2494,-2.2706,-2.3091,-2.1743,-2.105,-2.0613,-1.9734,-1.9303,-1.9177,-1.9458,-1.8923,-1.8391,-1.9316,-1.8898,-1.8285,-1.8572,-1.9553,-2.0264,-1.9486,-1.9664,-1.9985,-1.9925,-1.9367,-1.8809,-1.8538,-1.8654,-1.8395,-1.7159,-1.8363,-1.8542,-1.595,-1.6655,-1.6761,-1.4919,-1.4815,-1.5406,-1.6699,-1.5519,-1.4828,-1.5155,-1.4754,-1.4378,-1.412,-1.5236,-1.642,-1.7613,-1.8222,-1.9417,-2.1313,-2.0178,-2.0505,-2.231,-2.231,-2.231,-2.231,-2.231,-2.231,-2.231,-2.231,-2.231,-2.231,-2.231,-2.231,-2.231,-2.231,-2.231,-2.231,-2.231,-2.231,-2.231,-0.9971,-1.0416,-1.1032,-1.2134,-1.2346,-1.2572,-1.3123,-1.2826,-1.3019,-1.4337,-1.4126,-1.4326,-1.5666,-1.5799,-1.5799,-1.5799,-1.5799,-1.5799,-1.5799,-1.5799,-1.5799,-1.5799,-1.6368,-1.6712,-1.6712,-1.7354,-1.7715,-1.7747,-1.8413,-1.9649,-2.1348,-2.2015,-2.231,-2.231,-2.231,-2.231,-2.231,-2.231,-2.231,-2.231,-2.231,-2.231,-2.231,-2.231,-2.266,-2.2988,-2.1687,-2.1825,-2.2342,-2.0611,-2.0267,-2.0379,-1.9294,-1.9452,-1.99,-1.9493,-1.8875,-1.8586,-1.9755,-1.9553,-1.9147,-1.9816,-2.0568,-2.0906,-2.017,-1.9951,-1.9529,-1.8166,-1.8386,-1.8606,-1.7929,-1.7811,-1.7883,-1.8125,-1.8187,-1.7849,-1.6836,-1.7494,-1.7241,-1.4937,-1.534,-1.5899,-1.6112,-1.601,-1.5829,-1.5575,-1.4686,-1.5177,-1.7514,-1.6897,-1.6473,-1.6533,-1.6853,-1.7941,-1.9851,-1.9773,-2.058,-2.231,-2.231,-2.231,-2.231,-2.231,-2.231,-2.231,-2.231,-2.231,-2.231,-2.231,-2.231,-2.231,-2.231,-2.231,-2.231,-2.231,-2.231,-2.231,-0.8759,-0.9812,-1.0821,-1.1259,-1.1925,-1.2572,-1.3123,-1.3664,-1.4115,-1.4456,-1.4975,-1.5432,-1.5755,-1.5799,-1.5799,-1.5799,-1.5799,-1.5799,-1.5799,-1.5799,-1.5799,-1.5799,-1.6368,-1.6712,-1.6712,-1.7354,-1.7829,-1.8068,-1.9655,-2.0515,-2.073,-2.1809,-2.231,-2.231,-2.231,-2.231,-2.231,-2.231,-2.231,-2.231,-2.231,-2.231,-2.231,-2.231,-2.2517,-2.271,-2.1763,-2.1967,-2.2426,-2.0839,-2.0626,-2.0884,-2.0018,-1.9849,-1.9993,-1.9881,-1.9695,-1.9762,-2.0679,-2.0348,-1.9765,-1.9951,-2.0137,-2.0221,-2.0035,-1.957,-1.9063,-1.8707,-1.8335,-1.8014,-1.7845,-1.7811,-1.7833,-1.7883,-1.8078,-1.7849,-1.6836,-1.687,-1.6774,-1.6252,-1.6149,-1.6435,-1.73,-1.735,-1.6907,-1.5961,-1.7023,-1.7223,-1.6188,-1.8022,-1.9629,-2.0796,-2.0376,-2.0626,-2.1685,-2.1117,-2.1334,-2.231,-2.231,-2.231,-2.231,-2.231,-2.231,-2.231,-2.231,-2.231,-2.231,-2.231,-2.231,-2.231,-2.231,-2.231,-2.231,-2.231,-2.231,-2.231,-0.9147,-1.0008,-1.0812,-1.1222,-1.1902,-1.2517,-1.2785,-1.3631,-1.4278,-1.447,-1.5074,-1.5551,-1.577,-1.5799,-1.5799,-1.5799,-1.5799,-1.5799,-1.5799,-1.5799,-1.5799,-1.5799,-1.6682,-1.716,-1.716,-1.81,-1.8699,-1.887,-2.0091,-2.0687,-2.0752,-2.1582,-2.2106,-2.231,-2.231,-2.231,-2.231,-2.231,-2.231,-2.231,-2.231,-2.231,-2.2276,-2.1921,-2.2156,-2.2539,-2.144,-2.1527,-2.2002,-2.0835,-2.0796,-2.1042,-2.0238,-2.0475,-2.0981,-2.0653,-2.0297,-2.0238,-2.1397,-2.1143,-2.0551,-2.0551,-2.0551,-2.0365,-1.9672,-1.9198,-1.8792,-1.8471,-1.8082,-1.7811,-1.7811,-1.7811,-1.7811,-1.7811,-1.768,-1.7408,-1.6877,-1.6768,-1.6751,-1.6789,-1.6862,-1.716,-1.7738,-1.7811,-1.7535,-1.688,-1.7263,-1.7411,-1.7123,-1.8111,-1.9266,-2.0508,-2.0619,-2.0856,-2.1235,-2.1211,-2.1566,-2.231,-2.231,-2.231,-2.231,-2.231,-2.231,-2.231,-2.231,-2.231,-2.231,-2.231,-2.231,-2.231,-2.231,-2.231,-2.231,-2.231,-2.231,-2.231,-0.9923,-1.0318,-1.0756,-1.1303,-1.1821,-1.2215,-1.2379,-1.324,-1.4023,-1.4456,-1.4907,-1.5359,-1.577,-1.5799,-1.5799,-1.5799,-1.5799,-1.5799,-1.5799,-1.5799,-1.5799,-1.5799,-1.7026,-1.7697,-1.7697,-1.9016,-1.969,-1.969,-2.0089,-2.055,-2.1007,-2.1399,-2.1853,-2.231,-2.231,-2.231,-2.231,-2.231,-2.231,-2.231,-2.231,-2.231,-2.2226,-2.1465,-2.1814,-2.2444,-2.1014,-2.1008,-2.1606,-2.0893,-2.0967,-2.1245,-2.0568,-2.1235,-2.2192,-2.1532,-2.0889,-2.0627,-2.1927,-2.1837,-2.1322,-2.1059,-2.1177,-2.0889,-1.913,-1.891,-1.8826,-1.798,-1.7811,-1.7811,-1.7811,-1.7811,-1.7777,-1.7659,-1.7224,-1.6846,-1.6686,-1.6792,-1.6877,-1.6819,-1.7398,-1.7811,-1.7811,-1.7811,-1.7811,-1.7811,-1.6802,-1.6858,-1.8399,-1.7673,-1.7555,-1.8321,-1.9429,-2.0052,-2.017,-2.0974,-2.1684,-2.231,-2.231,-2.231,-2.231,-2.231,-2.231,-2.231,-2.231,-2.231,-2.231,-2.231,-2.231,-2.231,-2.231,-2.231,-2.231,-2.231,-2.231,-2.231,-0.9056,-0.9557,-1.01,-1.0363,-1.0722,-1.1282,-1.2266,-1.3169,-1.3921,-1.4432,-1.5195,-1.5712,-1.5799,-1.5799,-1.5799,-1.5799,-1.5799,-1.5799,-1.5799,-1.5799,-1.5799,-1.5799,-1.7026,-1.7697,-1.7697,-1.9016,-1.969,-1.969,-2.0089,-2.055,-2.1007,-2.1399,-2.1853,-2.231,-2.231,-2.231,-2.231,-2.231,-2.231,-2.231,-2.231,-2.231,-2.2226,-2.1465,-2.1688,-2.2184,-2.0887,-2.119,-2.2099,-2.154,-2.1687,-2.2124,-2.1989,-2.2124,-2.2293,-2.2175,-2.2057,-2.2006,-2.2243,-2.2226,-2.182,-2.0508,-2.1177,-2.1414,-1.8623,-1.892,-1.9427,-1.8082,-1.7811,-1.7811,-1.7811,-1.7811,-1.7613,-1.7033,-1.6908,-1.6581,-1.5681,-1.6333,-1.6778,-1.6425,-1.7227,-1.7811,-1.7811,-1.7811,-1.7811,-1.7811,-1.7625,-1.7243,-1.6652,-1.7287,-1.7658,-1.7579,-1.9164,-2.0331,-2.0991,-2.1752,-2.2192,-2.231,-2.231,-2.231,-2.231,-2.231,-2.231,-2.231,-2.231,-2.231,-2.231,-2.231,-2.231,-2.231,-2.231,-2.231,-2.231,-2.231,-2.231,-2.231,-0.9155,-0.9555,-0.9929,-1.0017,-1.0411,-1.0982,-1.1839,-1.2951,-1.3871,-1.4418,-1.5255,-1.5799,-1.5799,-1.5799,-1.5799,-1.5799,-1.5799,-1.5799,-1.5799,-1.5799,-1.5963,-1.6278,-1.7174,-1.8059,-1.8762,-1.9375,-1.9818,-2.0035,-2.0227,-2.0634,-2.1337,-2.1521,-2.1853,-2.231,-2.231,-2.231,-2.231,-2.231,-2.231,-2.231,-2.231,-2.231,-2.2226,-2.1465,-2.1651,-2.2186,-2.1351,-2.1576,-2.2271,-2.2177,-2.2209,-2.231,-2.231,-2.231,-2.231,-2.231,-2.231,-2.2226,-2.182,-2.2006,-2.1938,-2.039,-2.115,-2.1735,-1.9478,-1.9512,-1.9681,-1.8623,-1.8082,-1.7811,-1.7811,-1.7811,-1.7579,-1.6901,-1.686,-1.6587,-1.5744,-1.6345,-1.6819,-1.6657,-1.7332,-1.7811,-1.7811,-1.7811,-1.7963,-1.8369,-1.8031,-1.7752,-1.7658,-1.7739,-1.7752,-1.7626,-1.9169,-2.0399,-2.1204,-2.1532,-2.1904,-2.231,-2.231,-2.231,-2.231,-2.231,-2.231,-2.231,-2.231,-2.231,-2.231,-2.231,-2.231,-2.231,-2.231,-2.231,-2.231,-2.231,-2.231,-2.231,-0.9514,-0.9823,-1.0056,-0.9931,-1.0357,-1.0894,-1.15,-1.2687,-1.3734,-1.4405,-1.5255,-1.5799,-1.5799,-1.5799,-1.5799,-1.5799,-1.5799,-1.5799,-1.5799,-1.5933,-1.6219,-1.6697,-1.7488,-1.8493,-1.966,-1.969,-1.9839,-2.0158,-2.0246,-2.0699,-2.146,-2.1568,-2.1853,-2.231,-2.231,-2.231,-2.231,-2.231,-2.231,-2.231,-2.231,-2.231,-2.2226,-2.1465,-2.1651,-2.2237,-2.1696,-2.1858,-2.2321,-2.2537,-2.2463,-2.231,-2.231,-2.231,-2.231,-2.231,-2.231,-2.2192,-2.16,-2.1735,-2.1769,-2.0559,-2.1312,-2.1904,-2.0339,-2.0137,-2.0027,-1.9096,-1.8454,-1.8014,-1.7845,-1.7811,-1.7579,-1.6901,-1.686,-1.6695,-1.6173,-1.6581,-1.6949,-1.7079,-1.7538,-1.7811,-1.7811,-1.7963,-1.8302,-1.886,-1.8538,-1.8488,-1.8877,-1.8538,-1.8295,-1.8295,-1.941,-2.0399,-2.1204,-2.1363,-2.1735,-2.231,-2.231,-2.231,-2.231,-2.231,-2.231,-2.231,-2.231,-2.231,-2.231,-2.231,-2.231,-2.231,-2.231,-2.231,-2.231,-2.231,-2.231,-2.231,-0.988,-1.028,-1.0468,-0.9993,-1.0357,-1.0894,-1.15,-1.2325,-1.3262,-1.4349,-1.5255,-1.5799,-1.5799,-1.5799,-1.5799,-1.5799,-1.5799,-1.5799,-1.5799,-1.6338,-1.6652,-1.6712,-1.7921,-1.8957,-1.9675,-1.969,-1.9711,-1.9747,-2.0124,-2.055,-2.1055,-2.143,-2.1853,-2.231,-2.231,-2.231,-2.231,-2.231,-2.231,-2.231,-2.231,-2.231,-2.2226,-2.1465,-2.1651,-2.2209,-2.1501,-2.1695,-2.231,-2.2321,-2.231,-2.231,-2.231,-2.231,-2.231,-2.231,-2.231,-2.2293,-2.2243,-2.1752,-2.1245,-2.1153,-2.1701,-2.1904,-2.0339,-2.0585,-2.0686,-1.9198,-1.886,-1.8606,-1.7929,-1.7811,-1.7579,-1.6901,-1.686,-1.6864,-1.6755,-1.6826,-1.7113,-1.7664,-1.7777,-1.7811,-1.7811,-1.842,-1.8843,-1.8894,-1.9478,-1.9545,-1.8927,-1.9502,-1.9833,-1.9833,-1.9934,-2.0399,-2.1204,-2.187,-2.226,-2.231,-2.231,-2.231,-2.231,-2.231,-2.231,-2.231,-2.231,-2.231,-2.231,-2.231,-2.231,-2.231,-2.231,-2.231,-2.231,-2.231,-2.231,-2.231,-1.0318,-1.0556,-1.0744,-1.0922,-1.1123,-1.145,-1.2015,-1.2817,-1.3623,-1.4391,-1.5255,-1.5799,-1.5799,-1.5799,-1.5799,-1.5799,-1.5799,-1.5799,-1.5799,-1.6353,-1.707,-1.7891,-1.8837,-1.9435,-1.9675,-1.969,-1.9818,-2.0054,-2.0532,-2.0943,-2.1368,-2.184,-2.2135,-2.231,-2.231,-2.231,-2.231,-2.231,-2.231,-2.231,-2.231,-2.231,-2.2276,-2.1989,-2.2057,-2.2276,-2.1989,-2.2073,-2.231,-2.231,-2.231,-2.231,-2.231,-2.231,-2.231,-2.231,-2.1972,-2.1756,-2.238,-2.2204,-2.1807,-2.1533,-2.2014,-2.2262,-2.124,-2.0879,-2.0556,-1.9747,-1.886,-1.8268,-1.8454,-1.8115,-1.7732,-1.7531,-1.7849,-1.8155,-1.8217,-1.8563,-1.8737,-1.8504,-1.8894,-1.8785,-1.7896,-1.887,-1.9587,-1.9587,-1.9833,-2.0111,-2.0297,-2.0128,-2.0002,-2.0002,-2.0483,-2.0889,-2.1204,-2.1938,-2.231,-2.231,-2.231,-2.231,-2.231,-2.231,-2.231,-2.231,-2.231,-2.231,-2.231,-2.231,-2.231,-2.231,-2.231,-2.231,-2.231,-2.231,-2.231,-2.231,-1.0885,-1.1136,-1.1295,-1.155,-1.1726,-1.1977,-1.2354,-1.3151,-1.3871,-1.4418,-1.5255,-1.5799,-1.5799,-1.5799,-1.5799,-1.5799,-1.5799,-1.5888,-1.6069,-1.6846,-1.7727,-1.8672,-1.9331,-1.969,-1.969,-1.969,-1.9909,-2.0314,-2.0764,-2.1213,-2.1628,-2.2077,-2.231,-2.231,-2.231,-2.231,-2.231,-2.231,-2.231,-2.231,-2.231,-2.231,-2.231,-2.231,-2.231,-2.231,-2.231,-2.231,-2.231,-2.231,-2.231,-2.231,-2.231,-2.231,-2.231,-2.231,-2.1938,-2.1698,-2.2496,-2.2563,-2.2371,-2.2171,-2.2414,-2.2607,-2.2185,-2.1631,-2.1077,-2.0732,-1.9854,-1.9149,-1.9183,-1.8977,-1.8702,-1.8391,-1.8944,-1.9393,-1.9379,-1.9747,-1.9799,-1.9316,-1.9681,-1.9596,-1.8582,-1.9638,-2.0382,-2.0382,-2.0576,-2.0974,-2.1515,-2.0568,-2.012,-2.0382,-2.0906,-2.1204,-2.1204,-2.1938,-2.231,-2.231,-2.231,-2.231,-2.231,-2.231,-2.231,-2.231,-2.231,-2.231,-2.231,-2.231,-2.231,-2.231,-2.231,-2.231,-2.231,-2.231,-2.231,-2.231,-1.1487,-1.2027,-1.2241,-1.1688,-1.2052,-1.2416,-1.2416,-1.3164,-1.3885,-1.4418,-1.5255,-1.5799,-1.5799,-1.5799,-1.5799,-1.5799,-1.5799,-1.6054,-1.6682,-1.7951,-1.8702,-1.8717,-1.9346,-1.969,-1.969,-1.969,-1.9909,-2.0314,-2.0764,-2.1213,-2.1628,-2.2077,-2.231,-2.231,-2.231,-2.231,-2.231,-2.231,-2.231,-2.231,-2.231,-2.231,-2.231,-2.231,-2.231,-2.231,-2.231,-2.231,-2.231,-2.231,-2.231,-2.231,-2.231,-2.231,-2.231,-2.231,-2.231,-2.2377,-2.2634,-2.2721,-2.2797,-2.3117,-2.2947,-2.2797,-2.3117,-2.293,-2.2571,-2.2192,-2.21,-2.1622,-2.0096,-2.0474,-2.064,-1.9499,-1.9975,-2.0384,-2.0069,-2.0018,-2.0018,-2.0002,-2.0002,-2.0002,-2.0002,-2.0737,-2.1221,-2.1204,-2.187,-2.231,-2.231,-2.0846,-2.0382,-2.1187,-2.1221,-2.1221,-2.1221,-2.1938,-2.231,-2.231,-2.231,-2.231,-2.231,-2.231,-2.231,-2.231,-2.231,-2.231,-2.231,-2.231,-2.231,-2.231,-2.231,-2.231,-2.231,-2.231,-2.231,-2.231,-1.2052,-1.2291,-1.2479,-1.2672,-1.2847,-1.2947,-1.2947,-1.3701,-1.4325,-1.4474,-1.5255,-1.5799,-1.5799,-1.5799,-1.5799,-1.5799,-1.5799,-1.6248,-1.7324,-1.8223,-1.8912,-1.9375,-1.957,-1.969,-1.969,-1.969,-1.9747,-1.9874,-2.0632,-2.1055,-2.1181,-2.1945,-2.231,-2.231,-2.231,-2.231,-2.231,-2.231,-2.231,-2.231,-2.231,-2.231,-2.231,-2.231,-2.231,-2.231,-2.231,-2.231,-2.231,-2.231,-2.231,-2.2321,-2.2527,-2.2573,-2.2625,-2.2857,-2.2933,-2.3007,-2.3323,-2.3392,-2.3414,-2.3522,-2.3477,-2.3294,-2.2883,-2.2715,-2.2517,-2.2176,-2.1697,-2.1363,-2.1391,-2.1203,-2.1057,-2.1247,-2.1266,-2.1406,-2.1841,-2.1744,-2.1431,-2.0889,-2.1312,-2.1184,-2.0103,-2.1211,-2.1752,-2.1254,-2.187,-2.231,-2.231,-2.187,-2.1735,-2.1972,-2.1972,-2.1972,-2.1972,-2.2192,-2.231,-2.231,-2.231,-2.231,-2.231,-2.231,-2.231,-2.231,-2.231,-2.231,-2.231,-2.231,-2.231,-2.231,-2.231,-2.231,-2.231,-2.231,-2.231,-2.231,-1.263,-1.271,-1.281,-1.3135,-1.3198,-1.3198,-1.3198,-1.3934,-1.4501,-1.4501,-1.5255,-1.5799,-1.5799,-1.5799,-1.5799,-1.5799,-1.6278,-1.6982,-1.8044,-1.8732,-1.9271,-1.9675,-1.969,-1.969,-1.969,-1.969,-1.9889,-2.0208,-2.0731,-2.1166,-2.1524,-2.2049,-2.231,-2.231,-2.231,-2.231,-2.231,-2.231,-2.231,-2.231,-2.231,-2.231,-2.231,-2.231,-2.231,-2.231,-2.231,-2.231,-2.231,-2.231,-2.231,-2.2349,-2.2625,-2.2695,-2.2772,-2.3093,-2.3189,-2.3259,-2.361,-2.3692,-2.3735,-2.3858,-2.3795,-2.3627,-2.3297,-2.3129,-2.3027,-2.2947,-2.2589,-2.2301,-2.2422,-2.2234,-2.2075,-2.206,-2.2048,-2.2167,-2.2495,-2.2398,-2.2141,-2.1684,-2.204,-2.1938,-2.0998,-2.1742,-2.2124,-2.1667,-2.2057,-2.231,-2.231,-2.231,-2.231,-2.231,-2.231,-2.231,-2.231,-2.231,-2.231,-2.231,-2.231,-2.231,-2.231,-2.231,-2.231,-2.231,-2.231,-2.231,-2.231,-2.231,-2.231,-2.231,-2.231,-2.231,-2.231,-2.231,-2.231,-2.231,-1.3098,-1.3198,-1.3198,-1.3198,-1.3198,-1.3198,-1.3267,-1.3967,-1.4501,-1.4564,-1.5285,-1.5799,-1.5799,-1.5799,-1.5799,-1.5799,-1.6967,-1.7966,-1.8657,-1.9316,-1.969,-1.969,-1.969,-1.969,-1.969,-1.969,-2.012,-2.0926,-2.0959,-2.1415,-2.2237,-2.2282,-2.231,-2.231,-2.231,-2.231,-2.231,-2.231,-2.231,-2.231,-2.231,-2.231,-2.231,-2.231,-2.231,-2.231,-2.231,-2.231,-2.231,-2.2321,-2.2349,-2.2388,-2.2686,-2.2797,-2.2873,-2.3189,-2.33,-2.3369,-2.3671,-2.3735,-2.3816,-2.4113,-2.3976,-2.3816,-2.4132,-2.3958,-2.3837,-2.4151,-2.419,-2.3988,-2.3254,-2.3464,-2.3415,-2.2376,-2.2516,-2.2686,-2.247,-2.2405,-2.2377,-2.2377,-2.2377,-2.2377,-2.2377,-2.2349,-2.2338,-2.231,-2.231,-2.231,-2.231,-2.231,-2.231,-2.231,-2.231,-2.231,-2.231,-2.231,-2.231,-2.231,-2.231,-2.231,-2.231,-2.231,-2.231,-2.231,-2.231,-2.231,-2.231,-2.231,-2.231,-2.231,-2.231,-2.231,-2.231,-2.231,-2.231,-2.231,-1.3173,-1.3198,-1.3198,-1.3198,-1.3198,-1.3323,-1.3682,-1.4181,-1.4596,-1.4937,-1.5448,-1.5799,-1.5799,-1.5799,-1.5799,-1.5799,-1.6967,-1.7966,-1.8657,-1.9316,-1.969,-1.969,-1.969,-1.969,-1.969,-1.969,-1.9945,-2.0449,-2.0829,-2.1244,-2.1764,-2.2135,-2.231,-2.231,-2.231,-2.231,-2.231,-2.231,-2.231,-2.231,-2.231,-2.231,-2.231,-2.231,-2.231,-2.231,-2.231,-2.231,-2.2321,-2.2537,-2.2625,-2.273,-2.33,-2.3482,-2.3544,-2.3896,-2.3996,-2.3996,-2.4074,-2.4094,-2.4113,-2.417,-2.4151,-2.4113,-2.417,-2.4151,-2.4113,-2.419,-2.419,-2.4153,-2.3969,-2.4023,-2.4019,-2.3759,-2.3584,-2.3477,-2.3387,-2.3159,-2.2989,-2.2989,-2.2989,-2.2989,-2.2989,-2.2764,-2.2527,-2.231,-2.231,-2.231,-2.231,-2.231,-2.231,-2.231,-2.231,-2.231,-2.231,-2.231,-2.231,-2.231,-2.231,-2.231,-2.231,-2.231,-2.231,-2.231,-2.231,-2.231,-2.231,-2.231,-2.231,-2.231,-2.231,-2.231,-2.231,-2.231,-2.231,-2.231,-1.3129,-1.3012,-1.2943,-1.3163,-1.3198,-1.3357,-1.3835,-1.4246,-1.4627,-1.5043,-1.5507,-1.5799,-1.5799,-1.5799,-1.6053,-1.6637,-1.7326,-1.81,-1.9106,-1.9495,-1.969,-1.969,-1.969,-1.9782,-1.9965,-2.0,-2.0193,-2.0616,-2.1086,-2.1507,-2.1928,-2.218,-2.231,-2.231,-2.231,-2.231,-2.231,-2.231,-2.231,-2.231,-2.231,-2.231,-2.231,-2.231,-2.231,-2.231,-2.231,-2.2388,-2.25,-2.266,-2.2822,-2.3021,-2.3544,-2.3692,-2.3774,-2.4094,-2.419,-2.419,-2.419,-2.419,-2.419,-2.419,-2.419,-2.419,-2.419,-2.419,-2.419,-2.419,-2.419,-2.419,-2.419,-2.4074,-2.3958,-2.3958,-2.3671,-2.3459,-2.3459,-2.3323,-2.3189,-2.3189,-2.3189,-2.3189,-2.3189,-2.3045,-2.289,-2.2721,-2.2738,-2.2738,-2.2738,-2.2738,-2.2738,-2.2738,-2.2581,-2.2473,-2.2473,-2.236,-2.231,-2.231,-2.231,-2.231,-2.231,-2.231,-2.231,-2.231,-2.231,-2.231,-2.231,-2.231,-2.231,-2.231,-2.231,-2.231,-2.231,-2.231,-2.231,-2.231,-1.2838,-1.2791,-1.272,-1.3129,-1.3198,-1.3323,-1.3702,-1.4181,-1.4658,-1.5165,-1.5551,-1.5799,-1.5799,-1.5799,-1.6233,-1.7296,-1.7563,-1.8283,-1.96,-1.969,-1.969,-1.969,-1.969,-1.9874,-2.028,-2.0382,-2.0649,-2.1086,-2.143,-2.1823,-2.231,-2.231,-2.231,-2.231,-2.231,-2.231,-2.231,-2.231,-2.231,-2.231,-2.231,-2.231,-2.231,-2.231,-2.231,-2.231,-2.231,-2.2463,-2.2721,-2.2822,-2.3069,-2.3346,-2.3671,-2.3795,-2.3837,-2.4113,-2.419,-2.419,-2.419,-2.419,-2.419,-2.419,-2.419,-2.419,-2.419,-2.419,-2.419,-2.419,-2.419,-2.419,-2.419,-2.3976,-2.3795,-2.3795,-2.3544,-2.3369,-2.3369,-2.3369,-2.3369,-2.3369,-2.3369,-2.3346,-2.33,-2.33,-2.3259,-2.3189,-2.3189,-2.3189,-2.3189,-2.3189,-2.3165,-2.3117,-2.2848,-2.2669,-2.2634,-2.2398,-2.231,-2.231,-2.231,-2.231,-2.231,-2.231,-2.231,-2.231,-2.231,-2.231,-2.231,-2.231,-2.231,-2.231,-2.231,-2.231,-2.231,-2.231,-2.231,-2.231,-1.2102,-1.2579,-1.3129,-1.3198,-1.3198,-1.3232,-1.3301,-1.4,-1.4783,-1.561,-1.577,-1.5799,-1.5799,-1.5799,-1.5873,-1.6053,-1.7071,-1.8283,-1.96,-1.969,-1.969,-1.969,-1.969,-1.9874,-2.028,-2.0698,-2.1118,-2.1521,-2.1582,-2.1823,-2.231,-2.231,-2.231,-2.231,-2.231,-2.231,-2.231,-2.231,-2.231,-2.231,-2.231,-2.231,-2.231,-2.231,-2.231,-2.231,-2.231,-2.2463,-2.2797,-2.3369,-2.3588,-2.3692,-2.4016,-2.4113,-2.4151,-2.419,-2.419,-2.419,-2.419,-2.419,-2.419,-2.419,-2.419,-2.419,-2.419,-2.419,-2.419,-2.419,-2.419,-2.419,-2.419,-2.417,-2.4113,-2.4113,-2.4094,-2.4074,-2.4074,-2.4074,-2.4074,-2.4074,-2.4074,-2.3937,-2.3671,-2.3631,-2.3522,-2.3212,-2.3189,-2.3189,-2.3189,-2.3189,-2.3069,-2.2772,-2.2721,-2.2573,-2.2377,-2.2338,-2.231,-2.231,-2.231,-2.231,-2.231,-2.231,-2.231,-2.231,-2.231,-2.231,-2.231,-2.231,-2.231,-2.231,-2.231,-2.231,-2.231,-2.231,-2.231,-2.231,-1.1774,-1.1689,-1.1909,-1.3012,-1.3198,-1.3198,-1.3198,-1.3934,-1.4814,-1.5697,-1.6413,-1.6862,-1.6862,-1.6862,-1.6862,-1.6862,-1.7386,-1.8283,-1.96,-1.969,-1.9818,-2.0035,-2.0035,-2.0364,-2.1007,-2.1228,-2.1538,-2.2003,-2.2003,-2.2106,-2.231,-2.231,-2.231,-2.231,-2.231,-2.231,-2.231,-2.231,-2.231,-2.231,-2.231,-2.231,-2.231,-2.231,-2.231,-2.2338,-2.2463,-2.273,-2.3045,-2.3544,-2.3816,-2.3996,-2.4151,-2.419,-2.419,-2.419,-2.419,-2.419,-2.419,-2.419,-2.419,-2.419,-2.419,-2.419,-2.419,-2.419,-2.419,-2.419,-2.419,-2.419,-2.419,-2.419,-2.419,-2.419,-2.419,-2.419,-2.419,-2.419,-2.419,-2.419,-2.419,-2.4151,-2.3996,-2.3976,-2.3917,-2.3774,-2.3774,-2.3774,-2.3774,-2.3774,-2.3692,-2.3544,-2.3165,-2.2915,-2.2798,-2.247,-2.231,-2.231,-2.231,-2.231,-2.231,-2.231,-2.231,-2.231,-2.231,-2.231,-2.231,-2.231,-2.231,-2.231,-2.231,-2.231,-2.231,-2.231,-2.231,-2.231]}]]